[[{"header":{"parameterUnit":"m.s-1","parameterCategory":1,"la1":30.6,"la2":28.766,"lo1":-90.7593,"lo2":-88.6598,"dy":0.0162,"dx":0.0183,"nx":116,"ny":114,"refTime":"2023-03-31T12:00:00:Z","depth":0,"parameterNumber":2,"parameterNumberName":"U-component_of_WINDS"},"data":[0.0,0.0,0.0,0.0,0.0,0.0,0.0,0.0,0.0,0.0,0.0,0.0,0.0,0.0,0.0,0.0,0.0,0.0,0.0,0.0,0.0,0.0,0.0,0.0,0.0,0.0,0.0,0.0,0.0,0.0,0.0,0.0,0.0,0.0,0.0,0.0,0.0,0.0,0.0,0.0,0.0,0.0,0.0,0.0,0.0,0.0,0.0,0.0,0.0,0.0,0.0,0.0,0.0,0.0,0.0,0.0,0.0,0.0,0.0,0.0,0.0,0.0,0.0,0.0,0.0,0.0,0.0,0.0,0.0,0.0,0.0,0.0,0.0,0.0,0.0,0.0,0.0,0.0,0.0,0.0,0.0,0.0,0.0,0.0,0.0,0.0,0.0,0.0,0.0,0.0,0.0,0.0,0.0,0.0,0.0,0.0,0.0,0.0,0.0,0.0,0.0,0.0,0.0,0.0,0.0,0.0,0.0,0.0,0.0,0.0,0.0,0.0,0.0,0.0,0.0,0.0,0.0,0.0,0.0,0.0,0.0,0.0,0.0,0.0,0.0,0.0,0.0,0.0,0.0,0.0,0.0,0.0,0.0,0.0,0.0,0.0,0.0,0.0,0.0,0.0,0.0,0.0,0.0,0.0,0.0,0.0,0.0,0.0,0.0,0.0,0.0,0.0,0.0,0.0,0.0,0.0,0.0,0.0,0.0,0.0,0.0,0.0,0.0,0.0,0.0,0.0,0.0,0.0,0.0,0.0,0.0,0.0,0.0,0.0,0.0,0.0,0.0,0.0,0.0,0.0,0.0,0.0,0.0,0.0,0.0,0.0,0.0,0.0,0.0,0.0,0.0,0.0,0.0,0.0,0.0,0.0,0.0,0.0,0.0,0.0,0.0,0.0,0.0,0.0,0.0,0.0,0.0,0.0,0.0,0.0,0.0,0.0,0.0,0.0,0.0,0.0,0.0,0.0,0.0,0.0,0.0,0.0,0.0,0.0,0.0,0.0,0.0,0.0,0.0,0.0,0.0,0.0,0.0,0.0,0.0,0.0,0.0,0.0,0.0,0.0,0.0,0.0,0.0,0.0,0.0,0.0,0.0,0.0,0.0,0.0,0.0,0.0,0.0,0.0,0.0,0.0,0.0,0.0,0.0,0.0,0.0,0.0,0.0,0.0,0.0,0.0,0.0,0.0,0.0,0.0,0.0,0.0,0.0,0.0,0.0,0.0,0.0,0.0,0.0,0.0,0.0,0.0,0.0,0.0,0.0,0.0,0.0,0.0,0.0,0.0,0.0,0.0,0.0,0.0,0.0,0.0,0.0,0.0,0.0,0.0,0.0,0.0,0.0,0.0,0.0,0.0,0.0,0.0,0.0,0.0,0.0,0.0,0.0,0.0,0.0,0.0,0.0,0.0,0.0,0.0,0.0,0.0,0.0,0.0,0.0,0.0,0.0,0.0,0.0,0.0,0.0,0.0,0.0,0.0,0.0,0.0,0.0,0.0,0.0,0.0,0.0,0.0,0.0,0.0,0.0,0.0,0.0,0.0,0.0,0.0,0.0,0.0,0.0,0.0,0.0,0.0,0.0,0.0,0.0,0.0,0.0,0.0,0.0,0.0,0.0,0.0,0.0,0.0,0.0,0.0,0.0,0.0,0.0,0.0,0.0,0.0,0.0,0.0,0.0,0.0,0.0,0.0,0.0,0.0,0.0,0.0,0.0,0.0,0.0,0.0,0.0,0.0,0.0,0.0,0.0,0.0,0.0,0.0,0.0,0.0,0.0,0.0,0.0,0.0,0.0,0.0,0.0,0.0,0.0,0.0,0.0,0.0,0.0,0.0,0.0,0.0,0.0,0.0,0.0,0.0,0.0,0.0,0.0,0.0,0.0,0.0,0.0,0.0,0.0,0.0,0.0,0.0,0.0,0.0,0.0,0.0,0.0,0.0,0.0,0.0,0.0,0.0,0.0,0.0,0.0,0.0,0.0,0.0,0.0,0.0,0.0,0.0,0.0,0.0,0.0,0.0,0.0,0.0,0.0,0.0,0.0,0.0,0.0,0.0,0.0,0.0,0.0,0.0,0.0,0.0,0.0,0.0,0.0,0.0,0.0,0.0,0.0,0.0,0.0,0.0,0.0,0.0,0.0,0.0,0.0,0.0,0.0,0.0,0.0,0.0,0.0,0.0,0.0,0.0,0.0,0.0,0.0,0.0,0.0,0.0,0.0,0.0,0.0,0.0,0.0,0.0,0.0,0.0,0.0,0.0,0.0,0.0,0.0,0.0,0.0,0.0,0.0,0.0,0.0,0.0,0.0,0.0,0.0,0.0,0.0,0.0,0.0,0.0,0.0,0.0,0.0,0.0,0.0,0.0,0.0,0.0,0.0,0.0,0.0,0.0,0.0,0.0,0.0,0.0,0.0,0.0,0.0,0.0,0.0,0.0,0.0,0.0,0.0,0.0,0.0,0.0,0.0,0.0,0.0,0.0,0.0,0.0,0.0,0.0,0.0,0.0,0.0,0.0,0.0,0.0,0.0,0.0,0.0,0.0,0.0,0.0,0.0,0.0,0.0,0.0,0.0,0.0,0.0,0.0,0.0,0.0,0.0,0.0,0.0,0.0,0.0,0.0,0.0,0.0,0.0,0.0,0.0,0.0,0.0,0.0,0.0,0.0,0.0,0.0,0.0,0.0,0.0,0.0,0.0,0.0,0.0,0.0,0.0,0.0,0.0,0.0,0.0,0.0,0.0,0.0,0.0,0.0,0.0,0.0,0.0,0.0,0.0,0.0,0.0,0.0,0.0,0.0,0.0,0.0,0.0,0.0,0.0,0.0,0.0,0.0,0.0,0.0,0.0,0.0,0.0,0.0,0.0,0.0,0.0,0.0,0.0,0.0,0.0,0.0,0.0,0.0,0.0,0.0,0.0,0.0,0.0,0.0,0.0,0.0,0.0,0.0,0.0,0.0,0.0,0.0,0.0,0.0,0.0,0.0,0.0,0.0,0.0,0.0,0.0,0.0,0.0,0.0,0.0,0.0,0.0,0.0,0.0,0.0,0.0,0.0,0.0,0.0,0.0,0.0,0.0,0.0,0.0,0.0,0.0,0.0,0.0,0.0,0.0,0.0,0.0,0.0,0.0,0.0,0.0,0.0,0.0,0.0,0.0,0.0,0.0,0.0,0.0,0.0,0.0,0.0,0.0,0.0,0.0,0.0,0.0,0.0,0.0,0.0,0.0,0.0,0.0,0.0,0.0,0.0,0.0,0.0,0.0,0.0,0.0,0.0,0.0,0.0,0.0,0.0,0.0,0.0,0.0,0.0,0.0,0.0,0.0,0.0,0.0,0.0,0.0,0.0,0.0,0.0,0.0,0.0,0.0,0.0,0.0,0.0,0.0,0.0,0.0,0.0,0.0,0.0,0.0,0.0,0.0,0.0,0.0,0.0,0.0,0.0,0.0,0.0,0.0,0.0,0.0,0.0,0.0,0.0,0.0,0.0,0.0,0.0,0.0,0.0,0.0,0.0,0.0,0.0,0.0,0.0,0.0,0.0,0.0,0.0,0.0,0.0,0.0,0.0,0.0,0.0,0.0,0.0,0.0,0.0,0.0,0.0,0.0,0.0,0.0,0.0,0.0,0.0,0.0,0.0,0.0,0.0,0.0,0.0,0.0,0.0,0.0,0.0,0.0,0.0,0.0,0.0,0.0,0.0,0.0,0.0,0.0,0.0,0.0,0.0,0.0,0.0,0.0,0.0,0.0,0.0,0.0,0.0,0.0,0.0,0.0,0.0,0.0,0.0,0.0,0.0,0.0,0.0,0.0,0.0,0.0,0.0,0.0,0.0,0.0,0.0,0.0,0.0,0.0,0.0,0.0,0.0,0.0,0.0,0.0,0.0,0.0,0.0,0.0,0.0,0.0,0.0,0.0,0.0,0.0,0.0,0.0,0.0,0.0,0.0,0.0,0.0,0.0,0.0,0.0,0.0,0.0,0.0,0.0,0.0,0.0,0.0,0.0,0.0,0.0,0.0,0.0,0.0,0.0,0.0,0.0,0.0,0.0,0.0,0.0,0.0,0.0,0.0,0.0,0.0,0.0,0.0,0.0,0.0,0.0,0.0,0.0,0.0,0.0,0.0,0.0,0.0,0.0,0.0,0.0,0.0,0.0,0.0,0.0,0.0,0.0,0.0,0.0,0.0,0.0,0.0,0.0,0.0,0.0,0.0,0.0,0.0,0.0,0.0,0.0,0.0,0.0,0.0,0.0,0.0,0.0,0.0,0.0,0.0,0.0,0.0,0.0,0.0,0.0,0.0,0.0,0.0,0.0,0.0,0.0,0.0,0.0,0.0,0.0,0.0,0.0,0.0,0.0,0.0,0.0,0.0,0.0,0.0,0.0,0.0,0.0,0.0,0.0,0.0,0.0,0.0,0.0,0.0,0.0,0.0,0.0,0.0,0.0,0.0,0.0,0.0,0.0,0.0,0.0,0.0,0.0,0.0,0.0,0.0,0.0,0.0,0.0,0.0,0.0,0.0,0.0,0.0,0.0,0.0,0.0,0.0,0.0,0.0,0.0,0.0,0.0,0.0,0.0,0.0,0.0,0.0,0.0,0.0,0.0,0.0,0.0,0.0,0.0,0.0,0.0,0.0,0.0,0.0,0.0,0.0,0.0,0.0,0.0,0.0,0.0,0.0,0.0,0.0,0.0,0.0,0.0,0.0,0.0,0.0,0.0,0.0,0.0,0.0,0.0,0.0,0.0,0.0,0.0,0.0,0.0,0.0,0.0,0.0,0.0,0.0,0.0,0.0,0.0,0.0,0.0,0.0,0.0,0.0,0.0,0.0,0.0,0.0,0.0,0.0,0.0,0.0,0.0,0.0,0.0,0.0,0.0,0.0,0.0,0.0,0.0,0.0,0.0,0.0,0.0,0.0,0.0,0.0,0.0,0.0,0.0,0.0,0.0,0.0,0.0,0.0,0.0,0.0,0.0,0.0,0.0,0.0,0.0,0.0,0.0,0.0,0.0,0.0,0.0,0.0,0.0,0.0,0.0,0.0,0.0,0.0,0.0,0.0,0.0,0.0,0.0,0.0,0.0,0.0,0.0,0.0,0.0,0.0,0.0,0.0,0.0,0.0,0.0,0.0,0.0,0.0,0.0,0.0,0.0,0.0,0.0,0.0,0.0,0.0,0.0,0.0,0.0,0.0,0.0,0.0,0.0,0.0,0.0,0.0,0.0,0.0,0.0,0.0,0.0,0.0,0.0,0.0,0.0,0.0,0.0,0.0,0.0,0.0,0.0,0.0,0.0,0.0,0.0,0.0,0.0,0.0,0.0,0.0,0.0,0.0,0.0,0.0,0.0,0.0,0.0,0.0,0.0,0.0,0.0,0.0,0.0,0.0,0.0,0.0,0.0,0.0,0.0,0.0,0.0,0.0,0.0,0.0,0.0,0.0,0.0,0.0,0.0,0.0,0.0,0.0,0.0,0.0,0.0,0.0,0.0,0.0,0.0,0.0,0.0,0.0,0.0,0.0,0.0,0.0,0.0,0.0,0.0,0.0,0.0,0.0,0.0,0.0,0.0,0.0,0.0,0.0,0.0,0.0,0.0,0.0,0.0,0.0,0.0,0.0,0.0,0.0,0.0,0.0,0.0,0.0,0.0,0.0,0.0,0.0,0.0,0.0,0.0,0.0,0.0,0.0,0.0,0.0,0.0,0.0,0.0,0.0,0.0,0.0,0.0,0.0,0.0,0.0,0.0,0.0,0.0,0.0,0.0,0.0,0.0,0.0,0.0,0.0,0.0,0.0,0.0,0.0,0.0,0.0,0.0,0.0,0.0,0.0,0.0,0.0,0.0,0.0,0.0,0.0,0.0,0.0,0.0,0.0,0.0,0.0,0.0,0.0,0.0,0.0,0.0,0.0,0.0,0.0,0.0,0.0,0.0,0.0,0.0,0.0,0.0,0.0,0.0,0.0,0.0,0.0,0.0,0.0,0.0,0.0,0.0,0.0,0.0,0.0,0.0,0.0,0.0,0.0,0.0,0.0,0.0,0.0,0.0,0.0,0.0,0.0,0.0,0.0,0.0,0.0,0.0,0.0,0.0,0.0,0.0,0.0,-3.8826,0.0,0.0,0.0,0.0,0.0,0.0,0.0,0.0,0.0,0.0,0.0,0.0,0.0,0.0,0.0,0.0,0.0,0.0,0.0,0.0,0.0,0.0,0.0,0.0,0.0,0.0,0.0,0.0,0.0,0.0,0.0,0.0,0.0,0.0,0.0,0.0,0.0,0.0,0.0,-3.2647,-3.2307,-3.1915,-3.3015,-3.3093,-3.2403,0.0,0.0,0.0,0.0,0.0,0.0,0.0,0.0,0.0,0.0,0.0,0.0,0.0,0.0,0.0,0.0,0.0,0.0,0.0,0.0,0.0,0.0,0.0,0.0,0.0,0.0,0.0,0.0,0.0,0.0,0.0,0.0,0.0,0.0,0.0,0.0,0.0,0.0,0.0,0.0,0.0,0.0,0.0,0.0,0.0,0.0,0.0,0.0,0.0,0.0,0.0,0.0,0.0,0.0,0.0,0.0,0.0,0.0,0.0,0.0,0.0,0.0,0.0,0.0,0.0,0.0,0.0,0.0,0.0,0.0,0.0,-3.9439,0.0,0.0,0.0,0.0,0.0,0.0,0.0,0.0,0.0,0.0,0.0,0.0,0.0,0.0,0.0,0.0,0.0,0.0,0.0,0.0,0.0,0.0,0.0,0.0,-3.3124,-3.3124,-3.3124,-3.3025,0.0,0.0,0.0,0.0,0.0,0.0,0.0,-3.0365,-3.1037,-3.1887,-3.0399,-2.9715,-2.9886,-3.1156,-3.0762,-2.9135,-3.1272,0.0,0.0,0.0,0.0,0.0,0.0,0.0,0.0,0.0,0.0,0.0,0.0,0.0,0.0,0.0,0.0,0.0,0.0,0.0,0.0,0.0,0.0,0.0,0.0,0.0,0.0,0.0,0.0,0.0,0.0,0.0,0.0,0.0,0.0,0.0,0.0,0.0,0.0,0.0,0.0,0.0,0.0,0.0,0.0,0.0,0.0,0.0,0.0,0.0,0.0,0.0,0.0,0.0,0.0,0.0,0.0,0.0,0.0,0.0,0.0,0.0,0.0,0.0,-3.8886,-3.9544,-4.0061,-4.0061,-3.9843,-3.9529,-4.1542,-4.1407,-3.9798,0.0,0.0,0.0,0.0,0.0,0.0,0.0,0.0,0.0,0.0,0.0,0.0,0.0,0.0,0.0,0.0,0.0,0.0,0.0,0.0,0.0,0.0,-3.3124,-3.3124,-3.3124,-3.3124,-3.2612,0.0,0.0,0.0,0.0,0.0,0.0,-2.8433,-2.9228,-3.0083,-3.1072,-2.8679,-2.7301,-2.6866,-2.6565,-2.6249,-2.616,-3.035,-3.2541,-3.3056,0.0,0.0,0.0,0.0,0.0,0.0,0.0,0.0,0.0,0.0,0.0,0.0,0.0,0.0,0.0,0.0,0.0,0.0,0.0,0.0,0.0,0.0,0.0,0.0,0.0,0.0,0.0,0.0,0.0,0.0,0.0,0.0,0.0,0.0,0.0,0.0,0.0,0.0,0.0,0.0,0.0,-3.1815,-3.4063,0.0,0.0,0.0,0.0,0.0,0.0,0.0,0.0,0.0,0.0,0.0,0.0,0.0,0.0,-3.8766,-4.0247,-4.0973,-4.0876,-4.2102,-4.2692,-4.2781,-4.2781,-4.305,-4.3494,-4.274,0.0,-4.1085,-4.0591,0.0,0.0,0.0,0.0,0.0,0.0,0.0,0.0,0.0,0.0,0.0,0.0,0.0,0.0,0.0,0.0,0.0,0.0,0.0,0.0,0.0,-3.3357,-3.3533,-3.3533,-3.4431,-3.4049,-3.1836,-3.1784,0.0,0.0,0.0,-2.7176,-2.8939,-2.8699,-2.8656,-2.8869,-2.7683,-2.6664,-2.5829,-2.7129,-2.736,-2.685,-3.0233,-3.1023,-2.9884,-3.0465,0.0,0.0,0.0,0.0,0.0,0.0,0.0,0.0,0.0,0.0,0.0,0.0,0.0,0.0,0.0,0.0,0.0,0.0,0.0,0.0,0.0,0.0,0.0,0.0,0.0,0.0,0.0,0.0,0.0,0.0,0.0,0.0,0.0,0.0,0.0,0.0,0.0,0.0,0.0,-3.2673,-3.4708,-3.4475,-3.6233,-3.6206,0.0,0.0,0.0,0.0,0.0,0.0,0.0,0.0,0.0,-3.9388,-4.0502,-4.0531,-3.9388,-4.1474,-4.2506,-4.2521,-4.3449,-4.4077,-4.4451,-4.4799,-4.5128,-4.5424,-4.5229,-4.4766,-4.4018,-4.2237,-4.1788,-4.1998,0.0,0.0,0.0,0.0,-3.7704,-3.905,0.0,0.0,0.0,0.0,0.0,0.0,0.0,0.0,0.0,0.0,0.0,0.0,-3.3282,-3.3909,-3.4324,-3.4324,-3.5316,-3.4728,-3.1874,-3.2265,0.0,0.0,-2.7451,-2.7578,-2.9128,-2.8088,-2.7315,-2.6973,-2.6617,-2.6029,-2.5389,-2.7459,-2.8107,-2.758,-2.9558,-2.9477,-2.7965,-2.9284,-3.0218,-3.087,0.0,0.0,0.0,0.0,0.0,0.0,0.0,0.0,0.0,0.0,0.0,0.0,0.0,0.0,0.0,0.0,0.0,0.0,0.0,0.0,0.0,0.0,0.0,0.0,0.0,0.0,0.0,0.0,0.0,0.0,0.0,0.0,0.0,0.0,0.0,0.0,0.0,-3.4687,-3.6557,-3.5125,-3.7491,-3.7845,0.0,0.0,0.0,0.0,0.0,0.0,-4.0091,-4.0801,-4.101,-4.0644,-4.2102,-4.2237,-4.0935,-4.306,-4.4137,-4.4152,-4.4781,-4.5424,-4.6067,-4.6411,-4.6666,-4.6845,-4.7174,-4.7025,-4.6396,-4.4077,-4.2925,-4.2536,-4.1354,-4.0801,-4.0494,-3.9334,-3.9858,-4.113,0.0,0.0,0.0,0.0,0.0,0.0,0.0,0.0,0.0,0.0,0.0,-3.3859,-3.3859,-3.4768,-3.542,-3.542,-3.5019,-3.3582,-3.0661,-2.9928,-2.8616,-2.6354,-2.6574,-2.7121,-2.7963,-2.694,-2.6307,-2.6172,-2.5052,-2.4729,-2.5142,-2.5255,-2.5892,-2.6967,-2.755,-2.8397,-2.9552,-3.0257,-3.0866,-3.1342,-3.1436,0.0,0.0,0.0,0.0,0.0,0.0,0.0,0.0,0.0,0.0,0.0,0.0,0.0,0.0,0.0,0.0,0.0,0.0,0.0,0.0,0.0,0.0,0.0,0.0,0.0,0.0,0.0,0.0,0.0,0.0,0.0,0.0,0.0,0.0,0.0,0.0,0.0,0.0,-3.5784,-3.702,0.0,0.0,0.0,0.0,-3.6886,-3.9527,-4.1481,-4.2216,-4.2865,-4.3494,-4.4047,-4.4167,-4.4466,-4.499,-4.5783,-4.613,-4.6145,-4.6845,-4.7504,-4.8117,-4.7519,-4.7593,-4.8162,-4.7563,-4.7279,-4.7145,-4.5723,-4.5514,-4.5813,-4.3269,-4.3,-4.3763,-4.1235,-4.1519,-4.305,0.0,0.0,0.0,0.0,0.0,0.0,0.0,0.0,-3.3483,-3.3174,-3.3872,-3.4424,-3.4424,-3.573,-3.6596,-3.6596,-3.6037,-3.4932,-3.3147,-3.0979,-2.9657,-2.9374,-2.7426,-2.6373,-2.6404,-2.5545,-2.5106,-2.5138,-2.4965,-2.5325,-2.6259,-2.7366,-2.8258,-2.9121,-3.0869,-3.1677,-3.166,-3.0814,-3.0422,-3.0413,-3.1128,-3.1311,0.0,0.0,0.0,0.0,0.0,0.0,0.0,0.0,0.0,0.0,0.0,0.0,0.0,0.0,0.0,0.0,0.0,0.0,0.0,0.0,0.0,0.0,0.0,0.0,0.0,0.0,0.0,0.0,0.0,0.0,0.0,0.0,0.0,0.0,0.0,0.0,0.0,-3.7803,-4.0295,0.0,-3.9934,-4.069,-4.0798,-3.9605,-4.1449,-4.2925,-4.3584,-4.3853,-4.4481,-4.5574,-4.5603,-4.5918,-4.6576,-4.683,-4.695,-4.6965,-4.7623,-4.7833,-4.7653,-4.7848,-4.8057,-4.8252,-4.7593,-4.7788,-4.8506,-4.7593,-4.686,-4.61,-4.4332,-4.4603,-4.5712,-4.3681,-4.4291,-4.606,0.0,0.0,0.0,0.0,0.0,0.0,0.0,0.0,-3.3558,-3.3382,-3.4311,-3.5064,-3.5253,-3.6759,-3.7591,-3.706,-3.6578,-3.5219,-3.2686,-3.1001,-2.9834,-2.9118,-2.706,-2.5937,-2.5964,-2.4818,-2.4666,-2.562,-2.566,-2.6424,-2.7764,-2.8884,-2.9907,-3.0893,-3.2542,-3.3453,-3.3671,-3.241,-3.1477,-3.0937,-3.1489,-3.1348,-3.0911,0.0,0.0,0.0,0.0,0.0,0.0,0.0,0.0,0.0,0.0,0.0,0.0,0.0,0.0,0.0,0.0,0.0,0.0,0.0,0.0,0.0,0.0,0.0,0.0,0.0,0.0,0.0,0.0,0.0,0.0,0.0,0.0,0.0,0.0,0.0,-3.8965,-3.9859,-4.2326,-4.3537,-4.2456,-4.2955,-4.2857,-4.177,-4.3326,-4.45,-4.496,-4.52,-4.5738,-4.6636,-4.6875,-4.7189,-4.7638,-4.7863,-4.7863,-4.7638,-4.8072,-4.8177,-4.7982,-4.8192,-4.8162,-4.7952,-4.7967,-4.8087,-4.8297,-4.8521,-4.8335,-4.7743,-4.6891,-4.7327,-4.8341,-4.7426,-4.8066,-4.9311,0.0,0.0,0.0,0.0,0.0,0.0,0.0,-3.2667,-3.3206,-3.3734,-3.4768,-3.5696,-3.6197,-3.7852,-3.8336,-3.6848,-3.6469,-3.4161,-2.9128,-2.9737,-2.8706,-2.5189,-2.5407,-2.593,-2.6654,-2.4866,-2.5123,-2.7568,-2.7184,-2.7831,-2.9475,-2.9486,-3.0457,-3.2227,-3.2227,-3.3457,-3.5495,-3.4956,-3.4148,-3.3106,-3.2491,-3.1901,-3.1508,0.0,0.0,0.0,0.0,0.0,0.0,0.0,0.0,0.0,0.0,0.0,0.0,0.0,0.0,0.0,0.0,0.0,0.0,0.0,0.0,0.0,0.0,0.0,0.0,0.0,0.0,0.0,0.0,0.0,0.0,0.0,0.0,0.0,-3.4059,-3.8048,-4.1128,-4.1889,-4.2854,-4.3409,-4.3409,-4.3494,-4.3494,-4.3424,-4.5218,-4.6309,-4.6309,-4.692,-4.7249,-4.7249,-4.7863,-4.8207,-4.8222,-4.894,-4.897,-4.8312,-4.8341,-4.8671,-4.9284,-4.8626,-4.7997,-4.7459,-4.8716,-4.8207,-4.6621,-4.8535,-4.998,-5.0951,-5.0894,-5.1124,-5.1619,-5.2292,-5.2549,-5.2533,0.0,0.0,0.0,0.0,0.0,0.0,0.0,-3.175,-3.1775,-3.1549,-3.3828,-3.5012,-3.3715,-3.711,-3.8745,-3.6872,-3.5328,-3.4195,-3.3654,-3.0008,-2.729,-2.598,-2.5976,-2.592,-2.5769,-2.6268,-2.6718,-2.7075,-2.8585,-2.9996,-3.1351,-3.1772,-3.2893,-3.4561,-3.4561,-3.5142,-3.6119,-3.5981,-3.5504,-3.4705,-3.3395,-3.2252,-3.1427,0.0,0.0,0.0,0.0,0.0,0.0,0.0,0.0,0.0,0.0,0.0,0.0,0.0,0.0,0.0,0.0,0.0,0.0,0.0,0.0,0.0,0.0,0.0,0.0,0.0,0.0,0.0,0.0,0.0,0.0,0.0,0.0,-3.7139,-3.6949,-3.969,-4.222,-4.3482,-4.5153,-4.6217,-4.6217,-4.6217,-4.6217,-4.6217,-4.6726,-4.704,-4.704,-4.6277,-4.5843,-4.5843,-4.6022,-4.6367,-4.686,-4.7997,-4.8745,-4.9045,-4.9479,-4.9553,-4.9329,-4.9568,-4.9553,-4.9373,-4.9314,-4.9494,-4.9883,-5.0235,-5.1009,-5.1774,-5.0575,-5.1104,-5.2464,-5.1395,-5.1012,-5.0829,0.0,0.0,0.0,0.0,0.0,0.0,0.0,-3.1248,-3.1076,-3.0165,-3.3021,-3.4495,-3.2749,-3.5746,-3.7394,-3.6113,-3.4589,-3.3266,-3.2292,-2.8313,-2.6091,-2.6216,-2.5915,-2.6054,-2.6645,-2.73,-2.8222,-2.9413,-3.0684,-3.1971,-3.321,-3.3527,-3.429,-3.5508,-3.578,-3.6194,-3.6769,-3.6948,-3.6872,-3.6423,-3.5278,-3.3847,-3.2416,-3.2177,-3.2051,-3.2001,-3.2064,-3.2962,-3.3956,-3.2974,0.0,0.0,0.0,0.0,0.0,0.0,0.0,0.0,0.0,0.0,0.0,0.0,0.0,0.0,0.0,0.0,0.0,0.0,0.0,0.0,0.0,0.0,0.0,0.0,-3.7501,-4.0232,-4.093,-4.2416,-4.3974,-4.5412,-4.6591,-4.7309,-4.7309,-4.7309,-4.7309,-4.7309,-4.7309,-4.7309,-4.7309,-4.683,-4.6157,-4.5319,-4.6636,-4.716,-4.6741,-4.8581,-4.9568,-4.9673,-5.0001,-5.0001,-4.9688,-5.0016,-4.9897,0.0,-4.9883,-5.0336,-5.068,-5.1051,-5.2104,0.0,0.0,0.0,0.0,0.0,-5.2622,-5.2491,0.0,0.0,0.0,0.0,0.0,0.0,0.0,-3.0909,-3.0767,-2.9432,-3.2321,-3.3916,-3.2369,-3.4113,-3.5242,-3.4774,-3.397,-3.1852,-2.7903,-2.5923,-2.5231,-2.6096,-2.5797,-2.6494,-2.8492,-2.8374,-2.9791,-3.2909,-3.3109,-3.3759,-3.4768,-3.4876,-3.5165,-3.5608,-3.6144,-3.6719,-3.7211,-3.7701,-3.7952,-3.7965,-3.7475,-3.6031,-3.411,-3.3571,-3.3621,-3.3922,-3.3432,-3.3018,-3.2654,-3.2466,0.0,0.0,0.0,0.0,0.0,0.0,0.0,0.0,0.0,0.0,0.0,0.0,0.0,0.0,0.0,0.0,0.0,0.0,0.0,0.0,0.0,0.0,0.0,0.0,-3.9528,-4.278,-4.5371,-4.5738,-4.6127,-4.7174,-4.7309,-4.7309,-4.7309,-4.7309,-4.7309,-4.7309,-4.7309,-4.7339,-4.7414,0.0,0.0,0.0,0.0,-4.8985,-4.7429,-4.9868,-5.0808,-5.03,-5.03,-5.03,-5.03,-5.03,-4.9628,-4.8611,-5.0559,-5.0862,-5.0102,-5.1487,-5.325,-5.5033,-5.5033,-5.4812,-5.4532,-5.5023,-5.5276,-5.5446,0.0,0.0,0.0,0.0,0.0,0.0,0.0,-3.003,-2.9853,-2.9085,-3.158,-3.2506,-3.0138,-3.3223,-3.4789,-3.3126,-3.2678,-3.1033,-2.7615,-2.6042,-2.5638,-2.6404,-2.6941,-2.7888,-2.9357,-3.1043,-3.2218,-3.2909,-3.4299,-3.5102,-3.5357,-3.583,-3.6153,-3.6207,-3.6367,-3.6719,-3.7199,-3.7299,-3.76,-3.8002,-3.7889,-3.7061,-3.5864,-3.5278,-3.4806,-3.455,-3.4449,-3.4901,-3.5399,-3.4022,-3.3734,-3.3771,-3.288,-3.2426,0.0,0.0,0.0,0.0,0.0,0.0,0.0,0.0,0.0,0.0,0.0,0.0,0.0,0.0,0.0,0.0,0.0,0.0,0.0,-4.1124,-4.3669,-4.6077,-4.8222,-4.855,-4.8207,-4.7399,-4.7309,-4.7309,-4.7309,-4.7309,-4.7309,-4.7309,-4.7309,-4.7534,-4.8072,-4.6681,0.0,-4.689,-4.7025,-4.7414,-4.8087,-4.9643,-5.0584,-5.0988,0.0,0.0,-5.0988,-5.0988,-5.0554,-4.9943,-5.1787,-5.1845,-5.0796,-5.2741,-5.4022,-5.4693,-5.4693,-5.4276,-5.3585,-5.2486,-5.2875,-5.3754,0.0,0.0,0.0,0.0,0.0,0.0,0.0,-2.9792,-2.9324,-2.8025,-3.0667,-3.198,-3.03,-3.2063,-3.3414,-3.3579,-3.2035,-3.0077,-2.7871,-2.7303,-2.7002,-2.6824,-2.8188,-2.9817,-3.1588,-3.2735,-3.3764,-3.4654,-3.5525,-3.5956,-3.5968,-3.6279,-3.6405,-3.6417,-3.6694,-3.7073,-3.7613,-3.7902,-3.8341,-3.8856,-3.8856,-3.8517,-3.7939,-3.7098,-3.6784,-3.6759,-3.6471,-3.6358,-3.6285,-3.5398,-3.495,-3.4641,-3.4053,-3.3966,-3.4128,0.0,0.0,0.0,0.0,0.0,0.0,0.0,0.0,0.0,0.0,0.0,0.0,0.0,0.0,-3.6724,0.0,0.0,-4.0981,-4.27,-4.4864,-4.701,-4.903,-4.9314,-4.894,-4.7923,-4.8087,-4.8027,-4.7369,-4.7593,-4.7653,-4.7339,-4.7309,-4.7593,-4.8252,-4.7653,-4.7294,-4.7309,-4.8252,-4.8626,-4.8282,-4.9912,-5.0885,-5.1214,-5.1214,-5.1214,-5.1214,-5.1804,-5.188,-5.1606,-5.2738,-5.3123,-5.3005,-5.3944,-5.4181,-5.4042,-5.4042,-5.4042,-5.3907,-5.2773,-5.2858,-5.3399,0.0,0.0,0.0,0.0,0.0,0.0,0.0,0.0,-2.9222,-2.76,-2.9995,-3.1601,-3.0851,-3.1045,-3.1916,-3.3608,-3.1223,-2.9038,-2.7714,-2.8242,-2.8261,-2.7487,-2.9559,-3.175,-3.4005,-3.4173,-3.4976,-3.6568,-3.6568,-3.6619,-3.6732,-3.6619,-3.6619,-3.6744,-3.7036,-3.755,-3.8203,-3.8668,-3.9195,-3.9697,-3.9697,-3.9839,-3.9982,-3.9056,-3.8992,-3.9322,-3.834,-3.7564,-3.6983,-3.6449,-3.5698,-3.5036,-3.4816,-3.5464,-3.6052,-3.4803,-3.5833,0.0,0.0,0.0,0.0,0.0,0.0,0.0,0.0,0.0,-3.7958,-3.7473,-3.8613,-3.981,-3.9965,-4.1587,-4.3202,-4.4146,-4.585,-4.7683,-4.9404,-4.9689,-4.9359,-4.8566,-4.8985,-4.879,-4.7608,-4.7982,-4.8012,-4.7354,-4.7309,-4.7653,-4.8431,-4.885,-4.876,-4.8087,-5.0002,-5.0331,-4.8865,-5.0436,-5.1214,-5.1214,-5.1214,-5.1308,-5.1557,-5.2485,-5.2878,-5.2844,-5.3088,-5.3896,-5.4957,-5.4574,-5.4042,-5.3501,-5.3501,-5.3856,-5.4296,-5.3721,-5.3501,-5.3501,0.0,0.0,0.0,0.0,0.0,0.0,0.0,0.0,0.0,-2.95,-3.0215,-3.0568,-3.0,-3.0798,-3.1113,-3.0419,-2.9541,-2.811,-2.6037,-2.7192,-2.8226,-2.8656,-3.1193,-3.3427,-3.5239,-3.5818,-3.6438,-3.7098,-3.7098,-3.7337,-3.7814,-3.7324,-3.7349,-3.7801,-3.7374,-3.7776,-3.8781,-3.8894,-3.9195,-3.9697,-3.9697,-4.0364,-4.1343,-4.1274,-4.1261,-4.1021,-3.8801,-3.8548,-3.901,-3.6862,-3.6035,-3.5865,-3.5388,-3.5939,-3.6722,-3.6661,-3.6417,-3.6043,-3.5336,-3.2857,-3.077,-3.1986,-3.4235,-3.5971,0.0,0.0,-4.2921,-4.1184,-4.2827,-4.473,-4.534,-4.6139,-4.7134,-4.8417,-4.9284,-5.0031,-5.0885,-5.1005,-5.0541,-4.9344,-4.9269,-4.903,-4.8252,-4.8237,-4.8012,-4.7354,-4.7309,-4.7848,-4.9134,-4.8671,-4.9134,-5.0735,-5.045,-5.048,-5.0885,-5.1109,-5.1214,-5.1214,-5.1214,-5.1727,-5.2694,-5.2856,-5.2782,-5.2516,-5.221,-5.3042,-5.4614,-5.3923,-5.3568,-5.3501,-5.3501,-5.3551,-5.3619,-5.3534,-5.3501,-5.3501,0.0,0.0,0.0,0.0,0.0,0.0,0.0,0.0,0.0,0.0,-3.0269,-3.0771,-3.116,-3.1311,-3.0959,-2.988,-2.8674,-2.7569,-2.6628,-2.811,-2.9427,-3.0323,-3.2638,-3.4598,-3.5994,-3.6558,-3.7008,-3.7186,-3.75,-3.7789,-3.8002,-3.7764,-3.7613,-3.7525,-3.7626,-3.7927,-3.8391,-3.873,-3.9195,-3.9736,-4.0503,-4.1119,-4.1574,-4.1584,-4.1742,-4.175,-3.9259,-3.8202,0.0,-3.6247,-3.6072,-3.6476,-3.6518,-3.6799,-3.6916,-3.5735,-3.5516,-3.5495,-3.4416,-3.4708,-3.5386,0.0,-3.8554,-4.1336,-4.1124,-4.3641,-4.5828,-4.499,-4.6007,-4.7234,-4.7908,-4.7638,-4.7863,0.0,-4.9419,-4.9598,-5.102,-5.0838,-5.0301,-4.9419,-4.8596,-4.7863,-4.7204,-4.7833,-4.7863,-4.6815,-4.7085,-4.7878,-4.9239,-4.9634,-5.0255,-5.1169,-5.1956,-5.1956,-5.1214,-5.1977,-5.1977,-5.1214,-5.229,-5.2824,-5.2945,-5.4221,-5.4654,-5.4341,-5.4161,-5.4068,-5.3974,-5.4093,-5.389,-5.3501,-5.3501,-5.3754,-5.4093,-5.367,-5.3501,-5.3501,0.0,0.0,0.0,0.0,0.0,0.0,0.0,0.0,0.0,0.0,-2.9922,-3.0683,-3.1461,-3.1047,-3.0331,-2.9415,-2.821,-2.7384,-2.71,-2.8776,-3.0189,-3.1125,-3.3296,-3.5014,-3.6107,-3.6671,-3.7111,-3.7412,-3.7663,-3.8015,-3.8467,-3.8153,-3.7965,-3.7889,-3.8128,-3.8329,-3.8504,-3.8919,-3.9563,-4.0313,-4.1219,-4.1786,-4.208,-4.185,-4.1681,-4.1249,-3.8755,-3.7578,-3.6964,-3.5528,-3.587,-3.6932,-3.7104,-3.715,-3.6854,-3.5286,-3.4901,-3.4861,-3.4442,-3.6148,0.0,-3.902,-4.2013,-4.5005,-4.5918,-4.7294,-4.8386,-4.8386,-4.876,-4.9179,-4.9479,-4.8611,-4.8371,-4.9927,-4.9449,-4.9329,-5.075,-5.0376,-4.9523,-4.8356,-4.7174,-4.6082,-4.5065,-4.6651,-4.7429,-4.6651,-4.7204,-4.8072,-4.9254,-5.068,-5.1649,-5.1954,-5.3407,-5.3758,-5.2734,-5.3366,-5.326,-5.2475,-5.378,-5.4201,-5.3882,-5.5385,-5.604,-5.5987,-5.5581,-5.4803,-5.3839,-5.438,-5.416,-5.3501,-5.3501,-5.3822,-5.4228,-5.3704,-5.3636,-5.3771,0.0,0.0,0.0,0.0,0.0,0.0,0.0,0.0,0.0,0.0,0.0,0.0,0.0,-2.9352,-2.8737,-2.821,-2.8109,-2.7631,-2.6598,-2.8579,-3.0029,-3.0599,-3.2728,-3.4449,-3.5495,-3.6107,-3.691,-3.799,-3.7462,-3.804,-3.9622,-3.8517,-3.858,-3.9597,-3.9082,-3.9145,-3.9647,-3.9659,-4.0402,-4.1555,-4.1604,-4.2316,-4.327,-4.2625,-4.1164,-3.9165,-3.6822,-3.7002,-3.7912,-3.494,-3.5488,-3.7295,-3.6701,-3.6507,-3.6507,-3.6462,-3.507,-3.3978,-3.5878,0.0,-3.5731,-4.0172,-4.2372,-4.4287,-4.7474,-4.9703,-5.1094,-5.1094,-5.1109,-5.0945,-5.0285,-4.9658,-4.9434,-5.0091,-5.0166,-5.0151,-5.0211,-4.9703,-4.8371,-4.5723,-4.4811,-4.3643,0.0,-4.4481,-4.6636,-4.7234,-4.7878,-4.8551,-4.9269,-5.1613,-5.3222,-5.3875,-5.4589,-5.5505,-5.6605,-5.5491,-5.5162,-5.557,-5.5645,-5.5804,-5.6116,-5.5839,-5.6104,-5.6697,-5.5243,-5.46,-5.4566,-5.4583,-5.416,-5.3501,-5.3501,-5.3518,-5.3534,-5.3518,-5.3957,-5.4448,0.0,0.0,0.0,0.0,0.0,0.0,0.0,0.0,0.0,0.0,0.0,0.0,0.0,0.0,0.0,0.0,-2.7645,-2.7176,-2.7521,-2.8263,-2.9249,-3.0532,-3.2384,-3.3696,-3.4437,-3.5705,-3.6358,-3.6323,-3.7287,-3.7826,-3.8027,-3.8015,-3.8015,-3.8102,-3.9548,-4.0021,-3.9927,-4.1555,-4.2461,-4.2862,-4.2791,-4.3036,-4.3128,-4.0676,-3.9335,-3.8331,0.0,-3.4971,-3.5517,-3.3602,-3.4099,-3.5429,-3.5252,-3.5177,-3.5013,-3.4113,-3.4322,-3.4981,0.0,0.0,-4.0935,-4.3374,-4.5978,-4.8566,-5.0975,-5.1708,-5.1872,-5.1872,-4.9793,-4.7758,-4.7085,-4.5708,-4.5376,-4.7324,-4.6847,-4.7176,-4.9822,-4.7788,-4.5978,-4.5978,-4.4575,0.0,0.0,0.0,0.0,-4.6287,-4.8239,-4.9974,-5.1356,-5.3113,-5.4401,-5.5098,-5.6211,-5.6797,-5.6814,-5.6797,-5.6419,-5.5687,-5.5953,-5.649,-5.7301,-5.6706,-5.6579,-5.6765,-5.6275,-5.5497,-5.4634,-5.5141,-5.4617,-5.3501,-5.3501,-5.3805,-5.416,-5.3687,-5.3957,-5.4482,0.0,0.0,0.0,0.0,0.0,0.0,0.0,0.0,0.0,0.0,0.0,0.0,0.0,0.0,0.0,0.0,0.0,-2.7165,-2.8047,-2.7921,-2.8386,-2.9666,-3.0733,-3.1562,-3.2114,-3.4058,-3.5156,-3.5207,-3.6586,-3.7415,-3.7673,-3.7215,-3.7087,-3.7211,-3.8755,-3.9401,-3.9329,-4.1276,-4.2454,-4.3013,-4.2038,-4.1784,-4.1668,-3.8792,-3.727,0.0,-3.4517,-3.4113,-3.4384,-3.3499,-3.4098,-3.5147,-3.4653,-3.4189,-3.3754,-3.3619,0.0,0.0,0.0,-4.0935,-4.4526,-4.6561,-4.9015,-5.1334,-5.283,-5.268,-5.1992,-5.1304,-4.8581,-4.5828,-4.4197,-4.2476,-4.2102,-4.4511,-4.4182,-4.493,-4.8611,-4.6743,-4.5185,-4.5559,-4.4426,-4.3838,0.0,0.0,0.0,-4.5629,-4.8059,-5.0112,-5.1579,-5.3579,-5.5297,-5.6672,-5.8038,-5.8615,-5.842,-5.8355,-5.7868,-5.6865,-5.6818,-5.7206,-5.7865,-5.7137,-5.6376,-5.5649,-5.619,-5.526,-5.3484,-5.4786,-5.46,-5.3501,-5.3501,-5.3788,-5.4143,-5.367,-5.3805,-5.4143,0.0,0.0,0.0,0.0,0.0,0.0,0.0,0.0,0.0,0.0,0.0,0.0,0.0,0.0,0.0,0.0,0.0,0.0,-2.8034,-2.7607,-2.7532,-2.7996,-2.8072,-2.8335,-2.88,-3.1306,-3.3185,-3.4359,-3.5211,-3.6457,-3.805,-3.5982,-3.5604,-3.665,-3.6796,-3.724,-3.7896,-3.8925,-4.0474,-4.1977,-3.9398,-3.8754,-3.9095,-3.706,-3.516,-3.3679,-3.4264,-3.4474,-3.4503,-3.4503,-3.5357,-3.6211,-3.4998,0.0,0.0,0.0,0.0,-3.6821,-4.1302,-4.4013,-4.6337,-4.9568,-5.1334,-5.2381,-5.3039,-5.2591,-5.1483,-4.9524,-4.7354,-4.487,0.0,0.0,-3.9723,-4.1901,-4.2216,-4.3384,-4.677,-4.6636,-4.5681,0.0,0.0,0.0,0.0,0.0,0.0,-4.5409,0.0,-4.948,-5.0438,-5.3401,-5.6173,-5.8566,-5.9902,-6.0844,-6.1366,-6.0144,-5.9322,-5.8947,-5.822,-5.7881,-5.7865,-5.7171,-5.5716,-5.3805,-5.5175,-5.4092,-5.1606,-5.3721,-5.416,-5.3501,-5.3501,-5.3501,-5.3501,-5.3501,-5.3501,-5.3501,0.0,0.0,0.0,0.0,0.0,0.0,0.0,0.0,0.0,0.0,0.0,0.0,0.0,0.0,0.0,0.0,0.0,0.0,-2.7507,-2.7745,-2.7595,-2.6952,-2.767,-2.7984,-2.7708,-2.9125,-2.9847,-2.9757,-3.083,-3.137,-3.137,-3.1249,-3.1373,-3.1693,-3.3054,-3.4337,-3.5552,-3.7193,-3.8463,-3.9284,-3.7671,-3.7352,-3.7599,-3.4651,-3.4143,-3.4876,-3.4038,-3.4099,-3.4503,-3.4503,0.0,0.0,0.0,-3.5055,-3.4309,0.0,0.0,-4.1123,-4.324,-4.6337,-4.9613,-5.2486,-5.2695,-5.2381,-5.3039,-5.1543,-4.9314,-4.6815,-4.2776,-3.8975,0.0,0.0,0.0,-3.9454,-3.9738,0.0,-4.5903,-4.5098,0.0,-4.4975,0.0,-4.6067,-4.6711,-4.8368,0.0,0.0,-5.0326,-5.3462,-5.5816,-5.7416,-5.9003,-6.0556,-6.0613,-6.1094,-6.211,-6.0656,-5.9342,-5.8169,-5.7983,-5.7881,-5.7881,-5.7695,-5.7306,-5.6765,-5.6596,-5.5784,-5.4549,-5.4583,-5.416,-5.3501,-5.3501,-5.3501,-5.3501,-5.3501,-5.3501,-5.3501,0.0,0.0,0.0,0.0,0.0,0.0,0.0,0.0,0.0,0.0,0.0,0.0,0.0,0.0,0.0,0.0,0.0,0.0,0.0,-2.7344,-2.6992,-2.6147,-2.6452,-2.6515,-2.6214,-2.7471,-2.8241,-2.8444,-2.9435,-2.9925,-2.9881,-2.9727,-2.9687,-2.9762,-3.1275,-3.2776,-3.4256,-3.5991,-3.7393,0.0,0.0,-3.6163,-3.6701,-3.3978,-3.4008,-3.5444,-3.4981,-3.4861,-3.51,0.0,0.0,-3.5731,-3.7599,-3.7479,-3.7135,-3.9619,0.0,-4.4122,-4.6322,-4.9164,-5.1962,-5.3758,-5.3189,-5.1992,-5.1214,-4.8985,-4.6082,-4.2566,-3.902,-3.5789,-3.3215,-3.1824,0.0,0.0,0.0,0.0,-4.4306,-4.4261,-4.4257,0.0,-4.6337,0.0,-4.8596,-5.0577,-5.1184,0.0,-5.1905,-5.4057,-5.5979,-5.7721,-5.9289,-6.0719,-6.1163,-6.1398,-6.1383,-6.052,-5.9353,-5.7881,-5.7881,-5.7881,-5.7881,-5.7881,-5.7188,-5.597,0.0,-5.5344,-5.3771,-5.4008,-5.3873,-5.3501,-5.3501,-5.3501,-5.3501,-5.3501,-5.3501,-5.3501,0.0,0.0,0.0,0.0,0.0,0.0,0.0,0.0,0.0,0.0,0.0,0.0,0.0,0.0,0.0,0.0,0.0,0.0,0.0,0.0,-2.6084,-2.541,-2.5021,-2.4763,-2.4687,-2.607,-2.7313,-2.8351,-2.9054,-2.9673,-3.0262,-2.9365,-2.9039,-2.9231,-3.0338,-3.1753,-3.3421,-3.4789,-3.6259,-3.7404,-3.5162,-3.5026,-3.6028,0.0,-3.4517,-3.5833,-3.6402,-3.6193,-3.6028,0.0,-3.8302,-3.721,-3.9933,-4.0531,-4.0876,-4.4287,-4.5603,-4.6576,-4.9418,-5.1678,-5.3339,-5.4042,-5.3069,-5.1304,-4.885,-4.6022,-4.2686,-3.8317,-3.6103,-3.4098,-3.118,-3.0567,-3.1659,-3.519,0.0,-3.8736,-4.2497,-4.3753,-4.4781,-4.6037,-4.6845,-4.7893,-4.9434,-5.1344,-5.2613,-5.2802,-5.286,-5.3381,-5.4503,-5.6915,-5.8842,-6.0212,-6.145,-6.14,-5.9979,-5.9945,-5.9252,-5.7881,-5.7881,-5.7881,-5.7881,-5.7881,-5.6444,-5.4008,0.0,0.0,-5.1758,-5.2993,-5.3501,-5.3501,-5.3501,-5.3501,-5.3501,-5.3501,-5.3501,-5.3501,0.0,0.0,0.0,0.0,0.0,0.0,0.0,0.0,0.0,0.0,-2.5489,-2.5535,0.0,0.0,0.0,0.0,0.0,0.0,0.0,0.0,0.0,-2.4318,-2.4619,-2.4575,-2.4155,-2.4829,-2.5293,-2.5528,-2.5646,-2.5781,-2.5884,-2.6179,-2.6736,-2.7535,-2.8193,-2.9726,-3.1803,-3.2078,-3.2715,-3.3499,-3.3036,-3.3649,-3.4818,-3.4474,0.0,0.0,-3.721,-3.6851,-3.6716,-3.9349,-3.926,-3.8616,-4.1848,-4.3509,-4.4407,-4.5095,-4.7234,-4.9463,-5.0046,-5.1678,-5.3339,-5.4042,-5.2381,-5.0121,-4.8626,-4.4975,0.0,0.0,-3.4605,-3.2019,-3.1436,-3.0853,-3.1943,-3.6357,-3.727,-3.8422,-4.1309,-4.321,-4.4601,0.0,-4.6561,-4.8252,-5.0646,-5.0321,0.0,0.0,0.0,-5.5748,-5.8346,-6.0428,-6.1413,-6.1112,-6.0706,-6.008,-5.9218,-5.9201,-5.8761,-5.7881,-5.7881,-5.7881,-5.7881,-5.7881,-5.7289,-5.6207,-5.5869,0.0,-5.3974,-5.3636,-5.3501,-5.3501,-5.3501,-5.3501,-5.3501,-5.3501,-5.3501,-5.3501,0.0,0.0,0.0,0.0,0.0,0.0,0.0,-2.4194,-2.4971,-2.5523,-2.536,-2.5297,-2.5573,-2.536,-2.5197,0.0,0.0,0.0,0.0,0.0,0.0,0.0,0.0,0.0,-2.4833,-2.5525,-2.6033,0.0,0.0,-2.6582,-2.6595,-2.7133,-2.7482,-2.7713,-2.8514,-2.9785,-3.1327,-3.202,-3.2974,-3.4098,-3.4442,-3.5355,-3.6477,0.0,0.0,0.0,0.0,0.0,-3.6896,-3.9514,-3.9275,-3.8631,-4.3,-4.5289,-4.6277,-4.5933,-4.8162,-5.0704,-5.0704,-5.2456,-5.4311,-5.464,-5.2456,-4.9314,-4.5978,0.0,0.0,0.0,-3.2317,-3.0868,-3.0582,-3.0253,0.0,-3.5235,-3.6178,-3.7584,-4.092,-4.2491,0.0,-4.6097,-4.692,-4.8072,0.0,0.0,0.0,0.0,0.0,-5.6443,-5.7966,-5.9698,-6.0842,-6.1298,-6.0148,-5.937,-5.9015,-5.9015,-5.8626,-5.7881,-5.7881,-5.7881,-5.7881,-5.7881,-5.7492,-5.6765,-5.6038,0.0,-5.2875,-5.3315,-5.2807,-5.1843,-5.3044,-5.3501,-5.3501,-5.3501,-5.3501,-5.3501,0.0,0.0,0.0,0.0,0.0,0.0,0.0,-2.4166,-2.4469,-2.5322,-2.5071,-2.4938,-2.5385,-2.5059,-2.4738,0.0,0.0,0.0,0.0,0.0,0.0,0.0,0.0,0.0,0.0,0.0,0.0,0.0,0.0,0.0,0.0,0.0,0.0,0.0,0.0,-3.0793,-3.1791,-3.3082,-3.4277,0.0,0.0,0.0,0.0,0.0,0.0,0.0,0.0,0.0,0.0,0.0,-3.8916,-3.8377,-4.2686,-4.505,-4.6202,-4.5963,-4.8222,-5.0885,-5.1319,-5.3264,-5.5119,-5.4835,-5.2276,-4.8551,-4.3728,-4.0239,0.0,-3.2093,-3.0806,-3.0447,-3.0253,-2.9983,-3.0851,0.0,-3.4666,-3.6133,-4.0367,-4.1452,-4.3015,0.0,-4.713,0.0,-4.9329,0.0,0.0,0.0,0.0,0.0,-5.7404,-5.8441,-5.9573,-6.0774,-5.9488,-5.8778,-5.8778,-5.8778,-5.8473,-5.7881,-5.7881,-5.7881,-5.7881,-5.7729,-5.7256,-5.6528,-5.5784,0.0,0.0,-5.2875,-5.2249,-5.0541,-5.2672,-5.3501,-5.3501,-5.3501,-5.3501,-5.3501,0.0,0.0,0.0,0.0,0.0,0.0,0.0,-2.3631,-2.475,-2.485,-2.4813,-2.4813,-2.4863,-2.4813,-2.4587,0.0,0.0,0.0,0.0,0.0,0.0,0.0,0.0,0.0,0.0,0.0,0.0,0.0,0.0,0.0,0.0,0.0,0.0,0.0,0.0,0.0,0.0,-3.4703,0.0,0.0,0.0,0.0,0.0,0.0,0.0,0.0,0.0,0.0,0.0,0.0,0.0,-3.8497,-3.9604,-4.128,-4.3084,-4.4167,0.0,0.0,-5.1618,-5.3623,-5.4895,-5.3668,-5.09,-4.7563,-4.4092,0.0,-3.6013,-3.3694,-3.1764,-3.0866,-3.2033,-3.124,-3.1509,-3.4861,-3.3409,-3.3663,-3.8871,-3.9649,-4.113,-4.502,0.0,0.0,0.0,0.0,0.0,0.0,0.0,0.0,-5.967,-5.9291,-5.9082,-5.9218,-5.8423,-5.7983,-5.7983,-5.7983,-5.7949,-5.7881,-5.7881,-5.7881,-5.7865,-5.7205,-5.6511,-5.5784,-5.5023,0.0,0.0,-5.2875,-5.2553,-5.1268,-5.2875,-5.3501,-5.3501,-5.3501,-5.3501,-5.3501,0.0,0.0,0.0,0.0,0.0,0.0,-2.2696,-2.3269,-2.3898,-2.428,-2.433,-2.433,-2.433,-2.4619,-2.4562,-2.4054,0.0,0.0,0.0,0.0,0.0,0.0,0.0,0.0,0.0,0.0,-2.8078,-2.8389,-2.9548,0.0,0.0,0.0,0.0,0.0,0.0,0.0,0.0,0.0,0.0,0.0,0.0,0.0,0.0,0.0,0.0,0.0,0.0,0.0,0.0,0.0,0.0,0.0,-3.6237,-3.6447,0.0,0.0,-4.4272,-4.7833,-4.9419,-5.2172,-5.4371,-5.3414,-5.0705,-4.7115,-4.2611,0.0,-3.5699,-3.2901,-3.166,-3.1256,-3.1795,-3.115,-3.1076,-3.2796,-3.1854,0.0,-3.7015,-3.7973,-4.0127,-4.5304,0.0,0.0,0.0,0.0,0.0,0.0,0.0,0.0,-5.8619,-5.849,-5.8541,-5.8998,-5.8271,-5.7881,-5.7881,-5.7881,-5.7881,-5.7881,-5.7442,-5.7239,-5.7205,-5.6478,-5.575,-5.5023,-5.4718,0.0,0.0,-5.2131,-5.1539,-4.8883,-5.2198,-5.3501,-5.3501,-5.3501,-5.3501,-5.3501,0.0,0.0,0.0,0.0,0.0,-2.3108,-2.3108,-2.3246,-2.3509,-2.3941,-2.4004,-2.4004,-2.4004,-2.4192,-2.4274,-2.4243,-2.4745,0.0,0.0,0.0,0.0,0.0,0.0,0.0,0.0,0.0,-2.8497,-2.8699,-3.0148,-3.0836,0.0,0.0,0.0,0.0,0.0,0.0,0.0,0.0,0.0,0.0,0.0,0.0,0.0,0.0,0.0,0.0,0.0,0.0,0.0,0.0,0.0,0.0,0.0,-3.326,-3.332,0.0,-4.1683,-4.5529,-4.7234,-5.0451,-5.3159,-5.2486,-4.9538,-4.5693,0.0,0.0,-3.4831,-3.2064,-3.1346,-3.1256,-3.1466,-3.0629,-3.0298,-3.1331,-3.0806,-3.1554,-3.5355,-3.6447,-3.8766,0.0,0.0,0.0,0.0,0.0,0.0,0.0,0.0,0.0,0.0,-5.7881,-5.8135,-5.866,-5.8169,-5.7881,-5.7881,-5.7679,-5.756,-5.756,-5.6833,-5.6258,-5.5818,-5.5513,-5.4837,-5.3923,0.0,0.0,0.0,-5.2012,-5.1369,-4.846,-5.2097,-5.3501,-5.3501,-5.3501,-5.3501,-5.3501,0.0,0.0,0.0,0.0,0.0,0.0,-2.3108,-2.3615,-2.3991,-2.4004,-2.4004,-2.4004,-2.4004,-2.3459,-2.3572,-2.4675,-2.5285,0.0,0.0,0.0,0.0,0.0,0.0,0.0,0.0,0.0,-2.6595,-2.7335,-2.867,-2.9303,-2.9347,-3.0821,-3.1511,0.0,0.0,0.0,0.0,0.0,0.0,0.0,0.0,0.0,0.0,0.0,0.0,0.0,0.0,0.0,0.0,0.0,0.0,0.0,0.0,-3.2497,-3.3036,-3.5729,-3.9356,-4.3024,-4.5618,-4.8701,-5.1094,-5.039,-4.6758,-4.2826,0.0,0.0,-3.314,-3.178,-3.0957,-3.0717,-3.1376,-2.9911,-2.9265,-3.1197,-3.0447,0.0,-3.4069,-3.51,0.0,0.0,0.0,0.0,0.0,0.0,0.0,0.0,0.0,0.0,0.0,-5.7881,-5.7881,-5.7898,-5.7881,-5.7881,-5.7881,-5.7171,-5.6816,-5.6799,-5.6072,-5.4955,-5.3568,-5.4279,-5.3771,0.0,0.0,0.0,0.0,-5.2858,-5.2587,-5.1319,-5.2892,-5.3501,-5.3501,-5.3501,-5.3501,-5.3501,0.0,0.0,0.0,0.0,0.0,0.0,0.0,-2.3258,-2.3384,-2.3384,-2.3384,-2.3384,-2.3384,-2.3572,-2.3866,-2.423,-2.4406,0.0,0.0,0.0,0.0,0.0,0.0,0.0,0.0,-2.824,-2.8133,-2.778,-2.9681,-3.04,-3.0011,-3.1471,-3.1929,-3.1525,-3.2183,0.0,0.0,0.0,0.0,0.0,0.0,0.0,0.0,0.0,0.0,0.0,0.0,0.0,0.0,0.0,0.0,0.0,0.0,0.0,0.0,-3.4068,-3.6297,0.0,-4.1564,-4.4018,-4.5636,-4.502,-4.3075,-4.0696,-3.8272,0.0,-3.2991,-3.1195,-3.0657,-3.0447,-3.0238,-2.9684,-2.9774,-3.1256,-3.1569,0.0,0.0,0.0,0.0,0.0,0.0,0.0,0.0,0.0,0.0,0.0,0.0,0.0,0.0,-5.7408,-5.7154,-5.7154,-5.7154,-5.6917,-5.641,-5.6173,-5.6055,-5.6055,-5.531,-5.416,-5.2706,-5.3501,0.0,0.0,0.0,0.0,0.0,-5.2655,-5.23,-5.0642,-5.2706,-5.3501,-5.3501,-5.3501,-5.3501,-5.3501,0.0,0.0,0.0,0.0,0.0,0.0,0.0,-2.3108,-2.3108,-2.3108,-2.3108,-2.3108,-2.3108,-2.3421,-2.3876,-2.4356,-2.4337,0.0,0.0,0.0,0.0,0.0,0.0,0.0,-2.8777,-2.8555,-2.8584,-2.8881,-2.9874,-3.0337,-3.0343,-3.1531,-3.1899,-3.154,-3.2482,-3.311,0.0,0.0,0.0,0.0,0.0,0.0,-3.7704,0.0,0.0,0.0,0.0,0.0,0.0,0.0,0.0,0.0,0.0,0.0,0.0,0.0,-3.4023,-3.5295,-3.8422,-4.0531,-4.1758,-4.1354,-3.9888,0.0,0.0,0.0,0.0,-3.0806,-3.0717,-3.0627,-2.9771,-2.9606,-2.9774,-3.03,-3.1361,0.0,0.0,0.0,0.0,0.0,0.0,0.0,0.0,0.0,0.0,0.0,0.0,0.0,0.0,0.0,-5.6545,-5.5987,-5.6241,-5.6173,-5.5681,-5.5429,-5.5294,-5.5294,-5.4532,-5.3382,-5.1928,-5.301,0.0,0.0,0.0,0.0,0.0,-5.2909,-5.2655,-5.1522,-5.2942,-5.3501,-5.3501,-5.3501,-5.3501,-5.3501,0.0,0.0,0.0,0.0,0.0,0.0,0.0,-2.3108,-2.3108,-2.3108,-2.3108,-2.3138,-2.3198,-2.3198,-2.3718,-2.5014,0.0,0.0,0.0,0.0,0.0,0.0,0.0,0.0,-2.9585,-2.8053,-2.8232,-3.0266,-2.9501,-2.9504,-3.0329,-3.1117,-3.1511,-3.157,-3.2856,-3.3484,-3.3649,-3.4906,-3.5429,-3.5549,-3.6776,-3.6926,0.0,0.0,0.0,0.0,0.0,0.0,0.0,0.0,0.0,0.0,0.0,0.0,0.0,0.0,0.0,0.0,0.0,-3.7973,-3.8895,-3.8895,-3.709,-3.5295,-3.5295,0.0,0.0,0.0,0.0,-3.1062,-2.9864,-2.9711,-2.952,0.0,0.0,0.0,0.0,0.0,0.0,0.0,0.0,0.0,0.0,0.0,0.0,0.0,0.0,0.0,0.0,0.0,-5.6021,-5.4634,-5.5226,-5.5529,-5.5529,-5.4871,-5.4465,-5.4346,-5.3771,-5.2655,-5.1083,-5.2756,0.0,0.0,0.0,0.0,0.0,-5.3501,-5.3501,-5.3501,-5.3501,-5.3501,-5.3501,-5.3501,-5.3501,-5.3501,0.0,0.0,0.0,0.0,0.0,0.0,0.0,0.0,0.0,0.0,-2.3108,-2.3335,-2.3943,-2.4031,-2.4361,0.0,0.0,0.0,0.0,0.0,0.0,0.0,0.0,0.0,-2.9377,-2.9474,-2.9681,-3.0079,-3.0023,-3.0103,-3.0329,-3.1117,-3.1511,-3.154,-3.2377,-3.3305,-3.4294,-3.4608,-3.4758,-3.4818,-3.5624,-3.5863,0.0,0.0,0.0,0.0,-3.5923,-3.5295,0.0,0.0,0.0,0.0,0.0,0.0,0.0,0.0,-3.2138,-3.1809,-3.3245,0.0,-3.4128,-3.4128,-3.3679,-3.3215,0.0,-3.1928,-3.0851,-3.1182,-3.0972,0.0,0.0,0.0,0.0,0.0,0.0,0.0,0.0,0.0,0.0,0.0,0.0,0.0,0.0,0.0,0.0,0.0,0.0,0.0,0.0,0.0,-5.4955,-5.46,-5.4228,-5.4025,-5.4025,-5.3856,-5.3179,-5.2012,-5.3027,-5.2097,-4.961,-5.2283,0.0,0.0,0.0,0.0,-5.3501,-5.3501,-5.3501,-5.3501,-5.3501,-5.3501,-5.3501,-5.3501,-5.3501,-5.3501,0.0,0.0,0.0,0.0,0.0,0.0,0.0,0.0,0.0,0.0,0.0,-2.3943,-2.4709,-2.4794,0.0,0.0,0.0,0.0,0.0,0.0,0.0,0.0,0.0,-2.9444,-2.9444,-2.9696,-3.0427,-3.1605,-3.1037,-3.1102,-3.178,-3.1891,-3.2118,-3.245,-3.3111,-3.3814,-3.4488,-3.4189,-3.4054,-3.4053,-3.4442,0.0,0.0,0.0,0.0,0.0,-3.5624,-3.5265,0.0,-3.3829,-3.3724,-3.3844,0.0,0.0,0.0,0.0,-3.2019,-3.1645,-3.2303,-3.2273,-3.2183,-3.2811,-3.2512,-3.2183,-3.2826,-3.1689,-3.0702,-3.1361,-3.0957,0.0,0.0,0.0,0.0,0.0,0.0,0.0,0.0,0.0,0.0,0.0,0.0,0.0,0.0,0.0,0.0,0.0,0.0,0.0,0.0,0.0,-5.4431,-5.411,-5.3704,-5.3501,-5.3501,-5.3501,-5.2387,-5.0207,-5.2421,-5.1915,-4.91,-5.1746,-5.2503,0.0,0.0,0.0,-5.2909,-5.2215,-5.2553,-5.3501,-5.3501,-5.3501,-5.3501,-5.3501,-5.3501,-5.3501,0.0,0.0,0.0,0.0,0.0,0.0,0.0,0.0,0.0,0.0,0.0,0.0,0.0,0.0,0.0,0.0,0.0,0.0,0.0,0.0,0.0,0.0,-2.9202,-2.9606,-2.9606,-2.9621,-3.0969,-3.3668,-3.2118,-3.217,-3.3656,-3.2777,-3.2714,-3.337,-3.4061,-3.4354,-3.4309,-3.3619,-3.335,-3.335,-3.335,0.0,0.0,0.0,0.0,0.0,0.0,0.0,0.0,-3.3679,-3.326,-3.323,-3.2572,0.0,0.0,0.0,0.0,0.0,-3.2213,-3.1929,-3.1795,-3.3036,-3.2287,-3.1555,-3.2901,-3.1644,-3.0492,0.0,0.0,0.0,0.0,-3.121,0.0,0.0,0.0,0.0,0.0,0.0,0.0,0.0,0.0,0.0,0.0,0.0,0.0,0.0,0.0,0.0,0.0,0.0,0.0,-5.3518,-5.3501,-5.345,-5.3315,-5.3315,-5.1917,-4.9177,-5.1883,-5.1698,-4.9077,-5.1176,-5.2131,0.0,0.0,0.0,-5.2046,-5.0896,-5.1572,-5.3331,-5.345,-5.3501,-5.3501,-5.3501,-5.3501,-5.3501,0.0,0.0,0.0,0.0,0.0,0.0,0.0,0.0,0.0,0.0,0.0,0.0,0.0,0.0,0.0,0.0,0.0,0.0,0.0,0.0,0.0,-2.775,-2.8948,-2.9606,-2.9606,-3.062,-3.2266,-3.4531,-3.2527,-3.258,-3.4489,-3.261,-3.2062,-3.2675,-3.3366,-3.3649,-3.3604,-3.2946,-3.2662,-3.2662,-3.2662,0.0,0.0,0.0,0.0,0.0,0.0,0.0,0.0,-3.2437,-3.2168,-3.2557,-3.1854,0.0,0.0,0.0,0.0,0.0,-3.178,-3.1585,-3.169,-3.2452,-3.1255,-3.0223,-3.1511,-3.0285,-2.9549,0.0,0.0,0.0,0.0,-3.4427,-3.5055,0.0,0.0,0.0,0.0,0.0,0.0,0.0,0.0,0.0,0.0,0.0,0.0,0.0,0.0,0.0,0.0,0.0,0.0,-5.3501,-5.3501,-5.3179,-5.2486,-5.2486,-5.1641,-4.9925,-5.1017,-5.0663,-4.9049,-5.0629,-5.1386,0.0,0.0,-5.1065,-5.142,-5.1809,-5.2164,-5.2553,-5.323,-5.3501,-5.3501,-5.3501,-5.3501,-5.3501,0.0,0.0,0.0,0.0,0.0,0.0,0.0,0.0,0.0,0.0,0.0,0.0,0.0,0.0,0.0,0.0,0.0,0.0,0.0,0.0,-2.7764,-2.8113,-2.9097,-2.9606,-2.9606,-3.0864,-3.2379,-3.4043,-3.3472,-3.3901,-3.5175,-3.3841,-3.2936,-3.2465,-3.3171,-3.3305,-3.2946,-3.2647,-3.2273,-3.1959,0.0,0.0,0.0,0.0,0.0,0.0,0.0,0.0,0.0,0.0,-3.1705,-3.1899,-3.16,0.0,0.0,0.0,0.0,0.0,-3.1137,-3.0943,-3.1197,-3.2258,-3.1569,-3.1165,-3.3185,-3.1584,-3.0372,-3.3021,0.0,0.0,0.0,0.0,0.0,0.0,0.0,0.0,0.0,0.0,0.0,0.0,0.0,0.0,0.0,0.0,0.0,0.0,0.0,0.0,0.0,0.0,0.0,0.0,-5.2469,-5.2097,-5.1725,-5.1302,-5.0146,-4.8301,-5.0247,-5.0012,-4.7801,-4.974,-5.0608,-5.0541,0.0,-4.9509,-5.0574,-5.0118,-5.0642,-5.1792,-5.2553,-5.2621,-5.2317,-5.2706,-5.3129,-5.3501,0.0,0.0,0.0,0.0,0.0,0.0,0.0,0.0,0.0,0.0,0.0,0.0,0.0,0.0,0.0,0.0,0.0,0.0,0.0,-2.769,-2.7899,-2.8562,-2.9086,-2.9495,-2.9791,-3.0983,-3.2226,-3.3521,-3.3925,-3.4307,-3.4662,-3.4132,-3.3211,-3.2002,-3.2704,-3.2766,-3.2258,-3.2258,-3.1974,-3.1511,0.0,0.0,0.0,0.0,0.0,0.0,0.0,0.0,0.0,0.0,0.0,0.0,0.0,0.0,0.0,-3.1735,-3.1735,-3.1585,-3.0926,-3.0746,-3.1031,-3.2183,-3.1765,-3.1824,-3.4831,-3.2916,-3.139,-3.4517,-3.2527,0.0,0.0,0.0,0.0,0.0,0.0,0.0,0.0,0.0,0.0,0.0,0.0,0.0,0.0,0.0,0.0,0.0,0.0,0.0,0.0,0.0,0.0,0.0,-5.1505,-5.1133,-5.0947,-5.0371,-4.9224,-4.7529,-4.9661,-4.9461,-4.7296,-4.907,-4.983,-4.9746,-4.8037,-4.8274,-4.9763,-4.8815,-4.9424,-5.1031,-5.1758,-5.1708,-5.1252,-5.1843,-5.2553,-5.323,0.0,0.0,0.0,0.0,0.0,0.0,0.0,0.0,0.0,0.0,0.0,0.0,0.0,0.0,0.0,0.0,0.0,0.0,0.0,-2.7959,-2.7899,-2.8562,-2.8652,-2.921,-3.0413,-3.1139,-3.2198,-3.3585,-3.3018,-3.2438,-3.1903,-3.1851,-3.1394,-3.0653,-3.1345,-3.1615,-3.157,-3.157,-3.154,-3.1555,-3.2168,0.0,0.0,0.0,0.0,0.0,0.0,0.0,0.0,0.0,0.0,0.0,0.0,0.0,-3.2437,-3.2437,-3.2437,-3.2273,-3.1615,-3.1436,-3.16,-3.2303,-3.1106,-3.0731,-3.4622,-3.2916,-3.1779,-3.6267,-3.6028,-3.5444,0.0,0.0,0.0,0.0,0.0,0.0,0.0,0.0,0.0,0.0,0.0,0.0,0.0,0.0,0.0,0.0,0.0,0.0,0.0,0.0,0.0,0.0,-5.1219,-5.0879,-5.0185,-5.0118,-5.0033,-4.9852,-4.9376,-4.9038,-4.8855,-4.8987,-4.9086,-4.9069,-4.8917,-4.8934,-4.912,-4.9695,-5.0033,-5.0253,-5.0997,-5.1236,-5.1217,-5.1268,-5.1758,-5.2384,0.0,0.0,0.0,0.0,0.0,0.0,0.0,0.0,0.0,0.0,0.0,0.0,0.0,0.0,0.0,0.0,0.0,0.0,0.0,-2.775,-2.7899,-2.8562,-2.8996,-2.9614,-3.049,-3.1194,-3.2217,-3.3582,-3.3339,-3.2667,-3.1606,-3.1606,-3.1435,-3.1107,-3.0943,-3.1107,-3.1511,-3.1511,-3.1511,-3.1525,-3.178,-3.1869,0.0,0.0,0.0,0.0,0.0,0.0,0.0,0.0,-3.2691,-3.2303,-3.3395,-3.317,-3.2572,-3.3006,-3.2841,-3.2243,-3.1152,-3.1182,-3.166,-3.2318,-3.133,-3.13,-3.5684,-3.4756,-3.4053,-3.7868,-3.6985,-3.5654,0.0,0.0,0.0,0.0,0.0,0.0,0.0,0.0,0.0,0.0,0.0,0.0,0.0,0.0,0.0,0.0,0.0,0.0,0.0,0.0,0.0,-5.0524,-5.0067,-4.9712,-4.9424,-4.9424,-4.9424,-4.9407,-4.9137,-4.9001,-4.9001,-4.9001,-4.9001,-4.9001,-4.9001,-4.9001,-4.9018,-4.9306,-4.9424,-4.9441,-4.9729,-5.0405,-5.115,-5.0693,-5.1268,-5.23,0.0,0.0,0.0,0.0,0.0,0.0,0.0,0.0,0.0,0.0,0.0,0.0,0.0,0.0,0.0,0.0,0.0,0.0,-2.7899,-2.772,-2.7899,-2.8562,-2.9026,-2.9686,-3.05,-3.0812,-3.1497,-3.2621,-3.221,-3.1654,-3.0952,-3.0952,-3.0837,-3.0584,-3.0761,-3.0943,-3.1197,-3.1406,-3.1511,-3.1525,-3.1735,-3.169,0.0,0.0,0.0,0.0,0.0,0.0,0.0,0.0,-3.3365,-3.2976,-3.3888,-3.3544,-3.2871,-3.311,-3.2871,-3.2258,-3.1135,-3.1152,-3.166,-3.2318,-3.163,-3.2226,-3.7588,-3.6743,-3.6007,-4.0247,-3.9764,-3.8402,-3.7886,0.0,0.0,0.0,0.0,0.0,0.0,0.0,0.0,0.0,0.0,0.0,0.0,0.0,0.0,0.0,0.0,0.0,0.0,0.0,0.0,0.0,-4.9255,-4.89,-4.8663,-4.8663,-4.8545,-4.8308,-4.8308,-4.8545,-4.9001,-4.9001,-4.9001,-4.9001,-4.9001,-4.9001,-4.9001,-4.9001,-4.9001,-4.9001,-4.9001,-4.9627,-5.0456,-4.9932,-5.0541,-5.1606,0.0,0.0,0.0,0.0,0.0,0.0,0.0,0.0,0.0,0.0,0.0,0.0,0.0,0.0,0.0,0.0,0.0,0.0,-2.8547,-2.7974,-2.7899,-2.8562,-2.8607,-2.9228,-3.0545,-2.9947,-2.9883,-3.049,-2.9232,-2.8951,-2.9592,-2.9606,-2.9235,-2.8697,-3.0644,-3.1122,-3.0552,-3.1227,-3.1511,-3.157,-3.2213,-3.2079,-3.172,0.0,0.0,0.0,0.0,0.0,0.0,0.0,-3.4038,-3.3499,-3.3514,-3.3499,-3.3365,-3.2721,-3.2497,-3.2377,-3.169,-3.1511,-3.166,-3.2318,-3.1989,-3.3336,-4.0256,-3.8547,-3.7288,-4.3577,-4.5029,-4.4702,-4.3094,-4.3029,0.0,0.0,0.0,0.0,0.0,0.0,0.0,0.0,0.0,0.0,0.0,0.0,0.0,0.0,0.0,0.0,0.0,0.0,0.0,0.0,-4.8984,-4.8646,-4.7889,-4.7872,-4.753,-4.6786,-4.6786,-4.7564,-4.8984,-4.8984,-4.8984,-4.8984,-4.8984,-4.8984,-4.8984,-4.8984,-4.9001,-4.9001,-4.9001,-4.9001,-4.9001,-4.9001,-4.9458,-5.0084,0.0,0.0,0.0,0.0,0.0,0.0,0.0,0.0,0.0,0.0,0.0,0.0,0.0,0.0,0.0,0.0,0.0,0.0,-2.7884,-2.7705,-2.769,-2.7899,-2.8338,-2.8786,-2.9187,-2.9404,-2.9404,-2.9176,-2.9252,-2.9146,-2.8906,-2.9397,-2.9714,-2.9983,-3.1032,-3.1391,-3.1241,-3.1914,-3.1929,-3.1525,-3.172,-3.1675,-3.1615,0.0,0.0,0.0,0.0,0.0,0.0,0.0,0.0,0.0,-3.4756,-3.4262,-3.3544,-3.3814,-3.3245,-3.2452,-3.2243,-3.1854,0.0,-3.2318,0.0,0.0,-3.6873,-3.7101,-3.8047,-4.2274,-4.3364,-4.3278,-4.2326,0.0,0.0,0.0,0.0,0.0,0.0,0.0,0.0,0.0,0.0,0.0,0.0,0.0,0.0,0.0,0.0,0.0,0.0,0.0,0.0,0.0,-4.7445,-4.7344,-4.7124,-4.7124,-4.7022,-4.6786,-4.6786,-4.7022,-4.7462,-4.8003,-4.824,-4.824,-4.824,-4.824,-4.824,-4.824,-4.8545,-4.9001,-4.9001,-4.9001,-4.9001,-4.9001,-4.9458,-5.0084,0.0,0.0,0.0,0.0,0.0,0.0,0.0,0.0,0.0,0.0,-2.76,-2.76,0.0,0.0,0.0,0.0,0.0,0.0,0.0,-2.7835,-2.7981,-2.7989,-2.861,-2.8958,-2.8981,-2.9587,-2.9587,-2.8996,-2.9094,-2.8973,-2.8607,-2.9011,-2.9385,-2.9774,-3.0462,-3.0896,-3.1122,-3.1511,-3.1615,-3.1511,-3.1511,-3.1511,-3.154,0.0,0.0,0.0,0.0,0.0,0.0,0.0,0.0,0.0,-3.4741,-3.4517,-3.4158,-3.3499,-3.311,-3.2841,-3.2557,-3.2183,0.0,-3.4167,-3.4682,-3.5185,-3.6816,0.0,0.0,0.0,-4.5599,-4.5936,-4.5001,0.0,0.0,0.0,0.0,0.0,0.0,0.0,0.0,0.0,0.0,0.0,0.0,0.0,0.0,0.0,0.0,0.0,0.0,0.0,0.0,0.0,-4.6786,-4.665,-4.6363,-4.6058,-4.5935,-4.5906,-4.5602,-4.5618,-4.5969,-4.6989,-4.7462,-4.7462,-4.7462,-4.7462,-4.7462,-4.7462,-4.7902,-4.8578,-4.8578,-4.8748,-4.9001,-4.9001,-4.9272,-4.9661,0.0,0.0,0.0,0.0,0.0,0.0,0.0,0.0,0.0,0.0,-2.76,-2.76,0.0,0.0,0.0,0.0,0.0,0.0,0.0,-2.822,-2.8575,-2.8767,-2.9195,-2.9409,-2.9412,-3.0053,-3.0098,-2.9517,-2.8966,-2.865,-2.8607,-2.8727,-2.8742,-2.8727,-2.9505,-3.0088,-3.0507,-3.0627,-3.0941,-3.1331,-3.1451,-3.1436,-3.1331,-3.1391,0.0,0.0,0.0,0.0,0.0,0.0,0.0,0.0,-3.386,-3.4262,-3.4771,-3.2318,-3.2482,-3.332,-3.2826,-3.2571,-3.3231,-3.6662,-3.6121,0.0,-3.9825,-4.3274,-4.6183,-4.8223,0.0,-5.0393,0.0,0.0,0.0,0.0,0.0,0.0,0.0,0.0,0.0,0.0,0.0,0.0,0.0,0.0,0.0,0.0,0.0,0.0,0.0,0.0,0.0,0.0,-4.638,-4.6058,-4.5399,-4.475,-4.4395,0.0,-4.3656,-4.3724,-4.4547,-4.6007,-4.6701,-4.6701,-4.6701,-4.6701,-4.6701,-4.6701,-4.7141,-4.7787,-4.7787,-4.8223,-4.8815,-4.8883,-4.8866,-4.8815,0.0,0.0,0.0,0.0,0.0,0.0,0.0,0.0,0.0,0.0,0.0,0.0,0.0,0.0,0.0,0.0,0.0,0.0,0.0,-2.8757,-2.9005,-3.0109,-2.9301,-2.8553,-2.8034,-2.9139,-2.9413,-2.8816,-2.9654,-2.9564,-2.8622,-2.9624,-2.9834,-2.9472,-3.1135,-3.1375,-3.0567,-3.1629,-3.127,-3.0088,-3.1092,-3.0883,-3.0058,-3.0537,-3.0806,0.0,0.0,0.0,0.0,0.0,0.0,0.0,-3.3276,-3.3156,-3.3276,-3.2706,-3.2602,-3.2946,-3.3945,-3.2997,0.0,0.0,-3.5497,-3.8401,-4.6149,-4.7139,-4.6666,-4.746,-4.7065,0.0,0.0,0.0,0.0,0.0,0.0,0.0,0.0,0.0,0.0,0.0,0.0,0.0,0.0,0.0,0.0,0.0,0.0,0.0,0.0,0.0,0.0,-4.3267,-4.3267,-4.3183,-4.3031,-4.2861,-4.2777,0.0,-4.2608,-4.2929,-4.3724,-4.5246,-4.594,-4.594,-4.594,-4.594,-4.594,-4.594,-4.6363,-4.7039,-4.7039,-4.7124,-4.7327,-4.7936,-4.7784,-4.7428,0.0,0.0,0.0,0.0,0.0,0.0,0.0,0.0,0.0,0.0,0.0,0.0,0.0,0.0,0.0,0.0,0.0,0.0,0.0,0.0,-2.9687,-3.0462,-2.9297,-2.8577,-2.8558,-2.9489,-2.9822,-2.952,-3.0821,-3.0642,-2.9071,-2.9086,-2.9307,-2.9621,-2.9983,-3.0283,-3.0507,-3.0597,-3.0402,-3.0058,-3.0447,-3.0193,-2.9636,-2.9939,-3.0058,-3.0103,-3.0462,0.0,0.0,0.0,0.0,0.0,0.0,0.0,-3.2092,-3.1792,-3.1868,-3.2211,-3.2965,0.0,0.0,-3.5087,0.0,-4.3092,-4.6622,-4.7,-4.6896,-4.7901,0.0,0.0,0.0,0.0,0.0,0.0,0.0,0.0,0.0,0.0,0.0,0.0,0.0,0.0,0.0,0.0,0.0,0.0,0.0,0.0,0.0,-4.2658,-4.2692,-4.2303,-4.2286,-4.2286,-4.2286,-4.1948,-4.1948,-4.2286,-4.1931,-4.2151,-4.2912,-4.4079,-4.4418,-4.4062,-4.4062,-4.4062,-4.4096,-4.4451,-4.5043,-4.5771,-4.6126,-4.6481,-4.6836,-4.7225,-4.7124,-4.6904,0.0,0.0,0.0,0.0,0.0,0.0,0.0,0.0,0.0,0.0,0.0,0.0,0.0,0.0,0.0,0.0,0.0,0.0,0.0,0.0,0.0,-3.0084,-2.9235,-2.8906,-2.9262,-2.9968,-3.0298,-3.0178,-3.1509,-3.145,-3.0086,-2.9082,-2.9157,-3.0071,-2.9067,-2.9277,-3.0283,-2.9325,-2.934,-2.9983,-2.9726,-2.9472,-2.9277,-2.9397,-2.9367,-2.9277,-2.9397,-2.9744,-3.0193,-3.0385,0.0,0.0,0.0,0.0,-3.0754,-3.0334,-3.0763,-3.1375,-3.1623,0.0,-3.4576,-3.7435,-4.2113,0.0,-4.5069,-4.5371,-4.6328,0.0,0.0,0.0,0.0,0.0,0.0,0.0,0.0,0.0,0.0,0.0,0.0,0.0,0.0,0.0,0.0,0.0,0.0,0.0,0.0,0.0,-4.1914,-4.2033,-4.2049,-4.1914,-4.1914,-4.1914,-4.1914,-4.1322,-4.1322,-4.1897,-4.1424,-4.1457,-4.1931,-4.2692,-4.276,-4.2286,-4.2286,-4.2286,-4.2354,-4.3115,-4.3792,-4.4479,-4.5213,-4.5872,-4.643,-4.6549,-4.6532,-4.6447,0.0,0.0,0.0,0.0,0.0,0.0,0.0,0.0,0.0,0.0,-2.8067,-2.8189,0.0,0.0,0.0,0.0,0.0,0.0,0.0,0.0,0.0,-2.8856,-2.9219,-2.8963,-2.7884,-2.9082,-2.943,-2.8846,-3.0148,-3.124,-3.2123,-3.2527,-3.2497,-3.2138,-3.2527,-3.1584,-2.9729,-3.0103,-2.937,-2.8079,-2.9172,-2.8903,-2.7929,-2.8502,-2.8353,-2.7944,-2.8517,-2.8786,-2.8992,-2.9934,-3.0147,0.0,0.0,0.0,-2.8261,-2.8926,-2.9831,-3.093,-3.2198,0.0,-3.6217,0.0,-3.924,-3.9947,0.0,0.0,0.0,0.0,0.0,0.0,0.0,0.0,0.0,0.0,0.0,0.0,0.0,0.0,0.0,0.0,0.0,0.0,0.0,0.0,0.0,0.0,0.0,0.0,-4.0434,-4.1001,-4.1052,-4.0417,-4.04,-4.04,-4.04,-4.0299,-4.0299,-4.04,-4.0933,-4.0916,-4.0417,-4.1153,-4.1796,-4.2286,-4.2286,-4.2286,-4.2354,-4.3115,-4.3443,-4.3656,-4.4434,-4.4818,-4.4987,-4.5602,-4.5432,-4.5089,0.0,0.0,0.0,0.0,0.0,0.0,0.0,0.0,0.0,0.0,0.0,-2.8391,0.0,0.0,0.0,0.0,0.0,0.0,0.0,0.0,0.0,-2.8558,-2.8485,-2.8199,-2.76,-2.8558,-2.8891,-2.8607,-2.9535,-3.124,-3.3619,-3.3903,-3.3499,-3.2497,-3.2826,-3.1689,-2.9636,-2.9864,-2.9307,-2.8173,-2.8393,-2.7899,-2.7121,-2.7794,-2.763,-2.7136,-2.7809,-2.8049,-2.8109,-2.8576,-2.8625,-2.8483,-2.8483,0.0,0.0,0.0,-2.9077,-2.9994,-3.2551,-3.3681,-3.509,0.0,-3.8668,-3.852,-4.371,0.0,0.0,0.0,0.0,0.0,0.0,0.0,0.0,0.0,0.0,0.0,0.0,0.0,0.0,0.0,0.0,0.0,0.0,0.0,0.0,0.0,0.0,-4.0426,-4.013,-4.0417,-4.0451,-4.0113,-4.0096,-4.0096,-4.0096,-4.0096,-4.0096,-4.0096,-4.0434,-4.0417,-4.0113,-4.0451,-4.0773,-4.1077,-4.1077,-4.1077,-4.1128,-4.1863,-4.2185,-4.2252,-4.2997,-4.3328,-4.3386,-4.4147,-4.4215,-4.4079,0.0,0.0,0.0,0.0,0.0,0.0,0.0,0.0,0.0,0.0,0.0,0.0,0.0,0.0,0.0,0.0,0.0,0.0,0.0,0.0,0.0,-2.8286,-2.8001,-2.7779,-2.76,-2.8248,-2.8517,-2.8338,-2.9325,-3.115,-3.3739,-3.4427,-3.4128,-3.3021,-3.3021,-3.2003,-3.0298,-2.9968,-2.9445,-2.8786,-2.8124,-2.736,-2.6632,-2.7165,-2.7046,-2.6701,-2.736,-2.76,-2.76,-2.76,-2.76,-2.76,-2.76,-2.76,0.0,0.0,0.0,0.0,0.0,0.0,-3.3529,-3.7731,-3.7167,-3.6605,0.0,0.0,0.0,0.0,0.0,0.0,0.0,0.0,0.0,0.0,0.0,0.0,0.0,0.0,0.0,0.0,0.0,0.0,0.0,0.0,0.0,0.0,0.0,-4.0096,-4.0096,-4.0096,-4.0096,-4.0096,-4.0096,-4.0096,-4.0096,-4.0096,-4.0096,-4.0096,-4.0096,-4.0096,-4.0096,-4.0096,-4.0096,-4.0096,-4.0096,-4.0096,-4.0163,-4.0899,-4.1204,-4.1271,-4.1999,-4.2286,-4.2354,-4.2929,-4.3223,-4.3504,0.0,0.0,0.0,0.0,0.0,0.0,0.0,0.0,0.0,0.0,0.0,0.0,-2.771,-2.814,-2.8238,-2.7685,-2.8693,0.0,0.0,0.0,0.0,-2.769,-2.8229,0.0,-2.76,-2.8248,-2.8278,-2.7645,-2.952,-3.0881,-3.1705,-3.4277,-3.507,-3.4414,-3.4414,-3.3619,-3.2287,-3.1001,-3.0103,-2.9502,-2.8816,-2.7769,-2.6587,-2.6632,-2.6641,-2.6701,-2.736,-2.76,-2.76,-2.76,-2.76,-2.76,-2.76,-2.76,0.0,0.0,0.0,0.0,0.0,-3.1296,0.0,-3.4693,-3.3141,0.0,0.0,0.0,0.0,0.0,0.0,0.0,0.0,0.0,0.0,0.0,0.0,0.0,0.0,0.0,0.0,0.0,0.0,0.0,0.0,0.0,0.0,0.0,0.0,-4.0096,-4.0096,-4.0096,-4.0096,-4.0096,-4.0096,-4.0096,-4.0096,-4.0096,-4.0096,-4.0096,-4.0096,-4.0096,-4.0096,-4.0096,-4.0096,-4.0096,-4.0096,-4.0096,-4.0163,-4.0899,-4.1204,-4.1271,-4.1999,-4.2286,-4.2286,-4.2337,-4.2811,-4.3392,0.0,0.0,0.0,0.0,0.0,0.0,0.0,0.0,0.0,0.0,0.0,0.0,0.0,-2.8018,-2.7835,-2.7625,-2.7993,0.0,0.0,0.0,0.0,-2.7615,-2.7839,-2.8042,-2.8165,-2.8464,-2.889,-2.9453,-2.9336,-3.0274,-3.2203,-3.2266,-3.2632,-3.3335,-3.5863,-3.4846,-3.1315,-3.2527,-3.1239,-2.849,-3.0426,-2.9372,-2.6795,-2.8562,-2.8975,-2.8501,-2.7846,0.0,0.0,0.0,0.0,0.0,0.0,0.0,0.0,0.0,0.0,0.0,0.0,0.0,0.0,-3.3486,-3.1457,-2.9745,0.0,0.0,0.0,0.0,0.0,0.0,0.0,0.0,0.0,0.0,0.0,0.0,0.0,0.0,0.0,0.0,0.0,0.0,0.0,0.0,0.0,0.0,0.0,0.0,-4.0054,-3.9243,-3.8941,-3.9377,-3.9402,-3.9157,-3.8684,-3.9157,-3.9157,-3.87,-3.9656,-3.9859,-3.9419,-3.9893,-4.0096,-4.0096,-4.0096,-4.0096,-4.013,-4.04,-4.0476,-4.051,-4.079,-4.0891,-4.101,-4.1931,-4.2472,-4.2844,0.0,0.0,0.0,0.0,0.0,0.0,0.0,0.0,0.0,-2.8787,0.0,0.0,0.0,0.0,-2.76,-2.76,-2.76,-2.76,-2.76,-2.76,-2.76,-2.76,-2.7785,-2.8115,-2.8501,-2.8546,-2.9212,-3.0545,-2.9246,-2.9739,-3.1916,-3.1185,-3.121,-3.1988,-3.528,-3.4801,-3.1643,-3.3713,-3.2657,-2.9748,-3.162,-3.0737,-2.8499,-3.0126,-3.031,-2.973,0.0,0.0,0.0,0.0,0.0,0.0,0.0,0.0,-2.76,-2.76,-2.7929,0.0,-2.9419,0.0,0.0,0.0,0.0,0.0,0.0,0.0,0.0,0.0,0.0,0.0,0.0,0.0,0.0,0.0,0.0,0.0,0.0,0.0,0.0,0.0,0.0,0.0,0.0,0.0,0.0,0.0,0.0,0.0,-3.9698,-3.8832,-3.843,-3.8633,-3.8633,-3.8396,-3.7905,-3.8396,-3.8379,-3.7922,-3.8886,-3.9225,-3.9005,-3.952,-3.9876,-4.0096,-4.0096,-4.0096,-4.0096,-4.0096,-4.0096,-4.0096,-4.0096,-4.0096,-4.0231,-4.1213,-4.1711,-4.21,0.0,0.0,0.0,0.0,0.0,0.0,0.0,0.0,-2.76,-2.76,0.0,0.0,0.0,0.0,0.0,-2.757,-2.757,-2.757,-2.76,-2.76,-2.76,-2.76,0.0,0.0,-2.8625,-2.8587,-2.9288,-3.0688,-2.931,-2.9351,-3.0643,-3.1155,-3.1032,-3.0507,-3.2497,-3.338,-3.3441,-3.4324,-3.4176,-3.3246,-3.2252,-3.1721,-3.155,-3.1142,-3.0454,0.0,-3.3675,-3.3134,0.0,-3.3168,0.0,0.0,0.0,-2.924,-2.76,-2.76,-2.76,-2.76,0.0,0.0,0.0,0.0,0.0,0.0,0.0,0.0,0.0,0.0,0.0,0.0,0.0,0.0,0.0,0.0,0.0,0.0,0.0,0.0,0.0,0.0,0.0,0.0,0.0,0.0,0.0,0.0,0.0,-3.9681,-3.8988,-3.8937,-3.8599,-3.7889,-3.7855,-3.7838,-3.7838,-3.7872,-3.7872,-3.7872,-3.7922,-3.8311,-3.8988,-3.9005,-3.9436,-4.0096,-4.0096,-4.0096,-4.0096,-4.0096,-4.0096,-4.0096,-4.0096,-4.0096,-4.0096,-4.013,-4.0578,-4.1322,0.0,0.0,0.0,0.0,0.0,0.0,-2.7934,-2.771,-2.76,0.0,0.0,0.0,-2.76,-2.7165,-2.6881,-2.6881,-2.6881,-2.7091,-2.757,-2.76,-2.76,-2.76,-2.8217,-2.8761,-2.9155,-3.0211,-3.1362,-3.2646,-3.0882,-3.0476,-3.1277,-2.9516,-2.8588,-2.8483,-3.0011,-3.0685,-3.0848,-3.3311,-3.2357,-2.9591,-3.3841,-3.2783,0.0,0.0,0.0,0.0,0.0,-3.2784,-3.3194,0.0,-3.3569,-3.1161,0.0,-2.8454,-2.76,-2.76,-2.76,-2.76,-2.76,0.0,0.0,0.0,0.0,0.0,0.0,0.0,0.0,0.0,0.0,0.0,0.0,0.0,0.0,0.0,0.0,0.0,0.0,0.0,0.0,0.0,0.0,0.0,0.0,0.0,0.0,0.0,-3.7811,-3.7293,-3.8169,-3.7686,-3.732,-3.7094,-3.6552,-3.6225,-3.6225,-3.6806,-3.7117,-3.7134,-3.8176,-3.8802,-3.9005,-3.9554,-3.991,-4.0096,-4.0096,-4.0096,-4.0096,-4.0096,-4.0096,-4.0096,-4.0096,-4.0096,-4.0163,-4.0696,-4.1018,-4.139,0.0,0.0,0.0,0.0,0.0,-2.7674,-2.7605,-2.736,-2.7285,0.0,0.0,0.0,-2.721,-2.6811,-2.6587,-2.6587,-2.6866,-2.718,-2.757,-2.7869,-2.7899,-2.76,-2.8485,-2.9128,-2.9486,-3.0297,-3.1356,-3.2642,-3.0723,-3.0107,-3.0711,-2.8589,-2.76,-2.763,-2.8423,-2.8768,-2.8899,-3.0691,-3.1113,-3.0914,-3.492,0.0,0.0,-3.6168,-3.5749,0.0,0.0,0.0,-3.5805,-3.7177,-3.5393,0.0,0.0,0.0,-2.7765,0.0,-2.8283,-2.76,-2.76,-2.76,-2.76,0.0,0.0,0.0,-2.775,-3.0166,0.0,0.0,0.0,0.0,0.0,0.0,0.0,0.0,0.0,0.0,0.0,0.0,0.0,0.0,0.0,0.0,0.0,0.0,0.0,-3.8531,-3.7349,-3.6865,-3.7408,-3.6721,-3.6299,-3.6299,-3.5836,-3.56,-3.56,-3.6079,-3.6299,-3.6315,-3.7178,-3.7922,-3.8565,-3.8988,-3.9537,-4.0096,-4.0096,-4.0096,-4.0096,-4.0096,-4.0096,-4.0096,-4.0096,-4.0096,-4.0146,-4.0578,-4.073,-4.0899,0.0,0.0,-2.8207,-2.7595,-2.7001,-2.6806,-2.7405,-2.6986,-2.6806,0.0,-2.7375,-2.7121,-2.6437,-2.6497,-2.6587,-2.6587,-2.7285,-2.775,-2.7809,-2.8368,-2.8442,-2.7839,-2.896,-2.9603,-2.9579,-2.9761,-3.041,-3.1586,-2.9737,-2.9118,-2.967,-2.8268,-2.76,-2.76,-2.76,-2.76,-2.76,-2.76,0.0,-3.4366,-3.5792,-3.7152,0.0,0.0,-3.7625,-3.7036,-4.0019,-3.9755,-3.8174,-3.9429,-3.7327,0.0,0.0,0.0,0.0,0.0,-2.9225,-2.7705,-2.7705,-2.766,-2.76,0.0,0.0,0.0,-2.775,-3.0478,-3.2787,0.0,0.0,0.0,0.0,0.0,0.0,0.0,0.0,0.0,0.0,0.0,0.0,0.0,0.0,0.0,0.0,-3.7838,-3.7787,-3.7787,-3.7702,-3.7364,-3.6711,-3.5994,-3.56,-3.56,-3.56,-3.56,-3.56,-3.56,-3.5633,-3.5718,-3.5718,-3.6552,-3.8024,-3.8024,-3.8768,-4.0096,-4.0096,-4.0096,-4.0096,-4.0096,-4.0096,-4.0096,-4.0096,-4.0096,-4.0096,-4.0096,-4.0096,-4.0214,0.0,0.0,-2.757,-2.692,-2.6701,-2.6632,-2.6791,-2.6677,-2.6437,-2.6048,-2.5989,-2.5734,-2.5053,-2.5959,-2.6587,-2.6587,-2.7694,-2.8622,-2.9172,-2.9337,-2.9352,-2.9217,-2.9909,-3.0052,-2.9525,-3.1096,-3.1777,-3.1524,-3.0651,-3.0273,-3.0353,-2.848,-2.76,-2.76,-2.76,-2.76,-2.76,-2.76,0.0,-3.193,-3.7176,0.0,-3.5152,-3.8463,-3.7527,-3.4935,-3.89,-3.8984,-3.7343,-3.8131,-3.7507,-3.5973,0.0,0.0,0.0,-3.0038,0.0,0.0,0.0,0.0,0.0,0.0,0.0,0.0,-2.775,-2.8625,-2.9653,0.0,0.0,0.0,0.0,0.0,0.0,0.0,0.0,0.0,0.0,0.0,0.0,0.0,0.0,0.0,0.0,-3.7347,-3.7015,-3.7015,-3.6417,-3.5988,-3.5836,-3.5684,-3.56,-3.56,-3.56,-3.56,-3.56,-3.56,-3.5943,-3.6575,-3.6575,-3.7347,-3.8785,-3.8785,-3.9259,-4.0096,-4.0096,-4.0096,-4.0096,-4.0096,-4.0096,-4.0096,-4.0096,-4.0096,-4.0096,-4.0096,-4.0096,-4.0214,0.0,-2.6632,-2.7001,-2.6647,-2.6587,-2.6587,-2.6587,-2.6318,-2.5974,-2.5636,-2.5307,-2.5217,-2.557,-2.6198,-2.6856,-2.753,-2.8502,-2.922,-2.9592,-2.9864,-2.9909,-2.9621,-3.0174,-3.0209,-2.9555,-3.0828,-3.1011,-3.0055,-3.0078,-2.9754,-2.9093,-2.8062,-2.742,-2.7121,-2.745,-2.7405,-2.7121,0.0,-2.8789,-3.1244,-3.7578,0.0,-3.5743,-3.89,-3.8807,-3.7227,-3.9337,-3.943,-3.8497,-3.8148,-3.7573,0.0,0.0,-3.3393,-3.1487,0.0,-2.9414,-2.8532,0.0,0.0,0.0,-2.76,0.0,0.0,0.0,-2.8374,-2.9184,0.0,0.0,0.0,0.0,0.0,0.0,0.0,0.0,0.0,0.0,0.0,0.0,0.0,0.0,0.0,0.0,-3.6434,-3.6197,-3.6197,-3.5842,-3.56,-3.56,-3.56,-3.56,-3.56,-3.56,-3.56,-3.56,-3.56,-3.5785,-3.6197,-3.6197,-3.6992,-3.8447,-3.8447,-3.9039,-4.0096,-4.0096,-4.0096,-4.0096,-4.0096,-4.0096,-4.0096,-4.0096,-4.0096,-4.0096,-4.0096,-4.0096,-4.0146,-2.5322,-2.6048,-2.6557,-2.6422,-2.6497,-2.6587,-2.6587,-2.6138,-2.5749,-2.563,-2.5008,-2.5113,-2.6437,-2.6731,-2.7425,-2.9026,-2.9801,-3.0129,-2.9981,-3.0689,-3.0644,-2.9636,-3.0301,-3.0285,-2.9442,-3.0135,-2.988,-2.8607,-2.9131,-2.8858,-2.7794,-2.766,-2.7315,-2.6821,-2.736,-2.7535,-2.7403,-2.754,0.0,-3.1735,0.0,-3.7886,-3.6654,-3.9303,-3.9969,-3.9539,-3.9944,-4.0096,-3.9885,-3.8402,-3.7483,-3.6944,-3.6669,-3.4333,0.0,0.0,0.0,0.0,0.0,0.0,0.0,0.0,0.0,-2.76,0.0,0.0,0.0,0.0,0.0,0.0,0.0,0.0,0.0,0.0,0.0,0.0,0.0,0.0,0.0,0.0,0.0,0.0,0.0,-3.5031,-3.5295,-3.5583,-3.5464,-3.5447,-3.5583,-3.56,-3.56,-3.56,-3.56,-3.56,-3.56,-3.56,-3.56,-3.56,-3.56,-3.6326,-3.7702,-3.7838,-3.8633,-3.991,-4.0045,-4.0096,-4.0096,-4.0096,-4.0096,-4.0096,-4.0096,-4.0096,-4.0096,-4.0096,-4.0096,-4.0121,-2.4814,-2.5734,-2.6408,-2.5824,-2.6198,-2.6587,-2.6587,-2.6527,-2.6273,-2.5689,-2.5008,-2.5113,-2.6437,-2.7136,-2.8498,-3.0957,-3.1885,-3.2054,-3.1329,-3.2571,-3.2223,-2.9708,-3.0689,-3.0487,-2.8742,-2.9877,-2.9872,-2.8607,-2.8682,-2.8637,-2.8472,-2.7884,-2.7555,-2.748,-2.757,-2.8576,-3.0126,0.0,-2.9852,0.0,-3.423,-3.4378,0.0,-3.9301,-3.9538,-3.7594,-3.943,-4.0096,-3.98,0.0,-3.7052,-3.6769,0.0,-3.3508,-3.1799,-3.2329,0.0,0.0,0.0,0.0,0.0,0.0,-2.76,0.0,0.0,0.0,-2.7831,0.0,0.0,0.0,0.0,0.0,0.0,0.0,0.0,0.0,0.0,0.0,0.0,0.0,0.0,0.0,0.0,0.0,-3.418,-3.5498,-3.4996,-3.4912,-3.5566,-3.56,-3.56,-3.56,-3.56,-3.56,-3.56,-3.56,-3.56,-3.56,-3.56,-3.6079,-3.6948,-3.7601,-3.8345,-3.9157,-3.9825,-4.0096,-4.0096,-4.0096,-4.0096,-4.0096,-4.0096,-4.0096,-4.0096,-4.0096,-4.0096,-4.0171,-2.5307,-2.5959,-2.6497,-2.6228,-2.6722,-2.7061,-2.6647,-2.6576,-2.6291,-2.5589,-2.5527,-2.6382,-2.8509,-2.8992,-3.0445,-3.3583,0.0,-3.4005,0.0,0.0,-3.2473,-3.2594,-3.1177,-3.0152,-2.9693,-2.9863,-2.9498,-2.8534,-2.8579,-2.8397,-2.8019,-2.7735,-2.739,-2.7046,-2.742,0.0,-2.8295,0.0,-3.302,0.0,0.0,0.0,0.0,-3.9008,-3.9826,-3.8749,-3.8422,-3.9085,-3.9665,0.0,-3.7083,0.0,0.0,0.0,0.0,0.0,0.0,0.0,0.0,0.0,0.0,0.0,0.0,0.0,-2.9475,0.0,-2.8079,0.0,0.0,0.0,0.0,0.0,0.0,0.0,0.0,0.0,0.0,0.0,0.0,0.0,0.0,0.0,0.0,0.0,0.0,0.0,0.0,-3.3812,-3.3677,-3.489,-3.5397,-3.4979,-3.538,-3.56,-3.56,-3.56,-3.56,-3.56,-3.56,-3.6028,-3.6812,-3.7134,-3.7889,-3.9005,-3.9326,-3.9706,-4.0096,-4.0096,-4.0096,-4.0096,-4.0096,-4.0096,-4.0096,-4.0096,-4.0096,-4.0196,-2.649,-2.665,-2.6847,-2.6847,-2.7537,-2.7847,-2.7176,-2.7372,-2.7293,-2.6351,-2.6969,-2.8306,-3.0398,-3.0456,0.0,0.0,-3.5125,-3.5347,0.0,0.0,-3.3239,0.0,0.0,0.0,0.0,-3.0079,-2.9413,-2.8487,-2.856,-2.842,-2.8076,-2.7745,-2.743,-2.7125,-2.745,-2.769,-2.8063,0.0,-3.5652,-3.84,-3.678,-3.6241,-3.6615,-3.853,-3.9598,-3.991,-3.838,-3.8824,-3.9623,-3.6455,-3.7107,0.0,-3.6214,0.0,0.0,0.0,0.0,0.0,-3.1256,0.0,0.0,0.0,0.0,0.0,0.0,0.0,0.0,0.0,0.0,0.0,0.0,0.0,0.0,0.0,0.0,0.0,0.0,0.0,0.0,0.0,0.0,0.0,0.0,0.0,0.0,0.0,-3.2983,-3.2949,-3.2632,-3.4523,-3.5346,-3.481,-3.5312,-3.56,-3.56,-3.56,-3.56,-3.56,-3.56,-3.591,-3.6468,-3.6711,-3.7388,-3.8413,-3.8819,-3.9292,-3.9808,-4.0028,-4.0096,-4.0096,-4.0096,-4.0096,-4.0096,-4.0096,-4.0096,-4.0204,-2.8401,-2.7907,-2.748,-2.748,0.0,0.0,0.0,0.0,0.0,0.0,0.0,0.0,0.0,0.0,0.0,0.0,0.0,-3.5721,-3.5635,0.0,-3.5112,0.0,0.0,-3.1213,0.0,0.0,-2.9825,-2.8487,-2.8494,-2.8787,-2.9316,-2.8149,-2.7894,-2.8408,-2.7845,-2.9098,-3.1703,-3.3168,-3.6761,-4.1494,-4.1877,-4.1197,-3.9741,0.0,-3.8346,-4.0096,-4.002,0.0,0.0,-3.7644,-3.7003,0.0,0.0,0.0,0.0,0.0,0.0,0.0,0.0,0.0,0.0,-3.1998,0.0,0.0,0.0,0.0,-2.8592,0.0,0.0,0.0,0.0,0.0,0.0,0.0,0.0,0.0,0.0,0.0,0.0,0.0,0.0,0.0,0.0,0.0,0.0,-3.1207,-3.1938,-3.2649,-3.3339,-3.4788,-3.5583,-3.5566,-3.5583,-3.56,-3.56,-3.56,-3.56,-3.56,-3.56,-3.5616,-3.565,-3.6434,-3.6829,-3.6948,-3.8386,-3.9005,-3.9089,-3.9808,-4.0096,-4.0096,-4.0096,-4.0096,-4.0096,-4.0096,-4.0096,-4.0254,-2.8673,-2.8967,-2.9236,-2.8837,0.0,0.0,0.0,-2.9838,0.0,0.0,0.0,0.0,0.0,-3.5748,-3.6313,0.0,0.0,-3.9439,-3.8642,-3.8246,0.0,0.0,0.0,-3.3911,0.0,0.0,0.0,-2.9104,-2.9104,-2.8787,-2.8222,-2.8198,-2.8091,-2.791,0.0,-2.8142,0.0,0.0,0.0,0.0,0.0,-3.8647,-3.8129,0.0,0.0,-4.0096,-4.0096,-4.0096,0.0,-3.8192,-3.8269,-3.8883,-3.7974,-3.6858,-3.633,-3.8439,-3.6546,0.0,0.0,0.0,-3.5809,-3.5335,0.0,0.0,0.0,0.0,0.0,0.0,0.0,0.0,0.0,0.0,0.0,0.0,0.0,0.0,0.0,0.0,0.0,0.0,0.0,0.0,0.0,0.0,0.0,-2.9687,-2.9974,-2.9989,0.0,-3.2506,-3.3931,-3.3423,-3.4844,-3.56,-3.56,-3.56,-3.56,-3.56,-3.56,-3.56,-3.56,-3.5893,-3.6299,-3.6846,-3.7838,-3.8278,-3.8328,-3.9056,-3.9385,-3.9385,-3.9385,-3.9673,-4.0096,-4.0096,-4.0319,-4.0959,-2.9373,-2.9935,0.0,0.0,0.0,0.0,0.0,0.0,0.0,0.0,-3.4285,0.0,-3.8016,0.0,-3.876,0.0,-4.0411,-4.0829,-4.1222,-3.8953,0.0,-3.9784,-3.688,0.0,0.0,0.0,0.0,0.0,0.0,-2.9487,-2.9635,-2.8656,-2.8198,-2.8222,0.0,-2.76,-2.76,0.0,-3.2424,0.0,0.0,-3.6759,0.0,0.0,-3.9446,-4.0096,0.0,-4.0096,-3.9952,-3.9066,-3.9361,-3.9935,-3.9023,-3.8462,-3.8363,-3.9708,-3.8162,-3.6347,-3.7719,-3.8087,0.0,-3.7475,-3.6918,0.0,-3.5307,0.0,0.0,0.0,0.0,0.0,0.0,0.0,0.0,0.0,0.0,0.0,0.0,0.0,0.0,0.0,0.0,0.0,0.0,0.0,-2.7908,-2.8163,-2.8688,-2.8873,0.0,0.0,-3.3305,-3.3089,-3.4726,-3.56,-3.56,-3.56,-3.56,-3.56,-3.56,-3.56,-3.56,-3.56,-3.5893,-3.6417,-3.7178,-3.7499,-3.7567,-3.8294,-3.8751,-3.8988,-3.8988,-3.9445,-4.0096,-4.0096,-4.0594,-4.1555,0.0,0.0,0.0,0.0,-3.038,0.0,0.0,0.0,-3.4304,0.0,-3.717,-3.8027,-3.8552,-3.8727,-3.9343,-4.0681,-3.9625,-4.0087,-4.2909,-3.8089,0.0,0.0,-3.6691,-3.5074,-3.7011,0.0,0.0,0.0,0.0,0.0,-3.3186,-2.9414,-2.8231,-2.9271,-2.81,0.0,-2.76,-2.76,-3.2447,-3.9876,-3.7186,-3.6016,-3.5983,-3.6712,-3.8288,-4.0096,-4.0096,-4.0096,-4.0096,-4.0096,-4.0096,-4.0096,-4.0096,-4.0096,-4.0096,-4.0096,-4.0096,-4.0096,-4.0096,-4.0096,-3.9775,-3.8448,0.0,0.0,0.0,0.0,-3.4788,0.0,0.0,0.0,0.0,0.0,0.0,0.0,0.0,0.0,0.0,0.0,0.0,0.0,0.0,0.0,0.0,-2.7824,-2.7486,-2.6759,-2.8062,-2.923,0.0,0.0,-3.3609,-3.4421,-3.5131,-3.5532,-3.56,-3.5566,-3.5566,-3.56,-3.56,-3.56,-3.56,-3.56,-3.56,-3.5633,-3.6451,-3.6778,-3.6812,-3.7533,-3.8278,-3.8937,-3.8969,-3.9468,-4.0179,-4.0179,-4.0885,-4.2044,-3.053,-3.0797,-3.1151,0.0,-3.1414,-3.203,0.0,0.0,0.0,0.0,-3.9212,-4.0966,-4.1586,-4.3185,-4.3273,-4.1018,-4.2011,0.0,0.0,0.0,0.0,-4.1202,-4.1023,-3.9897,-3.7706,-3.7621,0.0,-3.4704,0.0,0.0,-3.1366,-2.9237,-2.8174,-2.8052,0.0,0.0,-2.76,-2.76,-3.2447,-4.0037,-3.9303,-3.7778,0.0,0.0,-3.8288,-4.0096,-4.0096,-4.0096,-4.0096,-4.0096,-4.0096,-4.0096,-4.0096,-4.0096,-4.0096,-4.0096,-4.0096,-4.0096,-4.0096,-4.0096,-3.9995,-3.964,-3.8311,-3.7002,0.0,0.0,0.0,0.0,0.0,0.0,0.0,0.0,0.0,0.0,0.0,0.0,0.0,0.0,0.0,0.0,0.0,0.0,0.0,-2.8145,-2.7486,-2.6759,-2.7063,-2.7876,0.0,0.0,0.0,-3.3626,-3.388,-3.4484,-3.5583,-3.5064,-3.5064,-3.56,-3.56,-3.56,-3.56,-3.56,-3.56,-3.5633,-3.6451,-3.6451,-3.5977,-3.6755,-3.7516,-3.8224,-3.8614,-3.9827,-4.1375,-4.1375,-4.1832,-4.2647,-3.09,0.0,0.0,-3.119,0.0,0.0,-3.4452,0.0,0.0,-3.9295,-4.0919,0.0,-4.3666,-4.5253,-4.5533,-4.39,-4.2852,0.0,-4.2331,0.0,0.0,-4.1625,-4.1261,-4.0059,-3.7932,-3.8311,0.0,-3.61,0.0,0.0,-3.2772,-2.959,-2.8308,0.0,0.0,-2.76,-2.7836,-3.1502,-3.3682,-3.4796,-3.6604,0.0,0.0,-3.7186,-3.8288,-4.0096,-4.0096,-4.0096,-4.0096,-4.0096,-4.0096,-4.0096,-4.0096,-4.0096,-4.0096,-4.0096,-4.0096,-4.0096,-4.0096,-4.0096,-4.0096,-4.0096,-3.8928,-3.7777,-3.7777,-3.684,-3.5994,0.0,0.0,0.0,0.0,0.0,0.0,0.0,0.0,0.0,0.0,0.0,0.0,0.0,0.0,0.0,0.0,-2.7774,-2.7148,-2.6725,-2.6691,0.0,0.0,0.0,0.0,-3.2865,-3.3541,-3.4117,-3.4619,-3.4235,-3.4387,-3.5131,-3.5131,-3.5301,-3.56,-3.56,-3.56,-3.5616,-3.6079,-3.6028,-3.565,-3.6451,-3.7229,-3.8028,-3.921,-4.0713,-4.2183,-4.2183,-4.242,-4.2842,0.0,0.0,0.0,0.0,0.0,0.0,0.0,-3.603,0.0,-4.212,0.0,-4.3176,-4.4834,-4.5858,-4.659,-4.7013,0.0,-4.1916,-4.5824,-3.946,-3.7536,-4.1953,-3.974,-3.8337,-3.8186,-3.8193,-3.8193,0.0,0.0,0.0,-3.538,0.0,0.0,0.0,0.0,0.0,0.0,-3.538,-3.4886,-2.955,-3.3168,-3.6803,-3.991,-3.8087,-3.8531,-4.0096,-4.0096,-4.0096,-4.0096,-4.0096,-4.0096,-4.0096,-4.0096,-4.0096,-4.0096,-4.0096,-4.0096,-4.0096,-4.0096,-4.0096,-4.0096,-4.0096,-3.9462,-3.8853,-3.8853,-3.8294,-3.777,-3.777,-3.777,-3.7364,0.0,0.0,0.0,0.0,0.0,0.0,0.0,0.0,0.0,0.0,0.0,0.0,0.0,0.0,0.0,-2.6708,-2.6791,0.0,0.0,0.0,0.0,-3.2412,-3.3677,0.0,-3.3694,0.0,-3.3964,-3.4793,-3.4612,-3.4895,-3.56,-3.56,-3.56,-3.56,-3.56,-3.565,-3.5825,-3.6576,-3.7478,-3.8573,-4.0412,-4.1814,-4.2789,-4.2789,-4.2789,-4.2883,0.0,0.0,0.0,0.0,0.0,-3.4678,-3.7735,-3.9997,-4.1781,-4.2965,-4.5143,-4.6094,-4.4746,-4.64,-4.6686,-4.4348,-4.3286,0.0,0.0,0.0,0.0,-4.1338,-4.0914,-4.0357,-3.974,-3.9723,-3.9723,0.0,0.0,0.0,-3.4774,0.0,0.0,0.0,0.0,0.0,-2.771,-2.9169,0.0,-3.7978,-3.8715,-3.943,-4.0054,-3.9708,-3.9783,-4.0096,-4.0096,-4.0096,-4.0096,-4.0096,-4.0096,-4.0096,-4.0096,-4.0096,-4.0096,-4.0096,-4.0096,-4.0096,-4.0096,-4.0096,-4.0096,-4.0096,-3.9089,-3.8091,-3.8091,-3.7516,-3.6998,-3.6998,-3.6998,-3.6914,-3.6643,0.0,0.0,0.0,0.0,0.0,0.0,0.0,0.0,0.0,0.0,0.0,0.0,0.0,0.0,0.0,0.0,0.0,0.0,0.0,0.0,0.0,0.0,0.0,0.0,0.0,-3.4996,-3.6389,-3.512,-3.4895,-3.56,-3.56,-3.56,-3.56,-3.56,-3.5994,-3.6655,-3.7222,-3.881,-4.0979,-4.1986,-4.2771,-4.3375,-4.3375,-4.3375,-4.3375,0.0,0.0,0.0,0.0,0.0,0.0,0.0,-4.3138,0.0,-4.3847,-4.5028,-4.5719,-4.5163,-4.6426,-4.657,-4.4767,-4.3182,-4.2327,-4.2339,-4.0569,-4.003,-4.1161,-4.0832,0.0,-3.8971,-3.9723,-3.974,-3.8954,0.0,0.0,-3.5828,0.0,0.0,0.0,0.0,-2.7599,0.0,0.0,0.0,-4.0096,-4.0096,-4.0096,-4.0096,-4.0096,-4.0096,-4.0096,-4.0096,-4.0096,-4.0096,-4.0096,-4.0096,-4.0096,-4.0096,-4.0096,-4.0028,-3.9656,-3.9808,-4.0028,-3.9639,-3.9537,-3.9537,-3.9537,-3.8413,-3.733,-3.733,-3.6721,-3.618,-3.618,-3.618,-3.618,-3.618,-3.5571,0.0,0.0,0.0,0.0,0.0,0.0,0.0,0.0,0.0,0.0,0.0,0.0,0.0,0.0,0.0,0.0,0.0,0.0,0.0,0.0,0.0,0.0,0.0,0.0,0.0,-3.5611,-3.4844,-3.4895,-3.56,-3.56,-3.56,-3.56,-3.56,-3.6062,-3.6892,-3.821,-4.0076,-4.2153,-4.2549,-4.3032,-4.3515,-4.3515,-4.3515,-4.3515,0.0,-3.35,0.0,0.0,-3.7586,0.0,-4.2878,-4.4607,-4.5463,-4.5107,-4.4953,-4.5093,-4.5645,-4.6075,-4.5957,-4.506,-4.2842,-4.1721,-4.2199,-3.9993,-3.9222,-4.0451,-4.0223,-3.9571,-3.8396,-3.952,-3.9537,0.0,0.0,0.0,0.0,0.0,0.0,0.0,0.0,0.0,0.0,0.0,-4.0096,-4.0096,-4.0096,-4.0096,-4.0096,-4.0096,-4.0096,-4.0096,-4.0096,-4.0096,-4.0096,-4.0096,-4.0096,-4.0096,-4.0096,-4.0096,-3.9994,-3.9394,-3.9656,-3.9977,-3.9402,-3.9106,-3.8988,-3.8988,-3.7895,-3.6795,-3.6795,-3.618,-3.56,-3.56,-3.56,-3.56,-3.56,-3.56,0.0,0.0,0.0,0.0,0.0,0.0,0.0,0.0,0.0,0.0,0.0,0.0,0.0,0.0,0.0,0.0,0.0,0.0,0.0,0.0,0.0,-3.3525,-3.4252,0.0,-3.4083,0.0,-3.4658,-3.4895,-3.56,-3.56,-3.56,-3.5639,-3.5909,-3.6693,-3.7929,-3.9704,-4.1387,-4.2864,-4.2864,-4.3142,-4.3515,-4.3515,-4.3515,-4.3515,0.0,0.0,0.0,0.0,0.0,0.0,0.0,-4.2983,-4.3879,-4.7134,-4.6988,-4.6342,-4.5771,-4.5162,-4.4225,-4.2743,-4.2351,-4.1135,-3.8599,-3.9986,-4.0096,-3.8294,-3.9436,-4.0045,-3.991,-4.0028,-4.0028,0.0,0.0,0.0,0.0,0.0,0.0,0.0,0.0,0.0,0.0,-3.9758,-4.0096,-4.0096,-4.0096,-4.0096,-4.0096,-4.0096,-4.0096,-4.0096,-4.0096,-4.0096,-4.0096,-4.0096,-4.0096,-4.0096,-4.0096,-4.0096,-4.0096,-4.0028,-4.0045,-4.0079,-4.0028,-3.952,-3.8988,-3.8988,-3.7895,-3.6795,-3.6795,-3.618,-3.56,-3.56,-3.56,-3.56,-3.56,-3.56,-3.5397,0.0,0.0,0.0,0.0,0.0,0.0,0.0,0.0,0.0,0.0,0.0,0.0,0.0,0.0,0.0,0.0,0.0,0.0,-3.1379,0.0,-3.2767,-3.3508,-3.41,0.0,-3.6575,-3.5165,-3.4895,-3.56,-3.56,-3.56,-3.5678,-3.6887,-3.879,-4.1136,-4.2053,-4.2811,-4.3427,-4.3427,-4.3463,-4.3515,-4.3515,-4.3515,-4.3515,0.0,0.0,0.0,0.0,0.0,0.0,0.0,-4.4197,-4.4879,-4.6372,-4.594,-4.5179,-4.4418,-4.4062,-4.3284,-4.1779,-4.1644,-4.095,-3.9326,-4.0037,-4.0163,-3.9242,-3.9791,-4.0096,-4.0096,-4.0096,-4.0096,0.0,0.0,0.0,0.0,0.0,0.0,0.0,0.0,-3.7944,-4.0103,-4.0088,-4.0096,-4.0096,-4.0096,-4.0096,-4.0096,-4.0096,-4.0096,-4.0096,-4.0096,-4.0096,-4.0096,-4.0096,-4.0096,-4.0096,-4.0096,-4.0096,-4.0011,-3.9571,-3.9757,-4.0011,-3.9571,-3.8903,-3.8345,-3.8345,-3.7195,-3.6079,-3.6079,-3.5819,-3.56,-3.56,-3.56,-3.56,-3.56,-3.56,-3.5498,0.0,0.0,0.0,0.0,0.0,0.0,0.0,0.0,0.0,0.0,0.0,0.0,0.0,0.0,0.0,0.0,0.0,0.0,-3.3119,0.0,-3.4223,-3.5419,-3.481,-3.503,-3.6079,-3.5453,-3.5295,-3.56,-3.56,-3.5853,-3.6395,-3.771,-3.9308,-4.1119,-4.2235,-4.3014,-4.3515,-4.3515,-4.3515,-4.3515,-4.3515,-4.3515,-4.3515,-4.1328,0.0,-4.2014,0.0,-4.3798,-4.4473,-4.4734,-4.5119,-4.5297,-4.506,-4.4773,-4.4282,-4.3504,-4.3003,-4.2252,-4.0984,-4.0882,-4.0375,-3.9216,-3.974,-3.991,-3.9462,-3.9876,0.0,-4.0096,-4.0096,-4.0096,-4.0096,-3.869,0.0,0.0,0.0,0.0,0.0,-4.0087,-4.0113,-4.0085,-4.0104,-4.0096,-4.0096,-4.0096,-4.0096,-4.0096,-4.0096,-4.0096,-4.0096,-4.0096,-4.0096,-4.0096,-4.0096,-4.0096,-4.0096,-4.0096,-4.0096,-3.9994,-3.9486,-3.9706,-3.9943,-3.9191,-3.8464,-3.7855,-3.7635,-3.6586,-3.56,-3.56,-3.56,-3.56,-3.56,-3.56,-3.56,-3.56,-3.56,-3.5515,-3.5295,0.0,0.0,0.0,0.0,0.0,0.0,-3.2493,-3.1819,-3.2259,0.0,0.0,0.0,0.0,0.0,0.0,0.0,0.0,0.0,0.0,0.0,0.0,-3.4763,-3.49,-3.5849,-3.5989,-3.6075,-3.6075,-3.632,-3.7064,-3.8213,-3.9129,-4.0276,-4.1597,-4.2536,-4.316,-4.3515,-4.3515,-4.3515,-4.3515,-4.3515,-4.3515,-4.3515,-4.4248,-4.5128,-4.6109,-4.7567,-4.7242,-4.6515,-4.5776,-4.5077,-4.4316,-4.3511,-4.4113,-4.4282,-4.3504,-4.2117,-4.0933,-4.018,-4.0113,-3.9182,-3.6981,-3.8894,-3.9445,0.0,0.0,-4.0096,-4.0096,-4.0096,-4.0096,-4.0096,0.0,0.0,-3.5721,0.0,-4.0033,-4.0098,-4.0087,-4.0096,-4.0113,-4.0096,-4.0096,-4.0096,-4.0096,-4.0096,-4.0096,-4.0096,-4.0096,-4.0096,-4.0096,-4.0096,-4.0096,-4.0096,-4.0096,-4.0096,-4.0096,-4.0096,-4.0096,-4.0096,-4.0096,-3.9943,-3.9191,-3.8464,-3.7736,-3.6998,-3.6197,-3.56,-3.56,-3.56,-3.56,-3.56,-3.56,-3.56,-3.56,-3.56,-3.5346,-3.4624,0.0,0.0,0.0,0.0,0.0,0.0,-3.1918,-3.07,-3.2158,0.0,0.0,0.0,0.0,0.0,0.0,0.0,0.0,-3.119,-3.0531,0.0,-3.2344,-3.3567,-3.4946,-3.6412,-3.6941,-3.7173,-3.7208,-3.8006,-3.9505,-4.1431,-4.1468,-4.2232,-4.3479,-4.3479,-4.3479,-4.3515,-4.3515,-4.3515,-4.3515,-4.3515,-4.3515,-4.3515,-4.3014,-4.4468,-4.5534,-4.4914,-4.5517,-4.5805,-4.5043,-4.4767,-4.4513,-4.4248,-4.3961,-4.3487,-4.2726,-4.2236,-4.1441,0.0,-3.9174,-3.8717,0.0,-3.8751,-3.8836,-3.9377,-3.8886,-3.8599,-3.8599,-3.8599,-3.8599,-3.8599,0.0,0.0,0.0,-3.9638,-4.008,-4.0104,-4.0096,-4.0096,-4.0096,-4.0096,-4.0096,-4.0096,-4.0096,-4.0096,-4.0096,-4.0096,-4.0096,-4.0096,-4.0096,-4.0096,-4.0096,-4.0096,-4.0096,-4.0096,-4.0096,-4.0096,-4.0096,-4.0096,-4.0096,-3.9943,-3.9191,-3.8819,-3.8345,-3.7117,-3.6609,-3.6265,-3.5718,-3.56,-3.56,-3.56,-3.56,-3.56,-3.56,-3.56,-3.5346,-3.4624,-3.5131,0.0,0.0,0.0,0.0,0.0,-3.2175,-3.1785,0.0,-3.121,0.0,0.0,0.0,0.0,0.0,0.0,0.0,0.0,-3.4798,0.0,-3.6659,-3.6568,-3.7222,-3.8586,-3.8766,-3.8844,-3.8844,-3.9093,-3.9866,-4.0969,-4.1355,-4.2049,-4.2976,-4.3357,-4.3515,-4.3515,-4.3515,-4.3515,-4.3515,-4.3515,-4.3515,-4.3515,-4.3234,-4.4519,-4.5415,-4.4434,-4.5077,-4.5449,-4.4716,-4.4615,-4.4496,-4.4181,-4.3724,-4.3132,-4.2371,-4.2049,0.0,-4.0197,-3.9242,-3.9106,-4.0045,-3.9225,-3.9123,-4.0062,-3.9208,-3.8717,-3.8717,0.0,0.0,-3.8717,-3.9632,-4.0095,-4.0095,-4.0095,-4.0092,-4.0096,-4.0096,-4.0096,-4.0096,-4.0096,-4.0096,-4.0096,-4.0096,-4.0096,-4.0096,-4.0096,-4.0096,-4.0096,-4.0096,-4.0096,-4.0096,-4.0096,-4.0096,-4.0096,-4.0096,-4.0096,-4.0096,-4.0096,-3.991,-3.9537,-3.8785,-3.8582,-3.8294,-3.71,-3.7015,-3.7009,-3.6231,-3.5802,-3.56,-3.56,-3.56,-3.56,-3.56,-3.56,-3.5447,-3.4996,-3.5295,-3.5329,-3.459,0.0,0.0,0.0,0.0,0.0,0.0,-3.2459,0.0,0.0,0.0,0.0,0.0,0.0,0.0,-3.5881,-3.6197,0.0,-3.8283,-3.8042,-3.8571,-3.9865,-4.0053,-4.0309,-4.0615,-4.0615,-4.1028,-4.1767,-4.2123,-4.2541,-4.3032,-4.3375,-4.3515,-4.3515,-4.3515,-4.3515,-4.3515,-4.3515,-4.3515,-4.3515,-4.4462,-4.5077,0.0,0.0,-4.5618,0.0,-4.4784,-4.4632,-4.4299,-4.3521,-4.3392,-4.3115,-4.2303,-4.161,-4.0899,-4.0163,0.0,0.0,0.0,-4.0011,-3.9994,-4.0096,-4.0011,-3.996,-3.996,-3.9901,-3.9977,-4.0096,-4.0096,-4.0096,-4.0096,-4.0096,-4.0096,-4.0096,-4.0096,-4.0096,-4.0096,-4.0096,-4.0096,-4.0096,-4.0096,-4.0096,-4.0096,-4.0096,-4.0096,-4.0096,-4.0096,-4.0096,-4.0096,-4.0096,-4.0096,-4.0096,-4.0096,-4.0096,-4.0096,-4.0096,-3.9622,-3.8903,-3.8176,-3.8024,-3.7872,-3.7083,-3.7347,-3.7635,-3.6897,-3.6146,-3.56,-3.56,-3.56,-3.56,-3.56,-3.56,-3.56,-3.56,-3.56,-3.5329,-3.459,0.0,0.0,0.0,0.0,0.0,0.0,-3.3897,-3.3525,0.0,0.0,0.0,0.0,0.0,-3.3334,-3.4759,-3.5514,-3.6544,-3.7878,-3.843,-3.9311,-4.0528,-4.1022,-4.1645,-4.2378,-4.2378,-4.2782,-4.3515,-4.3515,-4.3515,-4.3515,-4.3515,-4.3515,-4.3515,-4.3515,-4.3515,-4.3515,-4.3515,-4.3515,-4.3515,0.0,0.0,-4.484,-4.484,-4.484,-4.4976,-4.5382,-4.4942,-4.4299,-4.3521,-4.3392,-4.2885,-4.161,-4.1305,-4.0899,-4.0163,-3.9056,-3.8886,-4.0028,-3.9039,-3.892,-4.0045,-3.9005,-3.8413,-3.8413,-3.8029,-3.8552,-4.0096,-4.0096,-4.0096,-4.0096,-4.0096,-4.0096,-4.0096,-4.0096,-4.0096,-4.0096,-4.0096,-4.0096,-4.0096,-4.0096,-4.0096,-4.0096,-4.0096,-4.0096,-4.0096,-4.0096,-4.0096,-4.0096,-4.0096,-4.0096,-4.0096,-4.0096,-4.0096,-4.0096,-4.0096,-3.9977,-3.969,-3.8937,-3.914,-3.9283,-3.7956,-3.7347,-3.684,-3.6062,-3.5735,-3.56,-3.56,-3.56,-3.56,-3.56,-3.56,-3.56,-3.56,-3.56,-3.5329,-3.459,-3.4489,0.0,0.0,-3.341,-3.3897,-3.3677,-3.4518,-3.4602,0.0,0.0,0.0,0.0,-3.5368,-3.683,-3.7895,-3.8494,-3.9455,-4.0793,-4.1381,-4.2029,-4.2736,-4.2876,-4.302,-4.3222,-4.3222,-4.3331,-4.3515,-4.3515,-4.3515,-4.3515,-4.3515,-4.3515,-4.3515,-4.3515,-4.3515,-4.3515,-4.3515,-4.3515,-4.3515,-4.3447,-4.4039,-4.4615,-4.4615,-4.4615,-4.475,-4.5128,-4.4869,-4.4299,-4.3521,-4.3115,-4.2472,-4.1322,-4.0899,-4.0527,-4.013,-3.9385,-3.9266,-4.0045,-3.9368,-3.9242,-4.0079,-3.9326,-3.8903,-3.8903,-3.861,-3.9023,-4.0096,-4.0096,-4.0096,-4.0096,-4.0096,-4.0096,-4.0096,-4.0096,-4.0096,-4.0096,-4.0096,-4.0096,-4.0096,-4.0096,-4.0096,-4.0096,-4.0096,-4.0096,-4.0096,-4.0096,-4.0096,-4.0096,-4.0096,-4.0096,-4.0096,-4.0096,-4.0096,-4.0096,-4.0096,-3.9859,-3.952,-3.9106,-3.9039,-3.8903,-3.8108,-3.7347,-3.6694,-3.6248,-3.5853,-3.56,-3.56,-3.5887,-3.6045,-3.5667,-3.591,-3.6028,-3.565,-3.5312,-3.4844,-3.41,-3.3998,0.0,-3.2899,-3.3795,-3.4607,-3.4912,-3.5673,-3.5825,-3.4996,0.0,0.0,-3.5347,-3.7346,-3.862,-3.8853,-4.0063,-4.1194,-4.2203,-4.2789,-4.3214,-4.3515,-4.3515,-4.3515,-4.3515,-4.3515,-4.3515,-4.3515,-4.3515,-4.3515,-4.3515,-4.3515,-4.3515,-4.3515,-4.3515,-4.3515,-4.3515,-4.3515,-4.3515,-4.3515,-4.4615,-4.4615,-4.4649,-4.475,-4.4682,-4.4615,-4.4615,-4.4513,-4.4079,-4.3172,-4.2523,-4.1847,-4.1119,-4.0485,-4.0096,-4.0096,-4.0096,-4.0096,-4.0096,-4.0096,-4.0096,-4.0096,-4.0096,-4.0096,-4.0096,-4.0096,-4.0096,-4.0096,-4.0096,-4.0096,-4.0096,-4.0096,-4.0096,-4.0096,-4.0096,-4.0096,-4.0096,-4.0096,-4.0096,-4.0096,-4.0096,-4.0096,-4.0096,-4.0096,-4.0096,-4.0096,-4.0096,-4.0096,-4.0096,-4.0096,-4.0096,-4.0096,-4.0096,-4.0096,-4.0096,-4.0096,-3.9673,-3.914,-3.9022,-3.8464,-3.7872,-3.777,-3.7246,-3.6778,-3.666,-3.6096,-3.5633,-3.5752,-3.6315,-3.6586,-3.591,-3.6332,-3.6485,-3.5566,-3.4912,-3.4235,-3.3508,0.0,-3.3575,-3.3575,-3.432,-3.5351,-3.6677,-3.6897,-3.6988,-3.7086,-3.7423,-3.7715,0.0,-3.9083,-3.957,-3.9136,-4.0965,-4.2223,-4.2826,-4.3268,-4.3515,-4.3515,-4.3515,-4.3515,-4.3515,-4.3515,-4.3515,-4.3515,-4.3515,-4.3515,-4.3515,-4.3515,-4.3515,-4.3515,-4.3515,-4.3515,-4.3515,-4.3515,-4.3515,-4.3515,-4.4615,-4.4615,-4.4818,-4.5415,-4.4993,-4.4615,-4.4615,-4.4012,-4.3071,-4.1728,-4.1441,-4.1085,-4.0367,-4.018,-4.0096,-4.0096,-4.0096,-4.0096,-4.0096,-4.0096,-4.0096,-4.0096,-4.0096,-4.0096,-4.0096,-4.0096,-4.0096,-4.0096,-4.0096,-4.0096,-4.0096,-4.0096,-4.0096,-4.0096,-4.0096,-4.0096,-4.0096,-4.0096,-4.0096,-4.0096,-4.0096,-4.0096,-4.0096,-4.0096,-4.0096,-4.0096,-4.0096,-4.0096,-4.0096,-4.0096,-4.0096,-4.0096,-4.0096,-4.0096,-4.0096,-4.0096,-4.0028,-3.9791,-3.9157,-3.8464,-3.7753,-3.7134,-3.688,-3.6626,-3.5943,-3.5684,-3.5785,-3.6468,-3.6711,-3.6761,-3.6643,-3.6728,-3.6338,-3.4895,-3.4573,-3.4235,-3.3508,0.0,-3.432,-3.432,-3.5594,-3.6541,-3.6778,-3.7347,-3.7921,-3.8363,-3.8071,-3.8258,-3.9234,-4.0081,-4.0691,-4.1062,-4.2035,-4.2827,-4.3375,-4.3444,-4.3515,-4.3515,-4.3515,-4.3515,-4.3515,-4.3515,-4.3515,-4.3515,-4.3515,-4.3515,-4.3515,-4.3515,-4.3515,-4.3515,-4.3515,-4.3515,-4.3515,-4.3515,-4.3515,-4.3515,-4.4615,-4.4615,-4.4716,-4.5043,-4.4835,-4.4462,-4.4012,-4.3656,-4.2868,-4.139,-4.1204,-4.0916,-4.018,-4.0096,-4.0096,-4.0096,-4.0096,-4.0096,-4.0096,-4.0096,-4.0096,-4.0096,-4.0096,-4.0096,-4.0096,-4.0096,-4.0096,-4.0096,-4.0096,-4.0096,-4.0096,-4.0096,-4.0096,-4.0096,-4.0096,-4.0096,-4.0096,-4.0096,-4.0096,-4.0096,-4.0096,-4.0096,-4.0096,-4.0096,-4.0096,-4.0096,-4.0096,-4.0096,-4.0096,-4.0096,-4.0096,-4.0096,-4.0096,-4.0096,-4.0096,-4.0096,-3.9825,-3.9368,-3.8616,-3.7872,-3.711,-3.6349,-3.6146,-3.6062,-3.5667,-3.5943,-3.6349,-3.6728,-3.7438,-3.7743,-3.6948,-3.711,-3.6891,-3.5351,-3.4759,0.0,0.0,-3.4641,-3.5098,-3.5098,-3.6451,-3.7533,-3.7963,-3.8294,-3.8584,-3.8847,-3.9577,-4.0062,-4.019,-4.1475,-4.2322,-4.2558,-4.2941,-4.325,-4.3497,-4.3515,-4.3515,-4.3515,-4.3515,-4.3515,-4.3515,-4.3515,-4.3515,-4.3515,-4.3515,-4.3515,-4.3515,-4.3515,-4.3515,-4.3515,-4.3515,-4.3515,-4.3515,-4.3515,-4.3515,-4.3515,-4.4615,-4.4615,-4.4547,-4.4333,-4.4316,-4.3995,-4.3047,-4.2885,-4.2439,-4.1119,-4.0933,-4.073,-4.0163,-4.0096,-4.0096,-4.0096,-4.0096,-4.0096,-4.0096,-4.0096,-4.0096,-4.0096,-4.0096,-4.0096,-4.0096,-4.0096,-4.0096,-4.0096,-4.0096,-4.0096,-4.0096,-4.0096,-4.0096,-4.0096,-4.0096,-4.0096,-4.0096,-4.0096,-4.0096,-4.0096,-4.0096,-4.0096,-4.0096,-4.0096,-4.0096,-4.0096,-4.0096,-4.0096,-4.0096,-4.0096,-4.0096,-4.0096,-4.0096,-4.0096,-4.0096,-4.0096,-3.9588,-3.8836,-3.8108,-3.7347,-3.6609,-3.5785,-3.5735,-3.5893,-3.5893,-3.6485,-3.7117,-3.7286,-3.8217,-3.865,-3.7523,-3.7635,-3.7415,-3.5853,0.0,0.0,0.0,-3.5402,-3.5938,-3.6107,-3.7324,-3.8379,-3.8937,-3.9165,-3.9316,-3.9428,-4.0791,-4.1481,-4.1169,-4.2539,-4.3375,-4.3497,-4.3515,-4.3515,-4.3515,-4.3515,-4.3515,-4.3515,-4.3515,-4.3515,-4.3515,-4.3515,-4.3515,-4.3515,-4.3515,-4.3515,-4.3515,-4.3515,-4.3515,-4.3515,-4.3515,-4.3515,-4.3515,-4.3515,-4.3515,-4.3515,-4.4615,-4.4615,-4.435,-4.3639,-4.3504,-4.3031,-4.1593,-4.1373,-4.1085,-4.0282,-4.018,-4.0163,-4.0113,-4.0096,-4.0096,-4.0096,-4.0096,-4.0096,-4.0096,-4.0096,-4.0096,-4.0096,-4.0096,-4.0096,-4.0096,-4.0096,-4.0096,-4.0096,-4.0096,-4.0096,-4.0096,-4.0096,-4.0096,-4.0096,-4.0096,-4.0096,-4.0096,-4.0096,-4.0096,-4.0096,-4.0096,-4.0096,-4.0096,-4.0096,-4.0096,-4.0096,-4.0096,-4.0096,-4.0096,-4.0096,-4.0096,-4.0096,-4.0096,-4.0096,-4.0096,-4.0096,-3.9588,-3.8836,-3.8108,-3.7347,-3.6609,-3.5785,-3.6163,-3.6711,-3.6711,-3.728,-3.8007,-3.87,-3.892,-3.8954,-3.8853,-3.8328,-3.7415,-3.5853,0.0,0.0,-3.5515,-3.6214,-3.6958,-3.7652,-3.843,-3.8937,-3.8988,-3.9622,-4.0226,-4.0717,-4.0891,-4.1411,-4.2506,-4.2694,-4.2976,-4.3479,-4.3515,-4.3515,-4.3515,-4.3515,-4.3515,-4.3515,-4.3515,-4.3515,-4.3515,-4.3515,-4.3515,-4.3515,-4.3515,-4.3515,-4.3515,-4.3515,-4.3515,-4.3515,-4.3515,-4.3515,-4.3515,-4.3515,-4.3515,-4.3515,-4.4615,-4.4615,-4.4361,-4.3527,-4.3392,-4.2885,-4.1441,-4.1204,-4.0933,-4.0197,-4.0096,-4.0096,-4.0096,-4.0096,-4.0096,-4.0096,-4.0096,-4.0096,-4.0096,-4.0096,-4.0096,-4.0096,-4.0096,-4.0096,-4.0096,-4.0096,-4.0096,-4.0096,-4.0096,-4.0096,-4.0096,-4.0096,-4.0096,-4.0096,-4.0096,-4.0096,-4.0096,-4.0096,-4.0096,-4.0096,-4.0096,-4.0096,-4.0096,-4.0096,-4.0096,-4.0096,-4.0096,-4.0096,-4.0096,-4.0096,-4.0096,-4.0096,-4.0096,-4.0096,-4.0096,-4.0096,-3.991,-3.9537,-3.8768,-3.8041,-3.7415,-3.711,-3.7263,-3.7483,-3.7483,-3.8058,-3.8667,-3.8937,-3.9343,-3.9529,-3.9073,-3.8768,-3.8244,-3.7212,0.0,-3.7019,-3.7019,-3.7686,-3.8261,-3.8548,-3.9225,-3.9804,-4.0141,-4.0429,-4.0844,-4.1424,-4.1793,-4.2221,-4.2692,-4.3014,-4.3286,-4.3479,-4.3515,-4.3515,-4.3515,-4.3515,-4.3515,-4.3515,-4.3515,-4.3515,-4.3515,-4.3515,-4.3515,-4.3515,-4.3515,-4.3515,-4.3515,-4.3515,-4.3515,-4.3515,-4.3515,-4.3515,-4.3515,-4.3515,-4.3515,-4.3515,-4.4215,-4.4215,-4.3893,-4.2895,-4.2699,-4.2303,-4.1035,-4.0849,-4.0663,-4.018,-4.0096,-4.0096,-4.0096,-4.0096,-4.0096,-4.0096,-4.0096,-4.0096,-4.0096,-4.0096,-4.0096,-4.0096,-4.0096,-4.0096,-4.0096,-4.0096,-4.0096,-4.0096,-4.0096,-4.0096,-4.0096,-4.0096,-4.0096,-4.0096,-4.0096,-4.0096,-4.0096,-4.0096,-4.0096,-4.0096,-4.0096,-4.0096,-4.0096,-4.0096,-4.0096,-4.0096,-4.0096,-4.0096,-4.0096,-4.0096,-4.0096,-4.0096,-4.0096,-4.0096,-4.0096,-4.0096,-4.0096,-3.9994,-3.9486,-3.8971,-3.8481,-3.8024,-3.8075,-3.8261,-3.8261,-3.8819,-3.9368,-3.9368,-3.9757,-3.996,-3.9453,-3.9157,-3.8819,-3.8328,-3.8261,-3.8261,-3.8261,-3.887,-3.9368,-3.9368,-3.9948,-4.0497,-4.0856,-4.0903,-4.1155,-4.175,-4.2183,-4.2578,-4.2939,-4.3303,-4.3515,-4.3515,-4.3515,-4.3515,-4.3515,-4.3515,-4.341,-4.325,-4.3427,-4.3515,-4.3515,-4.3515,-4.3515,-4.3515,-4.3515,-4.3515,-4.3515,-4.3515,-4.3515,-4.3515,-4.3515,-4.3515,-4.3515,-4.3515,-4.3515,-4.3515,-4.3375,-4.3375,-4.2919,-4.1457,-4.1204,-4.095,-4.0214,-4.0096,-4.0096,-4.0096,-4.0096,-4.0096,-4.0096,-4.0096,-4.0096,-4.0096,-4.0096,-4.0096,-4.0096,-4.0096,-4.0096,-4.0096,-4.0096,-4.0096,-4.0096,-4.0096,-4.0096,-4.0096,-4.0096,-4.0096,-4.0096,-4.0096,-4.0096,-4.0096,-4.0096,-4.0096,-4.0096,-4.0096,-4.0096,-4.0096,-4.0096,-4.0096,-4.0096,-4.0096,-4.0096,-4.0096,-4.0096,-4.0096,-4.0096,-4.0096,-4.0096,-4.0096,-4.0096,-4.0096,-4.0096,-4.0096,-4.0096,-4.0096,-4.0096,-4.0096,-3.9757,-3.8278,-3.8464,-3.9005,-3.9005,-3.9571,-4.0096,-4.0096,-4.0096,-4.0096,-4.0096,-3.9503,-3.9005,-3.9005,-3.9005,-3.9005,-3.9012,-3.9639,-4.0096,-4.0121,-4.0577,-4.0903,-4.0903,-4.0903,-4.1155,-4.175,-4.181,-4.2306,-4.3444,-4.3515,-4.3515,-4.3515,-4.3515,-4.3515,-4.3479,-4.3479,-4.3232,-4.2711,-4.3232,-4.3497,-4.3515,-4.3515,-4.3515,-4.3515,-4.3515,-4.3515,-4.3515,-4.3515,-4.3515,-4.3515,-4.3515,-4.3515,-4.3515,-4.3515,-4.3515,-4.3515,-4.2726,-4.2625,-4.2337,-4.1373,-4.1204,-4.095,-4.0214,-4.0096,-4.0096,-4.0096,-4.0096,-4.0096,-4.0096,-4.0096,-4.0096,-4.0096,-4.0096,-4.0096,-4.0096,-4.0096,-4.0096,-4.0096,-4.0096,-4.0096,-4.0096,-4.0096,-4.0096,-4.0096,-4.0096,-4.0096,-4.0096,-4.0096,-4.0096,-4.0096,-4.0096,-4.0096,-4.0096,-4.0096,-4.0096,-4.0096,-4.0096,-4.0096,-4.0096,-4.0096,-4.0096,-4.0096,-4.0096,-4.0096,-4.0096,-4.0096,-4.0096,-4.0096,-4.0096,-4.0096,-4.0096,-4.0096,-4.0096,-4.0096,-4.0096,-4.0096,-3.9994,-3.9554,-3.9622,-3.9774,-3.9774,-3.9943,-4.0096,-4.0096,-4.0096,-4.0096,-4.0096,-3.9926,-3.9774,-3.9774,-3.9774,-3.9906,-4.0298,-4.0517,-4.0821,-4.1241,-4.1424,-4.1534,-4.1534,-4.1916,-4.2223,-4.242,-4.279,-4.3142,-4.3479,-4.3515,-4.3515,-4.3515,-4.3515,-4.3322,-4.2939,-4.2939,-4.305,-4.325,-4.3032,-4.3142,-4.3515,-4.3515,-4.3515,-4.3515,-4.3515,-4.3515,-4.3515,-4.3515,-4.3515,-4.3515,-4.3515,-4.3515,-4.3515,-4.3515,-4.3515,-4.3515,-4.1948,-4.1863,-4.1627,-4.0882,-4.0747,-4.0595,-4.018,-4.0096,-4.0096,-4.0096,-4.0096,-4.0096,-4.0096,-4.0096,-4.0096,-4.0096,-4.0096,-4.0096,-4.0096,-4.0096,-4.0096,-4.0096,-4.0096,-4.0096,-4.0096,-4.0096,-4.0096,-4.0096,-4.0096,-4.0096,-4.0096,-4.0096,-4.0096,-4.0096,-4.0096,-4.0096,-4.0096,-4.0096,-4.0096,-4.0096,-4.0096,-4.0096,-4.0096,-4.0096,-4.0096,-4.0096,-4.0096,-4.0096,-4.0096,-4.0096,-4.0096,-4.0096,-4.0096,-4.0096,-4.0096,-4.0096,-4.0096,-4.0096,-4.0096,-4.0096,-4.0096,-4.0096,-4.0096,-4.0096,-4.0096,-4.0096,-4.0096,-4.0096,-4.0096,-4.0096,-4.0096,-4.0096,-4.0096,-4.0096,-4.0096,-4.0286,-4.081,-4.0726,-4.0797,-4.138,-4.1446,-4.1446,-4.1446,-4.1979,-4.244,-4.2674,-4.3196,-4.3515,-4.3515,-4.3515,-4.3515,-4.3515,-4.3515,-4.3339,-4.3014,-4.2807,-4.2864,-4.3178,-4.3069,-4.3196,-4.3515,-4.3515,-4.3515,-4.3515,-4.3515,-4.3515,-4.3515,-4.3515,-4.3515,-4.3515,-4.3515,-4.3515,-4.3515,-4.3515,-4.3515,-4.3515,-4.1119,-4.1102,-4.0882,-4.0231,-4.0096,-4.0096,-4.0096,-4.0096,-4.0096,-4.0096,-4.0096,-4.0096,-4.0096,-4.0096,-4.0096,-4.0096,-4.0096,-4.0096,-4.0096,-4.0096,-4.0096,-4.0096,-4.0096,-4.0096,-4.0096,-4.0096,-4.0096,-4.0096,-4.0096,-4.0096,-4.0096,-4.0096,-4.0096,-4.0096,-4.0096,-4.0096,-4.0096,-4.0096,-4.0096,-4.0096,-4.0096,-4.0096,-4.0096,-4.0096,-4.0096,-4.0096,-4.0096,-4.0096,-4.0096,-4.0096,-4.0096,-4.0096,-4.0096,-4.0096,-4.0096,-4.0096,-4.0096,-4.0096,-4.0096,-4.0096,-4.0096,-4.0096,-4.0096,-4.0096,-4.0096,-4.0096,-4.0096,-4.0096,-4.0096,-4.0096,-4.0096,-4.0096,-4.0121,-4.0171,-4.0121,-4.0311,-4.0897,-4.057,-4.0466,-4.0995,-4.1093,-4.1115,-4.1064,-4.1556,-4.2142,-4.2713,-4.3214,-4.3515,-4.3515,-4.3515,-4.3515,-4.3515,-4.3515,-4.3515,-4.3515,-4.3014,-4.2769,-4.2788,-4.3214,-4.3444,-4.3515,-4.3515,-4.3515,-4.3515,-4.3515,-4.3515,-4.3515,-4.3515,-4.3515,-4.3515,-4.3515,-4.3515,-4.3515,-4.3515,-4.3515,-4.3515,-4.0468,-4.035,-4.0299,-4.013,-4.0096,-4.0096,-4.0096,-4.0096,-4.0096,-4.0096,-4.0096,-4.0096,-4.0096,-4.0096,-4.0096,-4.0096,-4.0096,-4.0096,-4.0096,-4.0096,-4.0096,-4.0096,-4.0096,-4.0096,-4.0096,-4.0096,-4.0096,-4.0096,-4.0096,-4.0096,-4.0096,-4.0096,-4.0096,-4.0096,-4.0096,-4.0096,-4.0096,-4.0096,-4.0096,-4.0096,-4.0096,-4.0096,-4.0096,-4.0096,-4.0096,-4.0096,-4.0096,-4.0096,-4.0096,-4.0096,-4.0096,-4.0096,-4.0096,-4.0096,-4.0096,-4.0096,-4.0096,-4.0096,-4.0096,-4.0096,-4.0096,-4.0096,-4.0096,-4.0096,-4.0096,-4.0096,-4.0096,-4.0096,-4.0096,-4.0096,-4.0096,-4.0096,-4.0254,-4.0655,-4.0368,-4.0441,-4.1468,-4.149,-4.166,-4.2223,-4.2676,-4.2772,-4.2362,-4.244,-4.2732,-4.3304,-4.3427,-4.3515,-4.3515,-4.3515,-4.3515,-4.3515,-4.3515,-4.3515,-4.3515,-4.3392,-4.3339,-4.3321,-4.3014,-4.3087,-4.3515,-4.3515,-4.3515,-4.3515,-4.3515,-4.3515,-4.3515,-4.3515,-4.3515,-4.3515,-4.3515,-4.3515,-4.3515,-4.3515,-4.3515,-4.3515,-4.018,-4.0096,-4.0096,-4.0096,-4.0096,-4.0096,-4.0096,-4.0096,-4.0096,-4.0096,-4.0096,-4.0096,-4.0096,-4.0096,-4.0096,-4.0096,-4.0096,-4.0094,-4.0102,-4.0109,-4.0109,-4.0109,-4.0109,-4.009,-4.0096,-4.0096,-4.0096,-4.0096,-4.0096,-4.0096,-4.0096,-4.0096,-4.0096,-4.0096,-4.0096,-4.0096,-4.0096,-4.0096,-4.0096,-4.0096,-4.0096,-4.0096,-4.0096,-4.0096,-4.0096,-4.0096,-4.0096,-4.0096,-4.0096,-4.0096,-4.0096,-4.0096,-4.0096,-4.0096,-4.0096,-4.0096,-4.0096,-4.0096,-4.0096,-4.0096,-4.0096,-4.0096,-4.0096,-4.0096,-4.0096,-4.0096,-4.0096,-4.0096,-4.0096,-4.0096,-4.0096,-4.0096,-4.0179,-4.0473,-4.0286,-4.049,-4.1639,-4.1556,-4.1686,-4.2596,-4.2694,-4.2696,-4.2693,-4.2711,-4.292,-4.3444,-4.3515,-4.3515,-4.3515,-4.3515,-4.3515,-4.3515,-4.3515,-4.3515,-4.3515,-4.3515,-4.3515,-4.3497,-4.3214,-4.3232,-4.3515,-4.3515,-4.3515,-4.3515,-4.3515,-4.3515,-4.3515,-4.3515,-4.3515,-4.3515,-4.3515,-4.3515,-4.3515,-4.3515,-4.3515,-4.3515,-4.0096,-4.0096,-4.0096,-4.0096,-4.0096,-4.0096,-4.0096,-4.0096,-4.0096,-4.0096,-4.0096,-4.0096,-4.0096,-4.0096,-4.0096,-4.0096,-4.0103,-4.0273,-4.0654,-4.0683,-4.0677,-4.0677,-4.0308,-4.0096,-4.011,-4.0112,-4.0096,-4.0096,-4.0096,-4.0096,-4.0096,-4.0096,-4.0096,-4.0096,-4.0096,-4.0096,-4.0096,-4.0096,-4.0096,-4.0096,-4.0096,-4.0096,-4.0096,-4.0096,-4.0096,-4.0096,-4.0096,-4.0096,-4.0096,-4.0096,-4.0096,-4.0096,-4.0096,-4.0096,-4.0096,-4.0096,-4.0096,-4.0096,-4.0096,-4.0096,-4.0096,-4.0096,-4.0096,-4.0096,-4.0096,-4.0096,-4.0096,-4.0096,-4.0096,-4.0096,-4.0096,-4.0096,-4.0121,-4.0229,-4.0254,-4.0594,-4.1643,-4.1468,-4.1578,-4.2577,-4.2324,-4.2304,-4.2789,-4.2845,-4.3014,-4.348,-4.3515,-4.3515,-4.3515,-4.3515,-4.3515,-4.3515,-4.3515,-4.3515,-4.3515,-4.3515,-4.3515,-4.3515,-4.3515,-4.3515,-4.3515,-4.3515,-4.3515,-4.3515,-4.3515,-4.3515,-4.3515,-4.3515,-4.3515,-4.3515,-4.3515,-4.3515,-4.3515,-4.3515,-4.3515,-4.3515,-4.0096,-4.0096,-4.0096,-4.0096,-4.0096,-4.0096,-4.0096,-4.0096,-4.0096,-4.0096,-4.0096,-4.0096,-4.0096,-4.0096,-4.0096,-4.0096,-4.0099,-4.0937,-4.29,-4.305,-4.3038,-4.3038,-4.1143,-4.0106,-4.0105,-4.0099,-4.0096,-4.0096,-4.0096,-4.0096,-4.0096,-4.0096,-4.0096,-4.0096,-4.0096,-4.0096,-4.0096,-4.0096,-4.0096,-4.0096,-4.0096,-4.0096,-4.0096,-4.0096,-4.0096,-4.0096,-4.0096,-4.0096,-4.0096,-4.0096,-4.0096,-4.0096,-4.0096,-4.0096,-4.0096,-4.0096,-4.0096,-4.0096,-4.0096,-4.0096,-4.0096,-4.0096,-4.0096,-4.0096,-4.0096,-4.0096,-4.0096,-4.0096,-4.0096,-4.0096,-4.0096,-4.0096,-4.0237,-4.0726,-4.0803,-4.1036,-4.1707,-4.2183,-4.2519,-4.2674,-4.305,-4.3303,-4.3392,-4.3392,-4.3427,-4.3479,-4.3515,-4.3515,-4.3515,-4.3515,-4.3515,-4.3515,-4.3515,-4.3515,-4.3515,-4.3515,-4.3515,-4.3515,-4.3515,-4.3515,-4.3515,-4.3515,-4.3515,-4.3515,-4.3515,-4.3515,-4.3515,-4.3515,-4.3515,-4.3515,-4.3515,-4.3515,-4.3515,-4.3515,-4.3515,-4.3515,-4.0096,-4.0096,-4.0096,-4.0096,-4.0096,-4.0096,-4.0096,-4.0096,-4.0096,-4.0096,-4.0096,-4.0096,-4.0096,-4.0096,-4.0119,-4.0099,-4.0098,-4.1051,-4.3354,-4.3494,-4.3508,-4.3508,-4.1927,-4.0755,-4.0118,-4.0114,-4.0096,-4.0096,-4.0096,-4.0096,-4.0096,-4.0096,-4.0096,-4.0096,-4.0096,-4.0096,-4.0096,-4.0096,-4.0096,-4.0096,-4.0096,-4.0096,-4.0096,-4.0096,-4.0096,-4.0096,-4.0096,-4.0096,-4.0096,-4.0096,-4.0096,-4.0096,-4.0096,-4.0096,-4.0096,-4.0096,-4.0096,-4.0096,-4.0096,-4.0096,-4.0096,-4.0096,-4.0096,-4.0096,-4.0096,-4.0096,-4.0096,-4.0096,-4.0096,-4.0096,-4.0096,-4.0451,-4.0755,-4.0873,-4.1261,-4.1747,-4.2234,-4.2519,-4.2807,-4.3105,-4.3357,-4.3515,-4.3515,-4.3515,-4.3515,-4.3515,-4.3515,-4.3515,-4.3515,-4.3515,-4.3515,-4.3515,-4.3515,-4.3515,-4.3515,-4.3515,-4.3515,-4.3515,-4.3515,-4.3515,-4.3515,-4.3515,-4.3515,-4.3515,-4.3515,-4.3515,-4.3515,-4.3515,-4.3515,-4.3515,-4.3515,-4.3515,-4.3515,-4.3515,-4.3515,-4.3515]},{"header":{"parameterUnit":"m.s-1","parameterCategory":1,"la1":30.6,"la2":28.766,"lo1":-90.7593,"lo2":-88.6598,"dy":0.0162,"dx":0.0183,"nx":116,"ny":114,"refTime":"2023-03-31T12:00:00:Z","depth":0,"parameterNumber":3,"parameterNumberName":"V-component_of_WINDS"},"data":[0.0,0.0,0.0,0.0,0.0,0.0,0.0,0.0,0.0,0.0,0.0,0.0,0.0,0.0,0.0,0.0,0.0,0.0,0.0,0.0,0.0,0.0,0.0,0.0,0.0,0.0,0.0,0.0,0.0,0.0,0.0,0.0,0.0,0.0,0.0,0.0,0.0,0.0,0.0,0.0,0.0,0.0,0.0,0.0,0.0,0.0,0.0,0.0,0.0,0.0,0.0,0.0,0.0,0.0,0.0,0.0,0.0,0.0,0.0,0.0,0.0,0.0,0.0,0.0,0.0,0.0,0.0,0.0,0.0,0.0,0.0,0.0,0.0,0.0,0.0,0.0,0.0,0.0,0.0,0.0,0.0,0.0,0.0,0.0,0.0,0.0,0.0,0.0,0.0,0.0,0.0,0.0,0.0,0.0,0.0,0.0,0.0,0.0,0.0,0.0,0.0,0.0,0.0,0.0,0.0,0.0,0.0,0.0,0.0,0.0,0.0,0.0,0.0,0.0,0.0,0.0,0.0,0.0,0.0,0.0,0.0,0.0,0.0,0.0,0.0,0.0,0.0,0.0,0.0,0.0,0.0,0.0,0.0,0.0,0.0,0.0,0.0,0.0,0.0,0.0,0.0,0.0,0.0,0.0,0.0,0.0,0.0,0.0,0.0,0.0,0.0,0.0,0.0,0.0,0.0,0.0,0.0,0.0,0.0,0.0,0.0,0.0,0.0,0.0,0.0,0.0,0.0,0.0,0.0,0.0,0.0,0.0,0.0,0.0,0.0,0.0,0.0,0.0,0.0,0.0,0.0,0.0,0.0,0.0,0.0,0.0,0.0,0.0,0.0,0.0,0.0,0.0,0.0,0.0,0.0,0.0,0.0,0.0,0.0,0.0,0.0,0.0,0.0,0.0,0.0,0.0,0.0,0.0,0.0,0.0,0.0,0.0,0.0,0.0,0.0,0.0,0.0,0.0,0.0,0.0,0.0,0.0,0.0,0.0,0.0,0.0,0.0,0.0,0.0,0.0,0.0,0.0,0.0,0.0,0.0,0.0,0.0,0.0,0.0,0.0,0.0,0.0,0.0,0.0,0.0,0.0,0.0,0.0,0.0,0.0,0.0,0.0,0.0,0.0,0.0,0.0,0.0,0.0,0.0,0.0,0.0,0.0,0.0,0.0,0.0,0.0,0.0,0.0,0.0,0.0,0.0,0.0,0.0,0.0,0.0,0.0,0.0,0.0,0.0,0.0,0.0,0.0,0.0,0.0,0.0,0.0,0.0,0.0,0.0,0.0,0.0,0.0,0.0,0.0,0.0,0.0,0.0,0.0,0.0,0.0,0.0,0.0,0.0,0.0,0.0,0.0,0.0,0.0,0.0,0.0,0.0,0.0,0.0,0.0,0.0,0.0,0.0,0.0,0.0,0.0,0.0,0.0,0.0,0.0,0.0,0.0,0.0,0.0,0.0,0.0,0.0,0.0,0.0,0.0,0.0,0.0,0.0,0.0,0.0,0.0,0.0,0.0,0.0,0.0,0.0,0.0,0.0,0.0,0.0,0.0,0.0,0.0,0.0,0.0,0.0,0.0,0.0,0.0,0.0,0.0,0.0,0.0,0.0,0.0,0.0,0.0,0.0,0.0,0.0,0.0,0.0,0.0,0.0,0.0,0.0,0.0,0.0,0.0,0.0,0.0,0.0,0.0,0.0,0.0,0.0,0.0,0.0,0.0,0.0,0.0,0.0,0.0,0.0,0.0,0.0,0.0,0.0,0.0,0.0,0.0,0.0,0.0,0.0,0.0,0.0,0.0,0.0,0.0,0.0,0.0,0.0,0.0,0.0,0.0,0.0,0.0,0.0,0.0,0.0,0.0,0.0,0.0,0.0,0.0,0.0,0.0,0.0,0.0,0.0,0.0,0.0,0.0,0.0,0.0,0.0,0.0,0.0,0.0,0.0,0.0,0.0,0.0,0.0,0.0,0.0,0.0,0.0,0.0,0.0,0.0,0.0,0.0,0.0,0.0,0.0,0.0,0.0,0.0,0.0,0.0,0.0,0.0,0.0,0.0,0.0,0.0,0.0,0.0,0.0,0.0,0.0,0.0,0.0,0.0,0.0,0.0,0.0,0.0,0.0,0.0,0.0,0.0,0.0,0.0,0.0,0.0,0.0,0.0,0.0,0.0,0.0,0.0,0.0,0.0,0.0,0.0,0.0,0.0,0.0,0.0,0.0,0.0,0.0,0.0,0.0,0.0,0.0,0.0,0.0,0.0,0.0,0.0,0.0,0.0,0.0,0.0,0.0,0.0,0.0,0.0,0.0,0.0,0.0,0.0,0.0,0.0,0.0,0.0,0.0,0.0,0.0,0.0,0.0,0.0,0.0,0.0,0.0,0.0,0.0,0.0,0.0,0.0,0.0,0.0,0.0,0.0,0.0,0.0,0.0,0.0,0.0,0.0,0.0,0.0,0.0,0.0,0.0,0.0,0.0,0.0,0.0,0.0,0.0,0.0,0.0,0.0,0.0,0.0,0.0,0.0,0.0,0.0,0.0,0.0,0.0,0.0,0.0,0.0,0.0,0.0,0.0,0.0,0.0,0.0,0.0,0.0,0.0,0.0,0.0,0.0,0.0,0.0,0.0,0.0,0.0,0.0,0.0,0.0,0.0,0.0,0.0,0.0,0.0,0.0,0.0,0.0,0.0,0.0,0.0,0.0,0.0,0.0,0.0,0.0,0.0,0.0,0.0,0.0,0.0,0.0,0.0,0.0,0.0,0.0,0.0,0.0,0.0,0.0,0.0,0.0,0.0,0.0,0.0,0.0,0.0,0.0,0.0,0.0,0.0,0.0,0.0,0.0,0.0,0.0,0.0,0.0,0.0,0.0,0.0,0.0,0.0,0.0,0.0,0.0,0.0,0.0,0.0,0.0,0.0,0.0,0.0,0.0,0.0,0.0,0.0,0.0,0.0,0.0,0.0,0.0,0.0,0.0,0.0,0.0,0.0,0.0,0.0,0.0,0.0,0.0,0.0,0.0,0.0,0.0,0.0,0.0,0.0,0.0,0.0,0.0,0.0,0.0,0.0,0.0,0.0,0.0,0.0,0.0,0.0,0.0,0.0,0.0,0.0,0.0,0.0,0.0,0.0,0.0,0.0,0.0,0.0,0.0,0.0,0.0,0.0,0.0,0.0,0.0,0.0,0.0,0.0,0.0,0.0,0.0,0.0,0.0,0.0,0.0,0.0,0.0,0.0,0.0,0.0,0.0,0.0,0.0,0.0,0.0,0.0,0.0,0.0,0.0,0.0,0.0,0.0,0.0,0.0,0.0,0.0,0.0,0.0,0.0,0.0,0.0,0.0,0.0,0.0,0.0,0.0,0.0,0.0,0.0,0.0,0.0,0.0,0.0,0.0,0.0,0.0,0.0,0.0,0.0,0.0,0.0,0.0,0.0,0.0,0.0,0.0,0.0,0.0,0.0,0.0,0.0,0.0,0.0,0.0,0.0,0.0,0.0,0.0,0.0,0.0,0.0,0.0,0.0,0.0,0.0,0.0,0.0,0.0,0.0,0.0,0.0,0.0,0.0,0.0,0.0,0.0,0.0,0.0,0.0,0.0,0.0,0.0,0.0,0.0,0.0,0.0,0.0,0.0,0.0,0.0,0.0,0.0,0.0,0.0,0.0,0.0,0.0,0.0,0.0,0.0,0.0,0.0,0.0,0.0,0.0,0.0,0.0,0.0,0.0,0.0,0.0,0.0,0.0,0.0,0.0,0.0,0.0,0.0,0.0,0.0,0.0,0.0,0.0,0.0,0.0,0.0,0.0,0.0,0.0,0.0,0.0,0.0,0.0,0.0,0.0,0.0,0.0,0.0,0.0,0.0,0.0,0.0,0.0,0.0,0.0,0.0,0.0,0.0,0.0,0.0,0.0,0.0,0.0,0.0,0.0,0.0,0.0,0.0,0.0,0.0,0.0,0.0,0.0,0.0,0.0,0.0,0.0,0.0,0.0,0.0,0.0,0.0,0.0,0.0,0.0,0.0,0.0,0.0,0.0,0.0,0.0,0.0,0.0,0.0,0.0,0.0,0.0,0.0,0.0,0.0,0.0,0.0,0.0,0.0,0.0,0.0,0.0,0.0,0.0,0.0,0.0,0.0,0.0,0.0,0.0,0.0,0.0,0.0,0.0,0.0,0.0,0.0,0.0,0.0,0.0,0.0,0.0,0.0,0.0,0.0,0.0,0.0,0.0,0.0,0.0,0.0,0.0,0.0,0.0,0.0,0.0,0.0,0.0,0.0,0.0,0.0,0.0,0.0,0.0,0.0,0.0,0.0,0.0,0.0,0.0,0.0,0.0,0.0,0.0,0.0,0.0,0.0,0.0,0.0,0.0,0.0,0.0,0.0,0.0,0.0,0.0,0.0,0.0,0.0,0.0,0.0,0.0,0.0,0.0,0.0,0.0,0.0,0.0,0.0,0.0,0.0,0.0,0.0,0.0,0.0,0.0,0.0,0.0,0.0,0.0,0.0,0.0,0.0,0.0,0.0,0.0,0.0,0.0,0.0,0.0,0.0,0.0,0.0,0.0,0.0,0.0,0.0,0.0,0.0,0.0,0.0,0.0,0.0,0.0,0.0,0.0,0.0,0.0,0.0,0.0,0.0,0.0,0.0,0.0,0.0,0.0,0.0,0.0,0.0,0.0,0.0,0.0,0.0,0.0,0.0,0.0,0.0,0.0,0.0,0.0,0.0,0.0,0.0,0.0,0.0,0.0,0.0,0.0,0.0,0.0,0.0,0.0,0.0,0.0,0.0,0.0,0.0,0.0,0.0,0.0,0.0,0.0,0.0,0.0,0.0,0.0,0.0,0.0,0.0,0.0,0.0,0.0,0.0,0.0,0.0,0.0,0.0,0.0,0.0,0.0,0.0,0.0,0.0,0.0,0.0,0.0,0.0,0.0,0.0,0.0,0.0,0.0,0.0,0.0,0.0,0.0,0.0,0.0,0.0,0.0,0.0,0.0,0.0,0.0,0.0,0.0,0.0,0.0,0.0,0.0,0.0,0.0,0.0,0.0,0.0,0.0,0.0,0.0,0.0,0.0,0.0,0.0,0.0,0.0,0.0,0.0,0.0,0.0,0.0,0.0,0.0,0.0,0.0,0.0,0.0,0.0,0.0,0.0,0.0,0.0,0.0,0.0,0.0,0.0,0.0,0.0,0.0,0.0,0.0,0.0,0.0,0.0,0.0,0.0,0.0,0.0,0.0,0.0,0.0,0.0,0.0,0.0,0.0,0.0,0.0,0.0,0.0,0.0,0.0,0.0,0.0,0.0,0.0,0.0,0.0,0.0,0.0,0.0,0.0,0.0,0.0,0.0,0.0,0.0,0.0,0.0,0.0,0.0,0.0,0.0,0.0,0.0,0.0,0.0,0.0,0.0,0.0,0.0,0.0,0.0,0.0,0.0,0.0,0.0,0.0,0.0,0.0,0.0,0.0,0.0,0.0,0.0,0.0,0.0,0.0,0.0,0.0,0.0,0.0,0.0,0.0,0.0,0.0,0.0,0.0,0.0,0.0,0.0,0.0,0.0,0.0,0.0,0.0,0.0,0.0,0.0,0.0,0.0,0.0,0.0,0.0,0.0,0.0,0.0,0.0,0.0,0.0,0.0,0.0,0.0,0.0,0.0,0.0,0.0,0.0,0.0,0.0,0.0,0.0,0.0,0.0,0.0,0.0,0.0,0.0,0.0,0.0,0.0,0.0,0.0,0.0,0.0,0.0,0.0,0.0,0.0,0.0,0.0,0.0,0.0,0.0,0.0,0.0,0.0,0.0,0.0,0.0,0.0,0.0,0.0,0.0,0.0,0.0,0.0,0.0,0.0,0.0,0.0,0.0,0.0,0.0,0.0,0.0,0.0,0.0,0.0,0.0,0.0,0.0,0.0,0.0,0.0,0.0,0.0,0.0,0.0,0.0,0.0,0.0,0.0,0.0,0.0,0.0,0.0,0.0,0.0,0.0,0.0,0.0,0.0,0.0,0.0,0.0,0.0,0.0,0.0,0.0,0.0,0.0,0.0,0.0,0.0,0.0,0.0,0.0,0.0,0.0,0.0,0.0,0.0,0.0,0.0,-3.2579,0.0,0.0,0.0,0.0,0.0,0.0,0.0,0.0,0.0,0.0,0.0,0.0,0.0,0.0,0.0,0.0,0.0,0.0,0.0,0.0,0.0,0.0,0.0,0.0,0.0,0.0,0.0,0.0,0.0,0.0,0.0,0.0,0.0,0.0,0.0,0.0,0.0,0.0,0.0,-4.2355,-4.1258,-3.9499,-3.9784,-3.9439,-3.8616,0.0,0.0,0.0,0.0,0.0,0.0,0.0,0.0,0.0,0.0,0.0,0.0,0.0,0.0,0.0,0.0,0.0,0.0,0.0,0.0,0.0,0.0,0.0,0.0,0.0,0.0,0.0,0.0,0.0,0.0,0.0,0.0,0.0,0.0,0.0,0.0,0.0,0.0,0.0,0.0,0.0,0.0,0.0,0.0,0.0,0.0,0.0,0.0,0.0,0.0,0.0,0.0,0.0,0.0,0.0,0.0,0.0,0.0,0.0,0.0,0.0,0.0,0.0,0.0,0.0,0.0,0.0,0.0,0.0,0.0,0.0,-3.3093,0.0,0.0,0.0,0.0,0.0,0.0,0.0,0.0,0.0,0.0,0.0,0.0,0.0,0.0,0.0,0.0,0.0,0.0,0.0,0.0,0.0,0.0,0.0,0.0,-3.9388,-3.9388,-3.9388,-3.9445,0.0,0.0,0.0,0.0,0.0,0.0,0.0,-4.3568,-4.3212,-4.2124,-4.2227,-4.1276,-3.9303,-3.9081,-3.7819,-3.5819,-3.7601,0.0,0.0,0.0,0.0,0.0,0.0,0.0,0.0,0.0,0.0,0.0,0.0,0.0,0.0,0.0,0.0,0.0,0.0,0.0,0.0,0.0,0.0,0.0,0.0,0.0,0.0,0.0,0.0,0.0,0.0,0.0,0.0,0.0,0.0,0.0,0.0,0.0,0.0,0.0,0.0,0.0,0.0,0.0,0.0,0.0,0.0,0.0,0.0,0.0,0.0,0.0,0.0,0.0,0.0,0.0,0.0,0.0,0.0,0.0,0.0,0.0,0.0,0.0,-3.2629,-3.3181,-3.369,-3.369,-3.3432,-3.3169,-3.4781,-3.4668,-3.3395,0.0,0.0,0.0,0.0,0.0,0.0,0.0,0.0,0.0,0.0,0.0,0.0,0.0,0.0,0.0,0.0,0.0,0.0,0.0,0.0,0.0,0.0,-3.9388,-3.9388,-3.9388,-3.9388,-3.9737,0.0,0.0,0.0,0.0,0.0,0.0,-4.4204,-4.2928,-4.2764,-4.3763,-4.0862,-3.899,-3.8102,-3.7501,-3.7055,-3.6759,-3.79,-3.8781,-3.9394,0.0,0.0,0.0,0.0,0.0,0.0,0.0,0.0,0.0,0.0,0.0,0.0,0.0,0.0,0.0,0.0,0.0,0.0,0.0,0.0,0.0,0.0,0.0,0.0,0.0,0.0,0.0,0.0,0.0,0.0,0.0,0.0,0.0,0.0,0.0,0.0,0.0,0.0,0.0,0.0,0.0,-3.338,-3.4437,0.0,0.0,0.0,0.0,0.0,0.0,0.0,0.0,0.0,0.0,0.0,0.0,0.0,0.0,-3.2528,-3.3771,-3.4304,-3.4299,-3.5328,-3.5902,-3.5977,-3.5977,-3.6204,-3.6496,-3.5784,0.0,-3.4474,-3.406,0.0,0.0,0.0,0.0,0.0,0.0,0.0,0.0,0.0,0.0,0.0,0.0,0.0,0.0,0.0,0.0,0.0,0.0,0.0,0.0,0.0,-3.9753,-3.9963,-3.9963,-4.0943,-4.1489,-4.1303,-4.2275,0.0,0.0,0.0,-4.3175,-4.3005,-4.1562,-4.0926,-4.1134,-3.9628,-3.8979,-3.9117,-3.8298,-3.8181,-3.8614,-3.8093,-3.8311,-3.9034,-3.8731,0.0,0.0,0.0,0.0,0.0,0.0,0.0,0.0,0.0,0.0,0.0,0.0,0.0,0.0,0.0,0.0,0.0,0.0,0.0,0.0,0.0,0.0,0.0,0.0,0.0,0.0,0.0,0.0,0.0,0.0,0.0,0.0,0.0,0.0,0.0,0.0,0.0,0.0,0.0,-3.4961,-3.5474,-3.455,-3.5996,-3.6603,0.0,0.0,0.0,0.0,0.0,0.0,0.0,0.0,0.0,-3.3124,-3.3985,-3.401,-3.3124,-3.4801,-3.5667,-3.568,-3.6458,-3.6985,-3.7299,-3.7674,-3.7951,-3.8115,-3.7952,-3.7563,-3.6935,-3.5441,-3.5064,-3.524,0.0,0.0,0.0,0.0,-3.1637,-3.2767,0.0,0.0,0.0,0.0,0.0,0.0,0.0,0.0,0.0,0.0,0.0,0.0,-3.9664,-4.0412,-4.0905,-4.0905,-4.2087,-4.2599,-4.2011,-4.272,0.0,0.0,-4.207,-4.1964,-4.1406,-4.0583,-3.993,-3.943,-3.9648,-4.0176,-4.0929,-4.0234,-4.0142,-4.0506,-3.9404,-3.8853,-3.8757,-3.8337,-3.8504,-3.8984,0.0,0.0,0.0,0.0,0.0,0.0,0.0,0.0,0.0,0.0,0.0,0.0,0.0,0.0,0.0,0.0,0.0,0.0,0.0,0.0,0.0,0.0,0.0,0.0,0.0,0.0,0.0,0.0,0.0,0.0,0.0,0.0,0.0,0.0,0.0,0.0,0.0,-3.5685,-3.6002,-3.4142,-3.5114,-3.5679,0.0,0.0,0.0,0.0,0.0,0.0,-3.3715,-3.4236,-3.4412,-3.418,-3.5328,-3.5441,-3.4349,-3.6132,-3.7036,-3.7048,-3.7575,-3.8115,-3.8655,-3.8944,-3.9157,-3.9308,-3.9584,-3.9459,-3.8931,-3.6985,-3.6019,-3.5692,-3.47,-3.4236,-3.4054,-3.3006,-3.3445,-3.4512,0.0,0.0,0.0,0.0,0.0,0.0,0.0,0.0,0.0,0.0,0.0,-4.0352,-4.0352,-4.1527,-4.2306,-4.2306,-4.1826,-4.1843,-4.2689,-4.2347,-4.1832,-4.1268,-4.1915,-4.1563,-4.0028,-4.0606,-4.0996,-4.1082,-4.1797,-4.251,-4.3219,-4.3198,-4.2774,-4.2127,-4.2728,-4.1414,-3.86,-3.7198,-3.6948,-3.7518,-3.7464,0.0,0.0,0.0,0.0,0.0,0.0,0.0,0.0,0.0,0.0,0.0,0.0,0.0,0.0,0.0,0.0,0.0,0.0,0.0,0.0,0.0,0.0,0.0,0.0,0.0,0.0,0.0,0.0,0.0,0.0,0.0,0.0,0.0,0.0,0.0,0.0,0.0,0.0,-3.2934,-3.4071,0.0,0.0,0.0,0.0,-3.3726,-3.4285,-3.4884,-3.5345,-3.5968,-3.6496,-3.696,-3.7061,-3.7312,-3.7751,-3.8417,-3.8793,-3.8806,-3.9308,-3.986,-4.0375,-3.9873,-3.9936,-4.0413,-3.991,-3.9672,-3.9559,-3.8366,-3.8191,-3.8442,-3.6307,-3.6081,-3.6722,-3.46,-3.4839,-3.6204,0.0,0.0,0.0,0.0,0.0,0.0,0.0,0.0,-3.9903,-3.9448,-4.0367,-4.1025,-4.1025,-4.2581,-4.3614,-4.3614,-4.4304,-4.4511,-4.3987,-4.4449,-4.3557,-4.0992,-4.1339,-4.0418,-3.7972,-4.0486,-4.1171,-3.9842,-4.1963,-4.2885,-4.2641,-4.2545,-4.2592,-4.267,-4.1812,-4.1376,-4.1167,-3.9351,-3.8417,-3.8149,-3.7594,-3.7315,0.0,0.0,0.0,0.0,0.0,0.0,0.0,0.0,0.0,0.0,0.0,0.0,0.0,0.0,0.0,0.0,0.0,0.0,0.0,0.0,0.0,0.0,0.0,0.0,0.0,0.0,0.0,0.0,0.0,0.0,0.0,0.0,0.0,0.0,0.0,0.0,0.0,-3.4489,-3.5572,0.0,-3.6035,-3.5921,-3.5858,-3.5817,-3.5794,-3.6019,-3.6571,-3.6797,-3.7324,-3.8241,-3.8266,-3.853,-3.9082,-3.9295,-3.9396,-3.9408,-3.9961,-4.0136,-3.9986,-4.0149,-4.0325,-4.0488,-3.9936,-4.0099,-4.0701,-3.9936,-3.932,-3.8768,-3.7199,-3.6442,-3.628,-3.6088,-3.6268,-3.672,0.0,0.0,0.0,0.0,0.0,0.0,0.0,0.0,-3.9993,-3.9783,-4.0891,-4.1788,-4.2013,-4.3808,-4.5098,-4.546,-4.5474,-4.518,-4.4476,-4.4172,-4.2509,-3.9172,-3.9465,-3.9373,-3.8675,-4.0798,-4.146,-4.0507,-4.2183,-4.27,-4.2146,-4.2027,-4.2219,-4.2521,-4.1372,-4.1495,-4.2521,-4.0928,-3.9749,-3.8806,-3.803,-3.736,-3.6757,0.0,0.0,0.0,0.0,0.0,0.0,0.0,0.0,0.0,0.0,0.0,0.0,0.0,0.0,0.0,0.0,0.0,0.0,0.0,0.0,0.0,0.0,0.0,0.0,0.0,0.0,0.0,0.0,0.0,0.0,0.0,0.0,0.0,0.0,0.0,-3.6655,-3.6205,-3.6632,-3.702,-3.7315,-3.6769,-3.6523,-3.6793,-3.7086,-3.7423,-3.7726,-3.7927,-3.8379,-3.9132,-3.9333,-3.9597,-3.9973,-4.0162,-4.0162,-3.9973,-4.0337,-4.0425,-4.0262,-4.0438,-4.0413,-4.0237,-4.0249,-4.035,-4.0526,-4.0714,-4.0022,-3.8834,-3.8056,-3.6976,-3.5934,-3.6721,-3.6882,-3.6823,0.0,0.0,0.0,0.0,0.0,0.0,0.0,-3.8931,-3.9574,-4.0202,-4.1527,-4.2635,-4.3234,-4.511,-4.6713,-4.7698,-4.5035,-4.3528,-4.4007,-4.1308,-3.8529,-3.589,-3.6453,-3.8533,-4.2142,-4.159,-4.1915,-4.3273,-4.2568,-4.2148,-4.1997,-4.2013,-4.192,-4.1716,-4.1716,-4.1967,-4.2396,-4.1752,-4.0696,-3.9454,-3.8721,-3.8018,-3.7302,0.0,0.0,0.0,0.0,0.0,0.0,0.0,0.0,0.0,0.0,0.0,0.0,0.0,0.0,0.0,0.0,0.0,0.0,0.0,0.0,0.0,0.0,0.0,0.0,0.0,0.0,0.0,0.0,0.0,0.0,0.0,0.0,0.0,-3.6285,-3.6823,-3.7277,-3.7717,-3.7007,-3.6505,-3.6505,-3.6496,-3.6496,-3.6518,-3.8026,-3.8944,-3.8944,-3.9371,-3.9647,-3.9647,-4.0162,-4.045,-4.0463,-4.0974,-4.1,-4.0538,-4.0563,-4.084,-4.1263,-4.0802,-4.0275,-3.9823,-4.0877,-4.045,-3.912,-4.0636,-4.0293,-3.8832,-3.8876,-3.7657,-3.5893,-3.6361,-3.6539,-3.6528,0.0,0.0,0.0,0.0,0.0,0.0,0.0,-3.7838,-3.7868,-3.7599,-4.0404,-4.2568,-4.2959,-4.542,-4.7211,-4.7729,-4.5218,-4.3376,-4.2882,-4.0554,-3.8615,-3.7363,-3.7532,-3.861,-4.0644,-4.2038,-4.2655,-4.2499,-4.2679,-4.2443,-4.1794,-4.2259,-4.2386,-4.2206,-4.2206,-4.2537,-4.3045,-4.288,-4.2312,-4.1452,-3.9798,-3.8437,-3.737,0.0,0.0,0.0,0.0,0.0,0.0,0.0,0.0,0.0,0.0,0.0,0.0,0.0,0.0,0.0,0.0,0.0,0.0,0.0,0.0,0.0,0.0,0.0,0.0,0.0,0.0,0.0,0.0,0.0,0.0,0.0,0.0,-3.509,-3.5063,-3.6449,-3.7435,-3.7384,-3.8225,-3.8781,-3.8781,-3.8781,-3.8781,-3.8781,-3.9207,-3.9471,-3.9471,-3.8831,-3.8467,-3.8467,-3.8617,-3.8906,-3.932,-4.0275,-4.0811,-4.1062,-4.1517,-4.158,-4.13,-4.1593,-4.1672,-4.1521,-4.1379,-4.153,-4.1764,-4.0318,-3.8788,-3.753,-3.8197,-3.6789,-3.4397,-3.5323,-3.5636,-3.5591,0.0,0.0,0.0,0.0,0.0,0.0,0.0,-3.724,-3.7282,-3.692,-3.9881,-4.2032,-4.2201,-4.4839,-4.6697,-4.6957,-4.4976,-4.3061,-4.1518,-3.906,-3.8141,-3.9235,-3.906,-3.9834,-4.1824,-4.2749,-4.2943,-4.2398,-4.272,-4.2427,-4.1565,-4.1961,-4.225,-4.241,-4.2641,-4.3135,-4.3723,-4.4032,-4.3943,-4.3504,-4.2043,-4.0337,-3.8631,-3.8347,-3.8197,-3.8138,-3.8212,-3.8424,-3.8465,-3.7352,0.0,0.0,0.0,0.0,0.0,0.0,0.0,0.0,0.0,0.0,0.0,0.0,0.0,0.0,0.0,0.0,0.0,0.0,0.0,0.0,0.0,0.0,0.0,0.0,-3.5587,-3.5908,-3.5974,-3.7034,-3.7891,-3.819,-3.9094,-3.9697,-3.9697,-3.9697,-3.9697,-3.9697,-3.9697,-3.9697,-3.9697,-3.9295,-3.873,-3.8027,-3.9132,-3.9572,-3.922,-4.0764,-4.1593,-4.1681,-4.2049,-4.2049,-4.1693,-4.2062,-4.1961,0.0,-4.1856,-4.1586,-4.0857,-3.9886,-3.8204,0.0,0.0,0.0,0.0,0.0,-3.401,-3.3925,0.0,0.0,0.0,0.0,0.0,0.0,0.0,-3.6836,-3.7158,-3.7084,-3.9471,-4.1143,-4.106,-4.3565,-4.5311,-4.5523,-4.4072,-4.2077,-3.9665,-3.7022,-3.7143,-4.0668,-4.0395,-4.1387,-4.3979,-4.3381,-4.2944,-4.2695,-4.2664,-4.2251,-4.1527,-4.1564,-4.1908,-4.253,-4.3075,-4.3663,-4.4347,-4.493,-4.5229,-4.5244,-4.4661,-4.294,-4.0651,-4.0008,-4.0068,-4.0427,-3.9843,-3.9349,-3.8916,-3.8691,0.0,0.0,0.0,0.0,0.0,0.0,0.0,0.0,0.0,0.0,0.0,0.0,0.0,0.0,0.0,0.0,0.0,0.0,0.0,0.0,0.0,0.0,0.0,0.0,-3.6221,-3.727,-3.8239,-3.8379,-3.8705,-3.9584,-3.9697,-3.9697,-3.9697,-3.9697,-3.9697,-3.9697,-3.9697,-3.9722,-3.9785,0.0,0.0,0.0,0.0,-4.1194,-3.9798,-4.1844,-4.2728,-4.2301,-4.2301,-4.2301,-4.2301,-4.2301,-4.1735,-4.0789,-4.2143,-4.1004,-3.8271,-3.9063,-3.7546,-3.4807,-3.4807,-3.3424,-3.1484,-3.1768,-3.1994,-3.2012,0.0,0.0,0.0,0.0,0.0,0.0,0.0,-3.5789,-3.5657,-3.5127,-3.7803,-3.9697,-3.9455,-4.158,-4.3153,-4.3464,-4.099,-3.858,-3.6564,-3.5033,-3.545,-3.8328,-3.9476,-4.0768,-4.2318,-4.2629,-4.2755,-4.2695,-4.2545,-4.2393,-4.2231,-4.2701,-4.2991,-4.315,-4.3245,-4.3663,-4.4332,-4.4451,-4.4811,-4.5289,-4.5155,-4.4167,-4.2647,-4.2043,-4.1572,-4.1175,-4.1055,-4.1594,-4.2094,-4.0546,-4.0202,-4.0247,-3.9185,-3.7467,0.0,0.0,0.0,0.0,0.0,0.0,0.0,0.0,0.0,0.0,0.0,0.0,0.0,0.0,0.0,0.0,0.0,0.0,0.0,-3.7601,-3.8212,-3.9007,-4.0463,-4.0648,-4.045,-3.9772,-3.9697,-3.9697,-3.9697,-3.9697,-3.9697,-3.9697,-3.9697,-3.9885,-4.0337,-3.917,0.0,-3.9346,-3.9459,-3.9785,-4.035,-4.1656,-4.2539,-4.2879,0.0,0.0,-4.2879,-4.2879,-4.2514,-4.1815,-4.1286,-4.0233,-3.8714,-3.6502,-3.425,-3.2217,-3.2217,-3.1732,-3.0937,-3.0303,-3.0527,-3.1035,0.0,0.0,0.0,0.0,0.0,0.0,0.0,-3.5504,-3.5259,-3.4531,-3.7037,-3.8967,-3.9133,-4.0581,-4.1727,-4.212,-3.8948,-3.7142,-3.7665,-3.648,-3.6995,-3.9768,-4.0918,-4.1899,-4.2786,-4.3049,-4.3119,-4.2986,-4.2904,-4.2851,-4.2865,-4.314,-4.329,-4.3305,-4.3633,-4.4182,-4.4825,-4.517,-4.5693,-4.6307,-4.6307,-4.5903,-4.5214,-4.4212,-4.3838,-4.3808,-4.3464,-4.3329,-4.2956,-4.0811,-3.9853,-3.9241,-3.7407,-3.6265,-3.5573,0.0,0.0,0.0,0.0,0.0,0.0,0.0,0.0,0.0,0.0,0.0,0.0,0.0,0.0,-3.6167,0.0,0.0,-3.7061,-3.8363,-3.8743,-3.9446,-4.105,-4.1288,-4.0974,-4.0212,-4.035,-4.03,-3.9747,-3.9936,-3.9986,-3.9722,-3.9697,-3.9936,-4.0488,-3.9986,-3.9685,-3.9697,-4.0488,-4.0802,-4.0513,-4.1882,-4.2698,-4.2974,-4.2974,-4.2974,-4.2974,-4.2137,-4.1638,-4.1325,-3.9741,-3.8331,-3.6943,-3.4118,-3.2314,-3.1201,-3.1201,-3.1201,-3.1123,-3.0469,-3.0518,-3.083,0.0,0.0,0.0,0.0,0.0,0.0,0.0,0.0,-3.5292,-3.4698,-3.663,-3.8166,-3.8525,-3.9468,-4.0124,-4.0231,-3.721,-3.6424,-3.9033,-3.8167,-3.8808,-4.1626,-4.251,-4.3104,-4.3427,-4.3543,-4.3579,-4.3484,-4.3484,-4.3544,-4.3678,-4.3544,-4.3544,-4.3693,-4.4137,-4.4751,-4.5529,-4.6082,-4.6711,-4.7309,-4.7309,-4.7164,-4.6812,-4.5728,-4.5654,-4.604,-4.549,-4.4177,-4.2357,-4.0481,-3.8788,-3.7082,-3.5121,-3.5079,-3.5429,-3.3829,-3.3856,0.0,0.0,0.0,0.0,0.0,0.0,0.0,0.0,0.0,-3.6099,-3.5872,-3.6884,-3.7779,-3.7843,-3.8107,-3.8475,-3.8971,-3.9333,-4.0011,-4.1455,-4.1601,-4.1417,-4.0752,-4.1012,-4.094,-3.9948,-4.0262,-4.0287,-3.9735,-3.9697,-3.9986,-4.0639,-4.099,-4.0915,-4.035,-4.1957,-4.2233,-4.1003,-4.2321,-4.2974,-4.2974,-4.2974,-4.2862,-4.25,-4.1191,-4.03,-3.973,-3.7606,-3.5843,-3.4341,-3.2227,-3.1201,-3.0889,-3.0889,-3.1094,-3.1348,-3.1016,-3.0889,-3.0889,0.0,0.0,0.0,0.0,0.0,0.0,0.0,0.0,0.0,-3.5392,-3.6169,-3.651,-3.5992,-3.703,-3.7327,-3.6252,-3.5205,-3.534,-3.7013,-3.7001,-3.8058,-4.0735,-4.2058,-4.2688,-4.2558,-4.3067,-4.3618,-4.4212,-4.4212,-4.4496,-4.5065,-4.4481,-4.4511,-4.505,-4.4541,-4.502,-4.6217,-4.6249,-4.6711,-4.7309,-4.7309,-4.6638,-4.5615,-4.5439,-4.5425,-4.5458,-4.5329,-4.319,-4.0308,-4.0052,-3.8475,-3.6417,-3.5543,-3.4706,-3.402,-3.3741,-3.337,-3.2883,-3.2238,-3.1317,-3.077,-3.1847,-3.2701,-3.3106,0.0,0.0,-3.6658,-3.5174,-3.6497,-3.8119,-3.8638,-3.9146,-3.9814,-4.0807,-4.1446,-4.2074,-4.2698,-4.2798,-4.2409,-4.1313,-4.125,-4.105,-4.0488,-4.0475,-4.0287,-3.9735,-3.9697,-4.0149,-4.1137,-4.084,-4.1229,-4.2572,-4.2426,-4.2451,-4.2698,-4.2886,-4.2974,-4.2974,-4.2974,-4.2263,-4.0892,-4.065,-3.9324,-3.7029,-3.4639,-3.2984,-3.185,-3.1211,-3.0928,-3.0889,-3.0889,-3.0918,-3.0957,-3.0908,-3.0889,-3.0889,0.0,0.0,0.0,0.0,0.0,0.0,0.0,0.0,0.0,0.0,-3.6073,-3.6671,-3.7135,-3.7315,-3.6896,-3.5609,-3.4173,-3.4121,-3.5985,-3.6061,-3.7411,-4.0515,-4.1495,-4.2251,-4.2895,-4.3569,-4.4007,-4.4317,-4.4691,-4.5035,-4.5289,-4.5005,-4.4825,-4.4721,-4.484,-4.52,-4.5753,-4.6157,-4.6711,-4.7251,-4.6491,-4.5869,-4.5271,-4.382,-4.2663,-4.175,-4.1825,-4.0432,0.0,-3.6645,-3.5603,-3.4766,-3.3463,-3.2773,-3.2375,-3.2176,-3.163,-3.0855,-2.9983,-3.0775,-3.1862,0.0,-3.3885,-3.5775,-3.5513,-3.7109,-3.8454,-3.7751,-3.8605,-3.9634,-4.0199,-3.9973,-4.0162,0.0,-4.1467,-4.1618,-4.2811,-4.2753,-4.2208,-4.1376,-4.0777,-4.0162,-3.9609,-4.0136,-4.0162,-3.9283,-3.9509,-4.0174,-4.1225,-4.0193,-4.0605,-4.2936,-4.2167,-4.2167,-4.2974,-4.3614,-4.3614,-4.2974,-4.2344,-4.155,-4.0534,-3.8676,-3.6432,-3.4038,-3.3028,-3.2008,-3.1162,-3.123,-3.1113,-3.0889,-3.0889,-3.1035,-3.123,-3.0986,-3.0889,-3.0889,0.0,0.0,0.0,0.0,0.0,0.0,0.0,0.0,0.0,0.0,-3.6057,-3.6567,-3.7494,-3.7,-3.6148,-3.5055,-3.3619,-3.3517,-3.5237,-3.5456,-3.695,-4.0198,-4.0843,-4.1728,-4.303,-4.3703,-4.4227,-4.4586,-4.4885,-4.5304,-4.5843,-4.5469,-4.5244,-4.5155,-4.5439,-4.5678,-4.5888,-4.6381,-4.663,-4.6682,-4.5779,-4.481,-4.367,-4.1759,-3.9553,-3.755,-3.8335,-3.7496,-3.5696,-3.3495,-3.3013,-3.3035,-3.162,-3.1173,-3.113,-3.0945,-3.0139,-2.9252,-2.89,-3.0331,0.0,-3.2742,-3.5253,-3.7764,-3.853,-3.9685,-4.0601,-4.0601,-4.0915,-4.1266,-4.1517,-4.0789,-4.0588,-4.1986,-4.1492,-4.1392,-4.2585,-4.2271,-4.1555,-4.0485,-3.9584,-3.8668,-3.7814,-3.9145,-3.9798,-3.9145,-3.9609,-4.0337,-4.1238,-4.0042,-4.0262,-4.2448,-4.1914,-4.1718,-4.2041,-4.3312,-4.3225,-4.1834,-4.1081,-4.0198,-3.9147,-3.6139,-3.3923,-3.2324,-3.209,-3.1641,-3.1084,-3.1396,-3.1269,-3.0889,-3.0889,-3.1074,-3.1309,-3.1006,-3.0967,-3.1045,0.0,0.0,0.0,0.0,0.0,0.0,0.0,0.0,0.0,0.0,0.0,0.0,0.0,-3.4981,-3.4324,-3.3619,-3.3499,-3.3819,-3.4663,-3.5214,-3.6753,-3.9519,-4.0147,-4.1055,-4.2396,-4.303,-4.3988,-4.5274,-4.4646,-4.5334,-4.7219,-4.5903,-4.5978,-4.7189,-4.6576,-4.6651,-4.7249,-4.7264,-4.658,-4.5448,-4.5403,-4.325,-3.9999,-3.9402,-3.674,-3.3598,-3.5871,-3.4808,-3.2237,-3.1599,-3.1397,-3.1364,-3.0796,-3.0633,-3.0633,-3.0595,-2.9428,-2.8511,-3.0105,0.0,-2.9916,-3.3709,-3.5554,-3.7161,-3.9835,-4.1706,-4.2873,-4.2873,-4.2886,-4.2748,-4.2288,-4.1668,-4.148,-4.2125,-4.2187,-4.2175,-4.2225,-4.1706,-4.0498,-3.8366,-3.76,-3.6621,0.0,-3.7324,-3.9132,-3.9634,-4.0174,-4.0739,-4.125,-4.0688,-4.0654,-4.1247,-4.1793,-4.1259,-3.9635,-4.1343,-4.1098,-3.9001,-3.8963,-3.7906,-3.5836,-3.3386,-3.2473,-3.2734,-3.1894,-3.1523,-3.1504,-3.1514,-3.1269,-3.0889,-3.0889,-3.0898,-3.0908,-3.0898,-3.1152,-3.1435,0.0,0.0,0.0,0.0,0.0,0.0,0.0,0.0,0.0,0.0,0.0,0.0,0.0,0.0,0.0,0.0,-3.2946,-3.2676,-3.3834,-3.4058,-3.5168,-3.7452,-3.8938,-4.0157,-4.104,-4.2551,-4.3329,-4.3384,-4.4436,-4.508,-4.5319,-4.5304,-4.5304,-4.5308,-4.5096,-4.4938,-4.4734,-4.4758,-4.4549,-4.3999,-4.242,-4.1019,-3.9519,-3.5908,-3.367,-3.2378,0.0,-3.0534,-2.9868,-2.8953,-2.9124,-2.9729,-2.9515,-2.9452,-2.9314,-2.8624,-2.88,-2.9352,0.0,0.0,-3.4349,-3.6395,-3.858,-4.0752,-4.2773,-4.3388,-4.3526,-4.3526,-4.1781,-4.0074,-3.9509,-3.8354,-3.799,-3.971,-3.9397,-3.9673,-4.1898,-4.0099,-3.858,-3.858,-3.7486,0.0,0.0,0.0,0.0,-3.6654,-3.8028,-3.8694,-3.8262,-3.8677,-3.9163,-3.9665,-4.0559,-4.0513,-3.9505,-4.0513,-4.0336,-3.8902,-3.7475,-3.5902,-3.4175,-3.307,-3.2666,-3.2773,-3.249,-3.2041,-3.1543,-3.1836,-3.1533,-3.0889,-3.0889,-3.1064,-3.1269,-3.0996,-3.1152,-3.1455,0.0,0.0,0.0,0.0,0.0,0.0,0.0,0.0,0.0,0.0,0.0,0.0,0.0,0.0,0.0,0.0,0.0,-3.2303,-3.3425,-3.3275,-3.3829,-3.5355,-3.6626,-3.7614,-3.8272,-3.9877,-4.071,-4.0769,-4.1718,-4.229,-4.2582,-4.2906,-4.3042,-4.309,-4.3136,-4.2998,-4.2826,-4.2463,-4.2177,-4.1719,-3.9373,-3.8037,-3.7027,-3.3132,-3.1273,0.0,-2.8963,-2.8624,-2.8787,-2.8109,-2.8612,-2.9427,-2.9013,-2.8624,-2.8323,-2.821,0.0,0.0,0.0,-3.4349,-3.7362,-3.9069,-4.1128,-4.3074,-4.433,-4.4204,-4.3627,-4.3049,-4.0764,-3.8454,-3.7086,-3.5642,-3.5328,-3.7349,-3.7073,-3.7701,-4.088,-3.9309,-3.7914,-3.8228,-3.736,-3.6784,0.0,0.0,0.0,-3.6133,-3.7211,-3.7676,-3.7132,-3.7691,-3.8094,-3.8226,-3.924,-3.9258,-3.8029,-3.9084,-3.8758,-3.7194,-3.5676,-3.4373,-3.3408,-3.2988,-3.2549,-3.2129,-3.2441,-3.1904,-3.0879,-3.1631,-3.1523,-3.0889,-3.0889,-3.1055,-3.126,-3.0986,-3.1064,-3.126,0.0,0.0,0.0,0.0,0.0,0.0,0.0,0.0,0.0,0.0,0.0,0.0,0.0,0.0,0.0,0.0,0.0,0.0,-3.341,-3.2901,-3.2811,-3.3365,-3.3455,-3.3769,-3.4399,-3.5385,-3.6454,-3.7578,-3.6862,-3.7424,-3.9144,-3.8925,-3.9455,-4.0615,-4.0509,-4.0819,-4.1357,-4.0308,-3.9428,-3.8549,-3.6419,-3.4513,-3.2805,-3.1097,-2.9503,-2.826,-2.8687,-2.8863,-2.8888,-2.8888,-2.9602,-3.0317,-2.9302,0.0,0.0,0.0,0.0,-3.0896,-3.458,-3.6849,-3.8881,-4.1685,-4.3074,-4.3953,-4.4505,-4.4129,-4.32,-4.1463,-3.9735,-3.7651,0.0,0.0,-3.3332,-3.5082,-3.5345,-3.6323,-3.9245,-3.9132,-3.8416,0.0,0.0,0.0,0.0,0.0,0.0,-3.8103,0.0,-3.754,-3.7664,-3.774,-3.7533,-3.7042,-3.807,-3.756,-3.543,-3.6947,-3.6531,-3.4033,-3.3613,-3.3418,-3.3408,-3.3008,-3.2168,-3.1064,-3.1855,-3.1309,-2.9795,-3.1016,-3.1269,-3.0889,-3.0889,-3.0889,-3.0889,-3.0889,-3.0889,-3.0889,0.0,0.0,0.0,0.0,0.0,0.0,0.0,0.0,0.0,0.0,0.0,0.0,0.0,0.0,0.0,0.0,0.0,0.0,-3.2781,-3.3066,-3.2886,-3.2049,-3.2976,-3.335,-3.3021,-3.4252,-3.4792,-3.4611,-3.5388,-3.5771,-3.5771,-3.6187,-3.6571,-3.6862,-3.6389,-3.6184,-3.6178,-3.5372,-3.4633,-3.3849,-3.2459,-3.1902,-3.1549,-2.9076,-2.8649,-2.9264,-2.8561,-2.8549,-2.8888,-2.8888,0.0,0.0,0.0,-2.9415,-2.8725,0.0,0.0,-3.443,-3.6282,-3.8881,-4.1722,-4.4041,-4.4217,-4.3953,-4.4505,-4.325,-4.1379,-3.9283,-3.5893,-3.2704,0.0,0.0,0.0,-3.3106,-3.3345,0.0,-3.8517,-3.7926,0.0,-3.7739,0.0,-3.8655,-3.9195,-3.8993,0.0,0.0,-3.8009,-3.6487,-3.4624,-3.6666,-3.7228,-3.5848,-3.76,-3.7714,-3.5859,-3.564,-3.4868,-3.3584,-3.3476,-3.3418,-3.3418,-3.331,-3.3086,-3.2773,-3.2676,-3.2207,-3.1573,-3.1514,-3.1269,-3.0889,-3.0889,-3.0889,-3.0889,-3.0889,-3.0889,-3.0889,0.0,0.0,0.0,0.0,0.0,0.0,0.0,0.0,0.0,0.0,0.0,0.0,0.0,0.0,0.0,0.0,0.0,0.0,0.0,-3.2587,-3.2168,-3.1092,-3.1524,-3.1599,-3.124,-3.1811,-3.2203,-3.2363,-3.2762,-3.2872,-3.2753,-3.3601,-3.4,-3.4012,-3.4205,-3.4164,-3.3885,-3.3343,-3.272,0.0,0.0,-3.0344,-3.0796,-2.8511,-2.8536,-2.9741,-2.9352,-2.9252,-2.9453,0.0,0.0,-2.9916,-3.1549,-3.1449,-3.116,-3.3244,0.0,-3.7023,-3.8868,-4.1254,-4.3601,-4.5108,-4.4631,-4.3627,-4.2974,-4.1103,-3.8668,-3.5717,-3.2742,-3.003,-2.7871,-2.6703,0.0,0.0,0.0,0.0,-3.726,-3.7222,-3.7136,0.0,-3.8881,0.0,-4.0777,-4.0141,-3.981,0.0,-3.8145,-3.6376,-3.5065,-3.6331,-3.651,-3.5144,-3.666,-3.68,-3.5439,-3.4941,-3.4267,-3.3418,-3.3418,-3.3418,-3.3418,-3.3418,-3.3018,-3.2314,0.0,-3.1953,-3.1045,-3.1182,-3.1103,-3.0889,-3.0889,-3.0889,-3.0889,-3.0889,-3.0889,-3.0889,0.0,0.0,0.0,0.0,0.0,0.0,0.0,0.0,0.0,0.0,0.0,0.0,0.0,0.0,0.0,0.0,0.0,0.0,0.0,0.0,-3.1017,-3.0283,-2.9819,-2.9577,-2.9487,-2.9273,-2.9676,-3.0738,-3.002,-2.9933,-3.0394,-3.1422,-3.183,-3.176,-3.2891,-3.3169,-3.27,-3.237,-3.1939,-3.1386,-2.9439,-2.939,-3.0231,0.0,-2.8963,-3.0068,-3.0545,-3.0369,-3.0231,0.0,-3.2139,-3.1223,-3.3508,-3.401,-3.4299,-3.7161,-3.8266,-3.9082,-4.1559,-4.3363,-4.4756,-4.5347,-4.4531,-4.3049,-4.099,-3.8617,-3.5818,-3.2152,-3.0294,-2.8612,-2.6163,-2.5649,-2.6565,-2.9528,0.0,-3.2503,-3.5739,-3.6795,-3.7575,-3.863,-3.9308,-4.0187,-4.1388,-4.0933,-4.0645,-4.0976,-3.8758,-3.7291,-3.711,-3.6434,-3.5706,-3.4851,-3.5478,-3.5449,-3.4629,-3.4609,-3.4209,-3.3418,-3.3418,-3.3418,-3.3418,-3.3418,-3.2588,-3.1182,0.0,0.0,-2.9883,-3.0596,-3.0889,-3.0889,-3.0889,-3.0889,-3.0889,-3.0889,-3.0889,-3.0889,0.0,0.0,0.0,0.0,0.0,0.0,0.0,0.0,0.0,0.0,-3.0852,-3.0839,0.0,0.0,0.0,0.0,0.0,0.0,0.0,0.0,0.0,-2.8981,-2.934,-2.9352,-2.8786,-2.9265,-2.9614,-2.9824,-2.9698,-2.9658,-2.9776,-3.0449,-3.0353,-2.9657,-3.0432,-3.0183,-2.927,-2.9201,-2.8753,-2.8109,-2.772,-2.8235,-2.9151,-2.8863,0.0,0.0,-3.1223,-3.0922,-3.0809,-3.3018,-3.2943,-3.2403,-3.5115,-3.6508,-3.7262,-3.7839,-3.9634,-4.1597,-4.2087,-4.3363,-4.4756,-4.5347,-4.3953,-4.215,-4.0802,-3.7739,0.0,0.0,-2.9101,-2.6927,-2.6436,-2.5946,-2.6804,-3.0507,-3.1273,-3.224,-3.4663,-3.6257,-3.7425,0.0,-3.9069,-4.0488,-4.2497,-4.1758,0.0,0.0,0.0,-4.0133,-3.7891,-3.6669,-3.5815,-3.5283,-3.5049,-3.4687,-3.4189,-3.418,-3.3926,-3.3418,-3.3418,-3.3418,-3.3418,-3.3418,-3.3076,-3.2451,-3.2256,0.0,-3.1162,-3.0967,-3.0889,-3.0889,-3.0889,-3.0889,-3.0889,-3.0889,-3.0889,-3.0889,0.0,0.0,0.0,0.0,0.0,0.0,0.0,-2.9943,-2.9759,-3.0417,-3.0223,-3.0148,-3.0477,-3.0223,-3.0028,0.0,0.0,0.0,0.0,0.0,0.0,0.0,0.0,0.0,-2.9594,-2.9492,-2.9619,0.0,0.0,-2.8756,-2.877,-2.9417,-2.9279,-2.8573,-2.9591,-2.9462,-2.8518,-2.9149,-2.9109,-2.8612,-2.89,-2.9666,-3.0608,0.0,0.0,0.0,0.0,0.0,-3.0959,-3.3156,-3.2955,-3.2416,-3.6081,-3.8002,-3.8831,-3.8542,-4.0413,-4.264,-4.264,-4.4016,-4.5573,-4.5849,-4.4016,-4.1471,-3.858,0.0,0.0,0.0,-2.7118,-2.5959,-2.5661,-2.5385,0.0,-2.9566,-3.0357,-3.1537,-3.4336,-3.5655,0.0,-3.868,-3.9371,-4.0337,0.0,0.0,0.0,0.0,0.0,-3.8702,-3.8823,-3.6404,-3.5127,-3.5391,-3.4726,-3.4277,-3.4072,-3.4072,-3.3848,-3.3418,-3.3418,-3.3418,-3.3418,-3.3418,-3.3193,-3.2773,-3.2353,0.0,-3.0527,-3.0781,-3.0488,-2.9932,-3.0625,-3.0889,-3.0889,-3.0889,-3.0889,-3.0889,0.0,0.0,0.0,0.0,0.0,0.0,0.0,-2.9057,-2.916,-3.0178,-2.9879,-2.9786,-3.0253,-2.9864,-2.9547,0.0,0.0,0.0,0.0,0.0,0.0,0.0,0.0,0.0,0.0,0.0,0.0,0.0,0.0,0.0,0.0,0.0,0.0,0.0,0.0,-2.9349,-2.8499,-2.9722,-2.9994,0.0,0.0,0.0,0.0,0.0,0.0,0.0,0.0,0.0,0.0,0.0,-3.2654,-3.2202,-3.5818,-3.7801,-3.8768,-3.8567,-4.0463,-4.2698,-4.3062,-4.4694,-4.625,-4.6012,-4.3865,-4.0739,-3.6611,-3.369,0.0,-2.6929,-2.585,-2.5548,-2.5385,-2.5159,-2.5887,0.0,-2.9089,-3.0319,-3.3872,-3.4705,-3.6094,0.0,-3.9546,0.0,-4.1392,0.0,0.0,0.0,0.0,0.0,-3.8538,-3.5725,-3.4394,-3.5088,-3.4346,-3.3935,-3.3935,-3.3935,-3.376,-3.3418,-3.3418,-3.3418,-3.3418,-3.333,-3.3057,-3.2637,-3.2207,0.0,0.0,-3.0527,-3.0166,-2.918,-3.041,-3.0889,-3.0889,-3.0889,-3.0889,-3.0889,0.0,0.0,0.0,0.0,0.0,0.0,0.0,-2.9117,-2.9562,-2.9681,-2.9636,-2.9636,-2.9696,-2.9636,-2.9367,0.0,0.0,0.0,0.0,0.0,0.0,0.0,0.0,0.0,0.0,0.0,0.0,0.0,0.0,0.0,0.0,0.0,0.0,0.0,0.0,0.0,0.0,-2.9378,0.0,0.0,0.0,0.0,0.0,0.0,0.0,0.0,0.0,0.0,0.0,0.0,0.0,-3.2303,-3.3232,-3.4638,-3.6072,-3.7061,0.0,0.0,-4.3313,-4.4995,-4.6062,-4.5033,-4.271,-3.991,-3.6998,0.0,-3.0218,-2.8273,-2.6653,-2.59,-2.6879,-2.6214,-2.644,-2.9252,-2.8096,-2.8309,-3.2616,-3.3269,-3.4512,-3.7776,0.0,0.0,0.0,0.0,0.0,0.0,0.0,0.0,-3.5236,-3.4491,-3.4111,-3.4189,-3.373,-3.3476,-3.3476,-3.3476,-3.3457,-3.3418,-3.3418,-3.3418,-3.3408,-3.3027,-3.2627,-3.2207,-3.1768,0.0,0.0,-3.0527,-3.0342,-2.96,-3.0527,-3.0889,-3.0889,-3.0889,-3.0889,-3.0889,0.0,0.0,0.0,0.0,0.0,0.0,-2.7965,-2.8228,-2.8543,-2.8936,-2.8996,-2.8996,-2.8996,-2.934,-2.9337,-2.8667,0.0,0.0,0.0,0.0,0.0,0.0,0.0,0.0,0.0,0.0,-2.7353,-2.7058,-2.7135,0.0,0.0,0.0,0.0,0.0,0.0,0.0,0.0,0.0,0.0,0.0,0.0,0.0,0.0,0.0,0.0,0.0,0.0,0.0,0.0,0.0,0.0,0.0,-3.0407,-3.0583,0.0,0.0,-3.7149,-4.0136,-4.1467,-4.3777,-4.5623,-4.4819,-4.2547,-3.9534,-3.5755,0.0,-2.9955,-2.7607,-2.6625,-2.6285,-2.6738,-2.6138,-2.6076,-2.758,-2.6788,0.0,-3.106,-3.1863,-3.3671,-3.8015,0.0,0.0,0.0,0.0,0.0,0.0,0.0,0.0,-3.4015,-3.3769,-3.3799,-3.4062,-3.3643,-3.3418,-3.3418,-3.3418,-3.3418,-3.3418,-3.3164,-3.3047,-3.3027,-3.2607,-3.2187,-3.1768,-3.1592,0.0,0.0,-3.0098,-2.9756,-2.8223,-3.0137,-3.0889,-3.0889,-3.0889,-3.0889,-3.0889,0.0,0.0,0.0,0.0,0.0,-2.76,-2.76,-2.7764,-2.8079,-2.8532,-2.8607,-2.8607,-2.8607,-2.8831,-2.8992,-2.8891,-2.949,0.0,0.0,0.0,0.0,0.0,0.0,0.0,0.0,0.0,-2.6632,-2.6413,-2.6556,-2.6628,0.0,0.0,0.0,0.0,0.0,0.0,0.0,0.0,0.0,0.0,0.0,0.0,0.0,0.0,0.0,0.0,0.0,0.0,0.0,0.0,0.0,0.0,0.0,-2.7908,-2.7959,0.0,-3.4977,-3.8203,-3.9634,-4.2333,-4.4606,-4.4041,-4.1568,-3.8341,0.0,0.0,-2.9227,-2.6964,-2.6361,-2.6285,-2.6461,-2.5757,-2.5423,-2.6348,-2.585,-2.6477,-2.9666,-3.0583,-3.2528,0.0,0.0,0.0,0.0,0.0,0.0,0.0,0.0,0.0,0.0,-3.3418,-3.3564,-3.3867,-3.3584,-3.3418,-3.3418,-3.3301,-3.3232,-3.3232,-3.2812,-3.248,-3.2226,-3.2051,-3.166,-3.1133,0.0,0.0,0.0,-3.0029,-2.9658,-2.7978,-3.0078,-3.0889,-3.0889,-3.0889,-3.0889,-3.0889,0.0,0.0,0.0,0.0,0.0,0.0,-2.76,-2.8143,-2.8592,-2.8607,-2.8607,-2.8607,-2.8607,-2.8019,-2.8154,-2.9472,-3.0133,0.0,0.0,0.0,0.0,0.0,0.0,0.0,0.0,0.0,-2.6021,-2.5213,-2.6329,-2.691,-2.6892,-2.6616,-2.6499,0.0,0.0,0.0,0.0,0.0,0.0,0.0,0.0,0.0,0.0,0.0,0.0,0.0,0.0,0.0,0.0,0.0,0.0,0.0,0.0,-2.7329,-2.772,-2.998,-3.295,-3.6022,-3.8278,-4.0955,-4.2873,-4.2376,-3.9321,-3.6015,0.0,0.0,-2.7808,-2.6725,-2.6034,-2.5774,-2.6386,-2.5154,-2.4556,-2.6235,-2.5548,0.0,-2.8524,-2.9453,0.0,0.0,0.0,0.0,0.0,0.0,0.0,0.0,0.0,0.0,0.0,-3.3418,-3.3418,-3.3428,-3.3418,-3.3418,-3.3418,-3.3008,-3.2803,-3.2793,-3.2373,-3.1728,-3.0928,-3.1338,-3.1045,0.0,0.0,0.0,0.0,-3.0518,-3.0361,-2.9629,-3.0537,-3.0889,-3.0889,-3.0889,-3.0889,-3.0889,0.0,0.0,0.0,0.0,0.0,0.0,0.0,-2.7779,-2.7929,-2.7929,-2.7929,-2.7929,-2.7929,-2.8154,-2.8442,-2.8876,-2.9086,0.0,0.0,0.0,0.0,0.0,0.0,0.0,0.0,-2.6392,-2.6931,-2.7239,-2.7739,-2.7795,-2.7439,-2.7177,-2.6851,-2.6512,-2.7065,0.0,0.0,0.0,0.0,0.0,0.0,0.0,0.0,0.0,0.0,0.0,0.0,0.0,0.0,0.0,0.0,0.0,0.0,0.0,0.0,-2.8586,-3.0457,0.0,-3.4876,-3.6935,-3.8378,-3.7776,-3.6144,-3.4148,-3.2114,0.0,-2.7682,-2.6176,-2.5724,-2.5548,-2.5372,-2.4908,-2.4983,-2.6285,-2.649,0.0,0.0,0.0,0.0,0.0,0.0,0.0,0.0,0.0,0.0,0.0,0.0,0.0,0.0,-3.3144,-3.2998,-3.2998,-3.2998,-3.2861,-3.2568,-3.2432,-3.2363,-3.2363,-3.1934,-3.1269,-3.043,-3.0889,0.0,0.0,0.0,0.0,0.0,-3.04,-3.0195,-2.9238,-3.043,-3.0889,-3.0889,-3.0889,-3.0889,-3.0889,0.0,0.0,0.0,0.0,0.0,0.0,0.0,-2.76,-2.76,-2.76,-2.76,-2.76,-2.76,-2.7974,-2.8204,-2.8205,-2.8684,0.0,0.0,0.0,0.0,0.0,0.0,0.0,-2.5628,-2.6569,-2.7363,-2.8012,-2.8473,-2.8352,-2.7683,-2.7228,-2.6826,-2.6524,-2.7256,-2.7783,0.0,0.0,0.0,0.0,0.0,0.0,-3.1637,0.0,0.0,0.0,0.0,0.0,0.0,0.0,0.0,0.0,0.0,0.0,0.0,0.0,-2.8549,-2.9616,-3.224,-3.401,-3.5039,-3.47,-3.347,0.0,0.0,0.0,0.0,-2.585,-2.5774,-2.5699,-2.4926,-2.4788,-2.4983,-2.5481,-2.6373,0.0,0.0,0.0,0.0,0.0,0.0,0.0,0.0,0.0,0.0,0.0,0.0,0.0,0.0,0.0,-3.2646,-3.2324,-3.2471,-3.2432,-3.2229,-3.2002,-3.1924,-3.1924,-3.1484,-3.082,-2.998,-3.0605,0.0,0.0,0.0,0.0,0.0,-3.0547,-3.04,-2.9746,-3.0566,-3.0889,-3.0889,-3.0889,-3.0889,-3.0889,0.0,0.0,0.0,0.0,0.0,0.0,0.0,-2.76,-2.76,-2.76,-2.76,-2.7575,-2.7524,-2.7524,-2.7465,-2.7358,0.0,0.0,0.0,0.0,0.0,0.0,0.0,0.0,-2.4935,-2.6505,-2.7503,-2.7855,-2.8551,-2.8492,-2.767,-2.6871,-2.6499,-2.6549,-2.757,-2.8097,-2.8235,-2.9289,-2.9729,-2.9829,-3.0859,-3.0984,0.0,0.0,0.0,0.0,0.0,0.0,0.0,0.0,0.0,0.0,0.0,0.0,0.0,0.0,0.0,0.0,0.0,-3.1863,-3.2709,-3.2709,-3.1122,-2.9616,-2.9616,0.0,0.0,0.0,0.0,-2.6122,-2.5059,-2.4876,-2.477,0.0,0.0,0.0,0.0,0.0,0.0,0.0,0.0,0.0,0.0,0.0,0.0,0.0,0.0,0.0,0.0,0.0,-3.2344,-3.1543,-3.1885,-3.2141,-3.2141,-3.168,-3.1445,-3.1377,-3.1045,-3.04,-2.9567,-3.0459,0.0,0.0,0.0,0.0,0.0,-3.0889,-3.0889,-3.0889,-3.0889,-3.0889,-3.0889,-3.0889,-3.0889,-3.0889,0.0,0.0,0.0,0.0,0.0,0.0,0.0,0.0,0.0,0.0,-2.76,-2.7382,-2.6826,-2.6747,-2.6527,0.0,0.0,0.0,0.0,0.0,0.0,0.0,0.0,0.0,-2.6393,-2.7186,-2.8166,-2.9302,-2.8429,-2.7887,-2.767,-2.6871,-2.6499,-2.6524,-2.7168,-2.7946,-2.8712,-2.8976,-2.9101,-2.9151,-2.9892,-3.0093,0.0,0.0,0.0,0.0,-3.0143,-2.9616,0.0,0.0,0.0,0.0,0.0,0.0,0.0,0.0,-2.7027,-2.6751,-2.7957,0.0,-2.8637,-2.8637,-2.826,-2.7871,0.0,-2.6791,-2.5887,-2.6223,-2.6047,0.0,0.0,0.0,0.0,0.0,0.0,0.0,0.0,0.0,0.0,0.0,0.0,0.0,0.0,0.0,0.0,0.0,0.0,0.0,0.0,0.0,-3.1728,-3.1523,-3.1309,-3.1191,-3.1191,-3.1094,-3.0703,-3.0029,-3.0615,-3.0078,-2.8643,-3.0185,0.0,0.0,0.0,0.0,-3.0889,-3.0889,-3.0889,-3.0889,-3.0889,-3.0889,-3.0889,-3.0889,-3.0889,-3.0889,0.0,0.0,0.0,0.0,0.0,0.0,0.0,0.0,0.0,0.0,0.0,-2.6826,-2.6095,-2.6014,0.0,0.0,0.0,0.0,0.0,0.0,0.0,0.0,0.0,-2.5936,-2.5936,-2.6856,-2.7881,-2.9024,-2.7702,-2.6977,-2.6785,-2.5481,-2.532,-2.6219,-2.7477,-2.8373,-2.8875,-2.8624,-2.8512,-2.8574,-2.89,0.0,0.0,0.0,0.0,0.0,-2.9892,-2.9591,0.0,-2.8386,-2.8298,-2.8398,0.0,0.0,0.0,0.0,-2.6927,-2.6612,-2.7165,-2.714,-2.7065,-2.7532,-2.7281,-2.7065,-2.7544,-2.659,-2.5762,-2.6373,-2.6034,0.0,0.0,0.0,0.0,0.0,0.0,0.0,0.0,0.0,0.0,0.0,0.0,0.0,0.0,0.0,0.0,0.0,0.0,0.0,0.0,0.0,-3.1426,-3.124,-3.1006,-3.0889,-3.0889,-3.0889,-3.0628,-3.0093,-3.0648,-3.0352,-2.9357,-3.0177,-3.0312,0.0,0.0,0.0,-3.0547,-3.0146,-3.0342,-3.0889,-3.0889,-3.0889,-3.0889,-3.0889,-3.0889,-3.0889,0.0,0.0,0.0,0.0,0.0,0.0,0.0,0.0,0.0,0.0,0.0,0.0,0.0,0.0,0.0,0.0,0.0,0.0,0.0,0.0,0.0,0.0,-2.4449,-2.4788,-2.4788,-2.6149,-2.7159,-2.7877,-2.6594,-2.5819,-2.5535,-2.3869,-2.4152,-2.613,-2.7953,-2.8762,-2.8725,-2.821,-2.7984,-2.7984,-2.7984,0.0,0.0,0.0,0.0,0.0,0.0,0.0,0.0,-2.826,-2.7908,-2.7883,-2.7331,0.0,0.0,0.0,0.0,0.0,-2.709,-2.6851,-2.6738,-2.772,-2.7092,-2.6537,-2.7607,-2.6553,-2.5586,0.0,0.0,0.0,0.0,-2.6189,0.0,0.0,0.0,0.0,0.0,0.0,0.0,0.0,0.0,0.0,0.0,0.0,0.0,0.0,0.0,0.0,0.0,0.0,0.0,-3.0898,-3.0889,-3.0859,-3.0781,-3.0781,-3.0658,-3.0358,-3.0561,-3.0528,-3.0222,-3.0145,-3.0098,0.0,0.0,0.0,-3.0049,-2.9385,-2.9775,-3.0791,-3.0859,-3.0889,-3.0889,-3.0889,-3.0889,-3.0889,0.0,0.0,0.0,0.0,0.0,0.0,0.0,0.0,0.0,0.0,0.0,0.0,0.0,0.0,0.0,0.0,0.0,0.0,0.0,0.0,0.0,-2.3233,-2.4236,-2.4788,-2.4788,-2.5979,-2.6598,-2.6737,-2.5242,-2.4495,-2.4431,-2.413,-2.5106,-2.7115,-2.7873,-2.8235,-2.8197,-2.7645,-2.7406,-2.7406,-2.7406,0.0,0.0,0.0,0.0,0.0,0.0,0.0,0.0,-2.7278,-2.7052,-2.7318,-2.6788,0.0,0.0,0.0,0.0,0.0,-2.6725,-2.6562,-2.665,-2.7291,-2.6226,-2.536,-2.6499,-2.5468,-2.4795,0.0,0.0,0.0,0.0,-2.8888,-2.9415,0.0,0.0,0.0,0.0,0.0,0.0,0.0,0.0,0.0,0.0,0.0,0.0,0.0,0.0,0.0,0.0,0.0,0.0,-3.0889,-3.0889,-3.0703,-3.0303,-3.0303,-2.989,-2.9189,-2.9603,-2.9398,-2.8676,-2.9378,-2.9668,0.0,0.0,-2.9482,-2.9687,-2.9912,-3.0117,-3.0342,-3.0732,-3.0889,-3.0889,-3.0889,-3.0889,-3.0889,0.0,0.0,0.0,0.0,0.0,0.0,0.0,0.0,0.0,0.0,0.0,0.0,0.0,0.0,0.0,0.0,0.0,0.0,0.0,0.0,-2.3246,-2.359,-2.4362,-2.4788,-2.4788,-2.5105,-2.5525,-2.6122,-2.4041,-2.3191,-2.3503,-2.4028,-2.4932,-2.6231,-2.7527,-2.7946,-2.7645,-2.7394,-2.714,-2.6876,0.0,0.0,0.0,0.0,0.0,0.0,0.0,0.0,0.0,0.0,-2.6663,-2.6826,-2.6575,0.0,0.0,0.0,0.0,0.0,-2.6185,-2.6021,-2.6235,-2.7067,-2.649,-2.6151,-2.7907,-2.6502,-2.5485,-2.7708,0.0,0.0,0.0,0.0,0.0,0.0,0.0,0.0,0.0,0.0,0.0,0.0,0.0,0.0,0.0,0.0,0.0,0.0,0.0,0.0,0.0,0.0,0.0,0.0,-3.0293,-3.0078,-2.9863,-2.9619,-2.9391,-2.9094,-2.9451,-2.9312,-2.8864,-2.908,-2.9219,-2.918,0.0,-2.8584,-2.9199,-2.8935,-2.9238,-2.9902,-3.0342,-3.0381,-3.0205,-3.043,-3.0674,-3.0889,0.0,0.0,0.0,0.0,0.0,0.0,0.0,0.0,0.0,0.0,0.0,0.0,0.0,0.0,0.0,0.0,0.0,0.0,0.0,-2.3183,-2.3358,-2.3966,-2.4406,-2.4586,-2.4504,-2.4645,-2.4896,-2.526,-2.3535,-2.2869,-2.3215,-2.3955,-2.4631,-2.5341,-2.7019,-2.7494,-2.7128,-2.7128,-2.6889,-2.6499,0.0,0.0,0.0,0.0,0.0,0.0,0.0,0.0,0.0,0.0,0.0,0.0,0.0,0.0,0.0,-2.6688,-2.6688,-2.6562,-2.595,-2.5799,-2.6038,-2.7065,-2.6713,-2.6763,-2.9227,-2.762,-2.6339,-2.8963,-2.7293,0.0,0.0,0.0,0.0,0.0,0.0,0.0,0.0,0.0,0.0,0.0,0.0,0.0,0.0,0.0,0.0,0.0,0.0,0.0,0.0,0.0,0.0,0.0,-2.9736,-2.9521,-2.9414,-2.9082,-2.8995,-2.9197,-2.9253,-2.9208,-2.9054,-2.8832,-2.8769,-2.8721,-2.7734,-2.7871,-2.873,-2.8184,-2.8535,-2.9463,-2.9883,-2.9853,-2.9665,-2.9932,-3.0342,-3.0732,0.0,0.0,0.0,0.0,0.0,0.0,0.0,0.0,0.0,0.0,0.0,0.0,0.0,0.0,0.0,0.0,0.0,0.0,0.0,-2.3409,-2.3358,-2.3966,-2.4042,-2.3919,-2.3601,-2.5385,-2.544,-2.368,-2.4432,-2.4555,-2.4096,-2.4165,-2.4693,-2.5607,-2.6302,-2.6587,-2.6549,-2.6549,-2.6524,-2.6537,-2.7052,0.0,0.0,0.0,0.0,0.0,0.0,0.0,0.0,0.0,0.0,0.0,0.0,0.0,-2.7218,-2.7218,-2.7218,-2.714,-2.6587,-2.6436,-2.6575,-2.7165,-2.6101,-2.5787,-2.9051,-2.762,-2.6666,-3.0432,-3.0231,-2.9741,0.0,0.0,0.0,0.0,0.0,0.0,0.0,0.0,0.0,0.0,0.0,0.0,0.0,0.0,0.0,0.0,0.0,0.0,0.0,0.0,0.0,0.0,-2.9646,-2.9375,-2.8975,-2.8935,-2.8887,-2.8927,-2.8579,-2.8384,-2.8349,-2.8354,-2.834,-2.833,-2.8242,-2.8252,-2.8359,-2.8691,-2.8887,-2.9014,-2.9443,-2.9655,-2.957,-2.96,-2.9883,-3.0244,0.0,0.0,0.0,0.0,0.0,0.0,0.0,0.0,0.0,0.0,0.0,0.0,0.0,0.0,0.0,0.0,0.0,0.0,0.0,-2.3233,-2.3358,-2.3966,-2.433,-2.4196,-2.3501,-2.4536,-2.4554,-2.3514,-2.3891,-2.4117,-2.4197,-2.4197,-2.4893,-2.616,-2.6021,-2.616,-2.6499,-2.6499,-2.6499,-2.6512,-2.6725,-2.6801,0.0,0.0,0.0,0.0,0.0,0.0,0.0,0.0,-2.7431,-2.7165,-2.8021,-2.7833,-2.7392,-2.7695,-2.7557,-2.7115,-2.6197,-2.6223,-2.6625,-2.7178,-2.6289,-2.6264,-2.9942,-2.9164,-2.8574,-3.1775,-3.1035,-2.9917,0.0,0.0,0.0,0.0,0.0,0.0,0.0,0.0,0.0,0.0,0.0,0.0,0.0,0.0,0.0,0.0,0.0,0.0,0.0,0.0,0.0,-2.917,-2.8906,-2.8701,-2.8535,-2.8535,-2.8535,-2.8525,-2.8369,-2.8291,-2.8291,-2.8291,-2.8291,-2.8291,-2.8291,-2.8291,-2.8301,-2.8467,-2.8535,-2.8545,-2.8711,-2.9101,-2.9531,-2.9268,-2.96,-3.0195,0.0,0.0,0.0,0.0,0.0,0.0,0.0,0.0,0.0,0.0,0.0,0.0,0.0,0.0,0.0,0.0,0.0,0.0,-2.3358,-2.3208,-2.3358,-2.3966,-2.4356,-2.4201,-2.3456,-2.4073,-2.4114,-2.3484,-2.3618,-2.3907,-2.4401,-2.4401,-2.486,-2.572,-2.5812,-2.6021,-2.6235,-2.6411,-2.6499,-2.6512,-2.6688,-2.665,0.0,0.0,0.0,0.0,0.0,0.0,0.0,0.0,-2.7996,-2.767,-2.8436,-2.8147,-2.7582,-2.7783,-2.7582,-2.7067,-2.6126,-2.6197,-2.6625,-2.7178,-2.66,-2.6862,-3.0643,-3.0288,-3.0013,-3.2883,-3.1772,-3.041,-3.0679,0.0,0.0,0.0,0.0,0.0,0.0,0.0,0.0,0.0,0.0,0.0,0.0,0.0,0.0,0.0,0.0,0.0,0.0,0.0,0.0,0.0,-2.8437,-2.8232,-2.8096,-2.8096,-2.8027,-2.7891,-2.7891,-2.8027,-2.8291,-2.8291,-2.8291,-2.8291,-2.8291,-2.8291,-2.8291,-2.8291,-2.8291,-2.8291,-2.8291,-2.8652,-2.9131,-2.8828,-2.918,-2.9795,0.0,0.0,0.0,0.0,0.0,0.0,0.0,0.0,0.0,0.0,0.0,0.0,0.0,0.0,0.0,0.0,0.0,0.0,-2.3954,-2.3421,-2.3358,-2.3966,-2.4004,-2.3774,-2.3333,-2.4251,-2.4361,-2.3501,-2.383,-2.4293,-2.4775,-2.4788,-2.4531,-2.4079,-2.577,-2.6172,-2.5636,-2.626,-2.6499,-2.6549,-2.709,-2.6977,-2.6675,0.0,0.0,0.0,0.0,0.0,0.0,0.0,-2.8561,-2.8109,-2.8122,-2.8109,-2.7996,-2.7457,-2.7329,-2.7168,-2.665,-2.6499,-2.6625,-2.7178,-2.6901,-2.7419,-3.089,-3.073,-3.067,-3.3589,-3.2791,-3.1739,-3.2547,-3.1191,0.0,0.0,0.0,0.0,0.0,0.0,0.0,0.0,0.0,0.0,0.0,0.0,0.0,0.0,0.0,0.0,0.0,0.0,0.0,0.0,-2.8281,-2.8086,-2.7718,-2.7708,-2.7441,-2.7012,-2.7012,-2.7461,-2.8281,-2.8281,-2.8281,-2.8281,-2.8281,-2.8281,-2.8281,-2.8281,-2.8291,-2.8291,-2.8291,-2.8291,-2.8291,-2.8291,-2.8555,-2.8916,0.0,0.0,0.0,0.0,0.0,0.0,0.0,0.0,0.0,0.0,0.0,0.0,0.0,0.0,0.0,0.0,0.0,0.0,-2.3346,-2.3195,-2.3183,-2.3358,-2.3778,-2.3941,-2.3793,-2.3494,-2.3494,-2.3838,-2.4329,-2.4456,-2.4255,-2.4612,-2.4933,-2.5159,-2.6097,-2.6399,-2.6273,-2.6839,-2.6851,-2.6512,-2.6675,-2.6637,-2.6587,0.0,0.0,0.0,0.0,0.0,0.0,0.0,0.0,0.0,-2.9164,-2.875,-2.8147,-2.8373,-2.7896,-2.7291,-2.7115,-2.6788,0.0,-2.7178,0.0,0.0,-2.9726,-3.0652,-3.1714,-3.4539,-3.3576,-3.2171,-3.204,0.0,0.0,0.0,0.0,0.0,0.0,0.0,0.0,0.0,0.0,0.0,0.0,0.0,0.0,0.0,0.0,0.0,0.0,0.0,0.0,0.0,-2.7393,-2.7334,-2.7207,-2.7207,-2.7148,-2.7012,-2.7012,-2.7148,-2.7402,-2.7715,-2.7851,-2.7851,-2.7851,-2.7851,-2.7851,-2.7851,-2.8027,-2.8291,-2.8291,-2.8291,-2.8291,-2.8291,-2.8555,-2.8916,0.0,0.0,0.0,0.0,0.0,0.0,0.0,0.0,0.0,0.0,-2.3108,-2.3108,0.0,0.0,0.0,0.0,0.0,0.0,0.0,-2.2793,-2.2861,-2.3434,-2.348,-2.3765,-2.4318,-2.4013,-2.4013,-2.433,-2.3876,-2.3777,-2.4004,-2.4343,-2.4657,-2.4983,-2.5561,-2.5925,-2.6172,-2.6499,-2.6587,-2.6499,-2.6499,-2.6499,-2.6524,0.0,0.0,0.0,0.0,0.0,0.0,0.0,0.0,0.0,-2.9151,-2.8963,-2.8662,-2.8109,-2.7783,-2.7557,-2.7379,-2.7065,0.0,-2.7668,-2.7525,-2.7676,-2.9548,0.0,0.0,0.0,-3.3665,-3.1645,-3.2695,0.0,0.0,0.0,0.0,0.0,0.0,0.0,0.0,0.0,0.0,0.0,0.0,0.0,0.0,0.0,0.0,0.0,0.0,0.0,0.0,0.0,-2.7012,-2.6934,-2.6768,-2.6592,-2.6454,-2.6504,-2.6328,-2.6338,-2.6473,-2.7129,-2.7402,-2.7402,-2.7402,-2.7402,-2.7402,-2.7402,-2.7656,-2.8047,-2.8047,-2.8144,-2.8291,-2.8291,-2.8447,-2.8672,0.0,0.0,0.0,0.0,0.0,0.0,0.0,0.0,0.0,0.0,-2.3108,-2.3108,0.0,0.0,0.0,0.0,0.0,0.0,0.0,-2.2347,-2.2527,-2.3873,-2.3223,-2.3393,-2.4625,-2.5106,-2.5144,-2.4713,-2.304,-2.2841,-2.4004,-2.4104,-2.4117,-2.4104,-2.4757,-2.5247,-2.5598,-2.5699,-2.5963,-2.6348,-2.6449,-2.6436,-2.6348,-2.6399,0.0,0.0,0.0,0.0,0.0,0.0,0.0,0.0,-2.8349,-2.875,-2.9176,-2.7178,-2.7256,-2.7897,-2.7362,-2.721,-2.7394,-2.8131,-2.8539,0.0,-2.9875,-3.0512,-3.2113,-3.6256,0.0,-3.073,0.0,0.0,0.0,0.0,0.0,0.0,0.0,0.0,0.0,0.0,0.0,0.0,0.0,0.0,0.0,0.0,0.0,0.0,0.0,0.0,0.0,0.0,-2.6777,-2.6592,-2.6211,-2.5771,-2.5567,0.0,-2.5205,-2.5244,-2.5654,-2.6562,-2.6963,-2.6963,-2.6963,-2.6963,-2.6963,-2.6963,-2.7217,-2.766,-2.766,-2.7842,-2.8184,-2.8223,-2.8213,-2.8184,0.0,0.0,0.0,0.0,0.0,0.0,0.0,0.0,0.0,0.0,0.0,0.0,0.0,0.0,0.0,0.0,0.0,0.0,0.0,-2.2166,-2.2357,-2.3418,-2.3622,-2.3642,-2.3471,-2.3386,-2.3607,-2.418,-2.4608,-2.4534,-2.4017,-2.4858,-2.5034,-2.4675,-2.6126,-2.6327,-2.5649,-2.654,-2.6239,-2.5247,-2.6147,-2.5971,-2.5222,-2.5624,-2.585,0.0,0.0,0.0,0.0,0.0,0.0,0.0,-2.7676,-2.7637,-2.7737,-2.7262,-2.7295,-2.734,-2.682,-2.6661,0.0,0.0,-2.7115,-2.8156,-2.8977,-2.9456,-3.0523,-3.3387,-3.2347,0.0,0.0,0.0,0.0,0.0,0.0,0.0,0.0,0.0,0.0,0.0,0.0,0.0,0.0,0.0,0.0,0.0,0.0,0.0,0.0,0.0,0.0,-2.498,-2.498,-2.4932,-2.4844,-2.4746,-2.4697,0.0,-2.46,-2.4785,-2.5244,-2.6123,-2.6523,-2.6523,-2.6523,-2.6523,-2.6523,-2.6523,-2.6768,-2.7158,-2.7158,-2.7207,-2.7324,-2.7676,-2.7588,-2.7383,0.0,0.0,0.0,0.0,0.0,0.0,0.0,0.0,0.0,0.0,0.0,0.0,0.0,0.0,0.0,0.0,0.0,0.0,0.0,0.0,-2.1175,-2.2336,-2.3408,-2.3979,-2.391,-2.404,-2.4312,-2.477,-2.5862,-2.5711,-2.4393,-2.4406,-2.4537,-2.48,-2.5159,-2.541,-2.5598,-2.5674,-2.5511,-2.5222,-2.5548,-2.5335,-2.4813,-2.5121,-2.5222,-2.5259,-2.5561,0.0,0.0,0.0,0.0,0.0,0.0,0.0,-2.6869,-2.6559,-2.6681,-2.6849,-2.6576,0.0,0.0,-2.7167,0.0,-2.7851,-2.836,-2.9014,-2.9733,-3.059,0.0,0.0,0.0,0.0,0.0,0.0,0.0,0.0,0.0,0.0,0.0,0.0,0.0,0.0,0.0,0.0,0.0,0.0,0.0,0.0,0.0,-2.4629,-2.4648,-2.4424,-2.4414,-2.4414,-2.4414,-2.4219,-2.4219,-2.4414,-2.4209,-2.4336,-2.4775,-2.5449,-2.5644,-2.5439,-2.5439,-2.5439,-2.5459,-2.5664,-2.6006,-2.6426,-2.6631,-2.6836,-2.7041,-2.7266,-2.7207,-2.708,0.0,0.0,0.0,0.0,0.0,0.0,0.0,0.0,0.0,0.0,0.0,0.0,0.0,0.0,0.0,0.0,0.0,0.0,0.0,0.0,0.0,-2.1459,-2.3203,-2.4255,-2.4499,-2.5146,-2.5423,-2.5322,-2.644,-2.6389,-2.5189,-2.4349,-2.4412,-2.5176,-2.4336,-2.4512,-2.541,-2.4607,-2.4619,-2.5159,-2.4888,-2.4675,-2.4512,-2.4612,-2.4587,-2.4512,-2.4612,-2.4958,-2.5335,-2.544,0.0,0.0,0.0,0.0,-2.6093,-2.5623,-2.5871,-2.6327,-2.6242,0.0,-2.7627,-2.8081,-2.7742,0.0,-2.7754,-2.8489,-2.8949,0.0,0.0,0.0,0.0,0.0,0.0,0.0,0.0,0.0,0.0,0.0,0.0,0.0,0.0,0.0,0.0,0.0,0.0,0.0,0.0,0.0,-2.4199,-2.4268,-2.4277,-2.4199,-2.4199,-2.4199,-2.4199,-2.3857,-2.3857,-2.4189,-2.3916,-2.3935,-2.4209,-2.4648,-2.4687,-2.4414,-2.4414,-2.4414,-2.4453,-2.4893,-2.5283,-2.5615,-2.6103,-2.6484,-2.6807,-2.6875,-2.6865,-2.6816,0.0,0.0,0.0,0.0,0.0,0.0,0.0,0.0,0.0,0.0,-2.2476,-2.2322,0.0,0.0,0.0,0.0,0.0,0.0,0.0,0.0,0.0,-2.1843,-2.3661,-2.4249,-2.3346,-2.4349,-2.4695,-2.4205,-2.5297,-2.6214,-2.6954,-2.7293,-2.7268,-2.6967,-2.7293,-2.6502,-2.4946,-2.5259,-2.4644,-2.3509,-2.4424,-2.4199,-2.3384,-2.3916,-2.3791,-2.3396,-2.3929,-2.4155,-2.4274,-2.473,-2.4962,0.0,0.0,0.0,-2.5003,-2.4925,-2.531,-2.561,-2.5155,0.0,-2.5301,0.0,-2.5605,-2.588,0.0,0.0,0.0,0.0,0.0,0.0,0.0,0.0,0.0,0.0,0.0,0.0,0.0,0.0,0.0,0.0,0.0,0.0,0.0,0.0,0.0,0.0,0.0,0.0,-2.3286,-2.3672,-2.3701,-2.3276,-2.3266,-2.3266,-2.3266,-2.3208,-2.3208,-2.3266,-2.3633,-2.3623,-2.3276,-2.376,-2.4131,-2.4414,-2.4414,-2.4414,-2.4453,-2.4893,-2.5145,-2.5205,-2.5654,-2.581,-2.5908,-2.6328,-2.623,-2.5966,0.0,0.0,0.0,0.0,0.0,0.0,0.0,0.0,0.0,0.0,0.0,-2.2032,0.0,0.0,0.0,0.0,0.0,0.0,0.0,0.0,0.0,-2.1913,-2.317,-2.3609,-2.3108,-2.391,-2.4243,-2.4004,-2.4782,-2.6214,-2.821,-2.8448,-2.8109,-2.7329,-2.7544,-2.659,-2.4813,-2.5059,-2.4537,-2.364,-2.3772,-2.3358,-2.2706,-2.3271,-2.3133,-2.2719,-2.3283,-2.3484,-2.3534,-2.3767,-2.386,-2.3847,-2.3847,0.0,0.0,0.0,-2.4507,-2.478,-2.5147,-2.498,-2.4799,0.0,-2.5231,-2.5315,-2.5811,0.0,0.0,0.0,0.0,0.0,0.0,0.0,0.0,0.0,0.0,0.0,0.0,0.0,0.0,0.0,0.0,0.0,0.0,0.0,0.0,0.0,0.0,-2.334,-2.311,-2.3276,-2.3296,-2.3101,-2.3091,-2.3091,-2.3091,-2.3091,-2.3091,-2.3091,-2.3286,-2.3276,-2.3101,-2.3296,-2.3481,-2.3656,-2.3656,-2.3656,-2.3686,-2.417,-2.4355,-2.4394,-2.4824,-2.4953,-2.5049,-2.5488,-2.5527,-2.5449,0.0,0.0,0.0,0.0,0.0,0.0,0.0,0.0,0.0,0.0,0.0,0.0,0.0,0.0,0.0,0.0,0.0,0.0,0.0,0.0,0.0,-2.2199,-2.2929,-2.3258,-2.3108,-2.3703,-2.3929,-2.3778,-2.4607,-2.6138,-2.831,-2.8888,-2.8637,-2.7708,-2.7708,-2.6854,-2.5423,-2.5146,-2.4707,-2.4155,-2.3547,-2.2907,-2.2347,-2.2744,-2.2644,-2.2355,-2.2907,-2.3108,-2.3108,-2.3108,-2.3108,-2.3108,-2.3108,-2.3108,0.0,0.0,0.0,0.0,0.0,0.0,-2.4528,-2.4915,-2.4776,-2.4632,0.0,0.0,0.0,0.0,0.0,0.0,0.0,0.0,0.0,0.0,0.0,0.0,0.0,0.0,0.0,0.0,0.0,0.0,0.0,0.0,0.0,0.0,0.0,-2.3091,-2.3091,-2.3091,-2.3091,-2.3091,-2.3091,-2.3091,-2.3091,-2.3091,-2.3091,-2.3091,-2.3091,-2.3091,-2.3091,-2.3091,-2.3091,-2.3091,-2.3091,-2.3091,-2.313,-2.3613,-2.3789,-2.3828,-2.4248,-2.4414,-2.4453,-2.4785,-2.5018,-2.5117,0.0,0.0,0.0,0.0,0.0,0.0,0.0,0.0,0.0,0.0,0.0,0.0,-2.2944,-2.2384,-2.2261,-2.2975,-2.1573,0.0,0.0,0.0,0.0,-2.303,-2.3634,0.0,-2.3108,-2.3703,-2.3728,-2.3145,-2.477,-2.5912,-2.6663,-2.8762,-2.9428,-2.8813,-2.8813,-2.821,-2.7092,-2.6013,-2.5259,-2.47,-2.418,-2.3301,-2.2309,-2.2347,-2.2305,-2.2355,-2.2907,-2.3108,-2.3108,-2.3108,-2.3108,-2.3108,-2.3108,-2.3108,0.0,0.0,0.0,0.0,0.0,-2.3637,0.0,-2.39,-2.353,0.0,0.0,0.0,0.0,0.0,0.0,0.0,0.0,0.0,0.0,0.0,0.0,0.0,0.0,0.0,0.0,0.0,0.0,0.0,0.0,0.0,0.0,0.0,0.0,-2.3091,-2.3091,-2.3091,-2.3091,-2.3091,-2.3091,-2.3091,-2.3091,-2.3091,-2.3091,-2.3091,-2.3091,-2.3091,-2.3091,-2.3091,-2.3091,-2.3091,-2.3091,-2.3091,-2.313,-2.3613,-2.3789,-2.3828,-2.4248,-2.4414,-2.4414,-2.4443,-2.4717,-2.5116,0.0,0.0,0.0,0.0,0.0,0.0,0.0,0.0,0.0,0.0,0.0,0.0,0.0,-2.2537,-2.2793,-2.3078,-2.2567,0.0,0.0,0.0,0.0,-2.312,-2.3308,-2.3064,-2.2353,-2.3412,-2.3291,-2.1894,-2.3703,-2.4901,-2.5558,-2.6598,-2.7381,-2.7971,-3.0093,-2.9239,-2.6276,-2.7293,-2.6154,-2.3748,-2.431,-2.3626,-2.2335,-2.2669,-2.2587,-2.2368,-2.2903,0.0,0.0,0.0,0.0,0.0,0.0,0.0,0.0,0.0,0.0,0.0,0.0,0.0,0.0,-2.3447,-2.3224,-2.3187,0.0,0.0,0.0,0.0,0.0,0.0,0.0,0.0,0.0,0.0,0.0,0.0,0.0,0.0,0.0,0.0,0.0,0.0,0.0,0.0,0.0,0.0,0.0,0.0,-2.3125,-2.3463,-2.3398,-2.2734,-2.2691,-2.2607,-2.2334,-2.2607,-2.2607,-2.2344,-2.2838,-2.2955,-2.2701,-2.2974,-2.3091,-2.3091,-2.3091,-2.3091,-2.311,-2.3266,-2.3369,-2.3389,-2.3491,-2.3549,-2.3617,-2.4209,-2.4521,-2.4736,0.0,0.0,0.0,0.0,0.0,0.0,0.0,0.0,0.0,-2.1447,0.0,0.0,0.0,0.0,-2.3108,-2.3108,-2.3108,-2.3108,-2.3108,-2.3108,-2.3108,-2.3108,-2.2854,-2.2665,-2.262,-2.3064,-2.2823,-2.1888,-2.3315,-2.4136,-2.4434,-2.5422,-2.6189,-2.6841,-2.9603,-2.9202,-2.6493,-2.7606,-2.6801,-2.4741,-2.4594,-2.3853,-2.2873,-2.3013,-2.2737,-2.2403,0.0,0.0,0.0,0.0,0.0,0.0,0.0,0.0,-2.3108,-2.3108,-2.3384,0.0,-2.3192,0.0,0.0,0.0,0.0,0.0,0.0,0.0,0.0,0.0,0.0,0.0,0.0,0.0,0.0,0.0,0.0,0.0,0.0,0.0,0.0,0.0,0.0,0.0,0.0,0.0,0.0,0.0,0.0,0.0,-2.292,-2.3275,-2.3148,-2.2305,-2.2305,-2.2168,-2.1885,-2.2168,-2.2158,-2.1894,-2.2451,-2.2646,-2.2519,-2.276,-2.2964,-2.3091,-2.3091,-2.3091,-2.3091,-2.3091,-2.3091,-2.3091,-2.3091,-2.3091,-2.3169,-2.3734,-2.4082,-2.4307,0.0,0.0,0.0,0.0,0.0,0.0,0.0,0.0,-2.3108,-2.3108,0.0,0.0,0.0,0.0,0.0,-2.3083,-2.3083,-2.3083,-2.3108,-2.3108,-2.3108,-2.3108,0.0,0.0,-2.386,-2.2638,-2.2372,-2.3177,-2.3735,-2.3715,-2.3301,-2.5398,-2.6097,-2.5598,-2.7268,-2.8009,-2.7936,-2.6938,-2.7063,-2.7712,-2.5085,-2.4013,-2.3883,-2.3255,-2.2741,0.0,-2.3415,-2.3471,0.0,-2.3117,0.0,0.0,0.0,-2.3103,-2.3108,-2.3108,-2.3108,-2.3108,0.0,0.0,0.0,0.0,0.0,0.0,0.0,0.0,0.0,0.0,0.0,0.0,0.0,0.0,0.0,0.0,0.0,0.0,0.0,0.0,0.0,0.0,0.0,0.0,0.0,0.0,0.0,0.0,0.0,-2.291,-2.251,-2.248,-2.2285,-2.1875,-2.1855,-2.1846,-2.1846,-2.1865,-2.1865,-2.1865,-2.1894,-2.2119,-2.251,-2.2519,-2.2711,-2.3091,-2.3091,-2.3091,-2.3091,-2.3091,-2.3091,-2.3091,-2.3091,-2.3091,-2.3091,-2.311,-2.3428,-2.3857,0.0,0.0,0.0,0.0,0.0,0.0,-2.2671,-2.2944,-2.3108,0.0,0.0,0.0,-2.3108,-2.2744,-2.2506,-2.2506,-2.2506,-2.2681,-2.3083,-2.3108,-2.3108,-2.3108,-2.3312,-2.2827,-2.1574,-2.2869,-2.2526,-2.04,-2.2489,-2.3069,-2.2309,-2.3478,-2.3935,-2.3847,-2.5126,-2.5691,-2.577,-2.6675,-2.6086,-2.4501,-2.4531,-2.4092,0.0,0.0,0.0,0.0,0.0,-2.3223,-2.3081,0.0,-2.3396,-2.3749,0.0,-2.3455,-2.3108,-2.3108,-2.3108,-2.3108,-2.3108,0.0,0.0,0.0,0.0,0.0,0.0,0.0,0.0,0.0,0.0,0.0,0.0,0.0,0.0,0.0,0.0,0.0,0.0,0.0,0.0,0.0,0.0,0.0,0.0,0.0,0.0,0.0,-2.2775,-2.2575,-2.2092,-2.1758,-2.1492,-2.1416,-2.1103,-2.0967,-2.0967,-2.125,-2.1375,-2.1385,-2.2041,-2.2402,-2.2519,-2.2779,-2.2984,-2.3091,-2.3091,-2.3091,-2.3091,-2.3091,-2.3091,-2.3091,-2.3091,-2.3091,-2.313,-2.3496,-2.3682,-2.3896,0.0,0.0,0.0,0.0,0.0,-2.231,-2.301,-2.2907,-2.2844,0.0,0.0,0.0,-2.2782,-2.2498,-2.2309,-2.2309,-2.2493,-2.2757,-2.3083,-2.3333,-2.3358,-2.3108,-2.3325,-2.3118,-2.2371,-2.3143,-2.2834,-2.135,-2.2838,-2.3102,-2.216,-2.2792,-2.3108,-2.3133,-2.3797,-2.4086,-2.4142,-2.5132,-2.5139,-2.4481,-2.4225,0.0,0.0,-2.3488,-2.3271,0.0,0.0,0.0,-2.3364,-2.3174,-2.3315,0.0,0.0,0.0,-2.3092,0.0,-2.3109,-2.3108,-2.3108,-2.3108,-2.3108,0.0,0.0,0.0,-2.3233,-2.341,0.0,0.0,0.0,0.0,0.0,0.0,0.0,0.0,0.0,0.0,0.0,0.0,0.0,0.0,0.0,0.0,0.0,0.0,0.0,-2.2246,-2.2331,-2.2151,-2.1652,-2.1201,-2.0957,-2.0957,-2.0742,-2.0605,-2.0605,-2.083,-2.0957,-2.0967,-2.1465,-2.1894,-2.2266,-2.251,-2.2769,-2.3091,-2.3091,-2.3091,-2.3091,-2.3091,-2.3091,-2.3091,-2.3091,-2.3091,-2.312,-2.3428,-2.3516,-2.3613,0.0,0.0,-2.2237,-2.29,-2.2606,-2.2443,-2.2945,-2.2594,-2.2443,0.0,-2.292,-2.2706,-2.2184,-2.2234,-2.2309,-2.2309,-2.2844,-2.3233,-2.3283,-2.3803,-2.3866,-2.3308,-2.2984,-2.3337,-2.4546,-2.3357,-2.3124,-2.3964,-2.392,-2.3475,-2.2613,-2.2942,-2.3108,-2.3108,-2.3108,-2.3108,-2.3108,-2.3108,0.0,-2.5955,-2.3916,-2.3726,0.0,0.0,-2.3453,-2.3143,-2.3573,-2.3711,-2.368,-2.3342,-2.3155,0.0,0.0,0.0,0.0,0.0,-2.3247,-2.3195,-2.3195,-2.3158,-2.3108,0.0,0.0,0.0,-2.3233,-2.3228,-2.3118,0.0,0.0,0.0,0.0,0.0,0.0,0.0,0.0,0.0,0.0,0.0,0.0,0.0,0.0,0.0,0.0,-2.1846,-2.1816,-2.1816,-2.1768,-2.1572,-2.1142,-2.0781,-2.0605,-2.0605,-2.0605,-2.0605,-2.0605,-2.0605,-2.0625,-2.0674,-2.0674,-2.1103,-2.1953,-2.1953,-2.2383,-2.3091,-2.3091,-2.3091,-2.3091,-2.3091,-2.3091,-2.3091,-2.3091,-2.3091,-2.3091,-2.3091,-2.3091,-2.3159,0.0,0.0,-2.2777,-2.2489,-2.2355,-2.2347,-2.2431,-2.2385,-2.2184,-2.1857,-2.1807,-2.1594,-2.1069,-2.1782,-2.2309,-2.2309,-2.3238,-2.4017,-2.4424,-2.4562,-2.4575,-2.4462,-2.3737,-2.3269,-2.3119,-2.2957,-2.2718,-2.2434,-2.3097,-2.3335,-2.3134,-2.3114,-2.3108,-2.3108,-2.3108,-2.3108,-2.3108,-2.3108,0.0,-2.3735,-2.3287,0.0,-2.3432,-2.3283,-2.3166,-2.3123,-2.32,-2.325,-2.3278,-2.3711,-2.3494,-2.325,0.0,0.0,0.0,-2.4325,0.0,0.0,0.0,0.0,0.0,0.0,0.0,0.0,-2.3233,-2.3492,-2.3587,0.0,0.0,0.0,0.0,0.0,0.0,0.0,0.0,0.0,0.0,0.0,0.0,0.0,0.0,0.0,0.0,-2.1562,-2.1317,-2.1317,-2.1025,-2.083,-2.0742,-2.0654,-2.0605,-2.0605,-2.0605,-2.0605,-2.0605,-2.0605,-2.0752,-2.1064,-2.1064,-2.1562,-2.2393,-2.2393,-2.2666,-2.3091,-2.3091,-2.3091,-2.3091,-2.3091,-2.3091,-2.3091,-2.3091,-2.3091,-2.3091,-2.3091,-2.3091,-2.3159,0.0,-2.2347,-2.2606,-2.2359,-2.2309,-2.2309,-2.2309,-2.2083,-2.1794,-2.1559,-2.1282,-2.1207,-2.1455,-2.1983,-2.2535,-2.31,-2.3916,-2.4519,-2.4775,-2.5059,-2.5096,-2.48,-2.4653,-2.43,-2.3773,-2.4085,-2.3849,-2.301,-2.3712,-2.3774,-2.3194,-2.3132,-2.2957,-2.2706,-2.2982,-2.2945,-2.2706,0.0,-2.3105,-2.3119,-2.3084,0.0,-2.3101,-2.3086,-2.3088,-2.3093,-2.3113,-2.311,-2.3188,-2.3722,-2.3535,0.0,0.0,-2.3984,-2.3998,0.0,-2.3979,-2.3941,0.0,0.0,0.0,-2.3108,0.0,0.0,0.0,-2.3183,-2.311,0.0,0.0,0.0,0.0,0.0,0.0,0.0,0.0,0.0,0.0,0.0,0.0,0.0,0.0,0.0,0.0,-2.1035,-2.0898,-2.0898,-2.0693,-2.0605,-2.0605,-2.0605,-2.0605,-2.0605,-2.0605,-2.0605,-2.0605,-2.0605,-2.0713,-2.0898,-2.0898,-2.1357,-2.2197,-2.2197,-2.2539,-2.3091,-2.3091,-2.3091,-2.3091,-2.3091,-2.3091,-2.3091,-2.3091,-2.3091,-2.3091,-2.3091,-2.3091,-2.312,-2.1295,-2.1857,-2.2284,-2.2171,-2.2234,-2.2309,-2.2309,-2.1933,-2.1606,-2.1506,-2.1031,-2.1119,-2.2184,-2.238,-2.3012,-2.4356,-2.4676,-2.4892,-2.5101,-2.5411,-2.5373,-2.4813,-2.5145,-2.5132,-2.465,-2.5008,-2.4796,-2.4004,-2.4443,-2.4161,-2.3271,-2.3158,-2.2869,-2.2456,-2.2907,-2.285,-2.2489,-2.2905,0.0,-2.311,0.0,-2.3103,-2.3127,-2.3209,-2.3193,-2.3116,-2.312,-2.3091,-2.3144,-2.3533,-2.3422,-2.3141,-2.3248,-2.3597,0.0,0.0,0.0,0.0,0.0,0.0,0.0,0.0,0.0,-2.3108,0.0,0.0,0.0,0.0,0.0,0.0,0.0,0.0,0.0,0.0,0.0,0.0,0.0,0.0,0.0,0.0,0.0,0.0,0.0,-2.0378,-2.0429,-2.0595,-2.0527,-2.0517,-2.0595,-2.0605,-2.0605,-2.0605,-2.0605,-2.0605,-2.0605,-2.0605,-2.0605,-2.0605,-2.0605,-2.1026,-2.1768,-2.1846,-2.2305,-2.2984,-2.3062,-2.3091,-2.3091,-2.3091,-2.3091,-2.3091,-2.3091,-2.3091,-2.3091,-2.3091,-2.3091,-2.3047,-2.0867,-2.1594,-2.2159,-2.1669,-2.1983,-2.2309,-2.2309,-2.2259,-2.2046,-2.1556,-2.1031,-2.1119,-2.2184,-2.2719,-2.386,-2.6034,-2.5363,-2.5212,-2.623,-2.585,-2.5345,-2.4818,-2.4576,-2.4359,-2.4117,-2.3872,-2.3815,-2.4004,-2.4067,-2.4029,-2.3891,-2.3346,-2.307,-2.3007,-2.3083,-2.3089,-2.3013,0.0,-2.3114,0.0,-2.3088,-2.3079,0.0,-2.3556,-2.3464,-2.3094,-2.311,-2.3091,-2.3095,0.0,-2.3153,-2.32,0.0,-2.3956,-2.4071,-2.4472,0.0,0.0,0.0,0.0,0.0,0.0,-2.3108,0.0,0.0,0.0,-2.3044,0.0,0.0,0.0,0.0,0.0,0.0,0.0,0.0,0.0,0.0,0.0,0.0,0.0,0.0,0.0,0.0,0.0,-1.9783,-2.0546,-2.0205,-2.0156,-2.0586,-2.0605,-2.0605,-2.0605,-2.0605,-2.0605,-2.0605,-2.0605,-2.0605,-2.0605,-2.0605,-2.083,-2.1278,-2.1709,-2.2139,-2.2607,-2.2935,-2.3091,-2.3091,-2.3091,-2.3091,-2.3091,-2.3091,-2.3091,-2.3091,-2.3091,-2.3091,-2.296,-2.1282,-2.1782,-2.2234,-2.2008,-2.2422,-2.2656,-2.2359,-2.1617,-2.0913,-2.0446,-1.9765,-2.0289,-2.283,-2.332,-2.438,-2.6773,0.0,-2.6807,0.0,0.0,-2.6004,-2.5695,-2.4966,-2.4308,-2.3725,-2.4075,-2.3781,-2.2799,-2.3611,-2.3828,-2.3459,-2.3221,-2.2932,-2.2644,-2.2957,0.0,-2.2659,0.0,-2.3498,0.0,0.0,0.0,0.0,-2.3438,-2.3284,-2.311,-2.3086,-2.308,-2.3132,0.0,-2.3398,0.0,0.0,0.0,0.0,0.0,0.0,0.0,0.0,0.0,0.0,0.0,0.0,0.0,-2.3184,0.0,-2.3509,0.0,0.0,0.0,0.0,0.0,0.0,0.0,0.0,0.0,0.0,0.0,0.0,0.0,0.0,0.0,0.0,0.0,0.0,0.0,0.0,-1.9521,-1.9443,-2.0194,-2.0488,-2.0195,-2.0478,-2.0605,-2.0605,-2.0605,-2.0605,-2.0605,-2.0605,-2.0801,-2.12,-2.1385,-2.1875,-2.2519,-2.2705,-2.2867,-2.3091,-2.3091,-2.3091,-2.3091,-2.3091,-2.3091,-2.3091,-2.3091,-2.3091,-2.2916,-2.1692,-2.1774,-2.1935,-2.1935,-2.22,-2.225,-2.1714,-2.0956,-2.038,-2.0265,-1.9865,-2.085,-2.4126,-2.4335,0.0,0.0,-2.7878,-2.7245,0.0,0.0,-2.5853,0.0,0.0,0.0,0.0,-2.4087,-2.3607,-2.1908,-2.2922,-2.3065,-2.2433,-2.2871,-2.2763,-2.2211,-2.283,-2.2877,-2.2574,0.0,-2.3597,-2.3647,-2.3943,-2.3874,-2.3551,-2.3209,-2.3093,-2.31,-2.3118,-2.3098,-2.3166,-2.3618,-2.3469,0.0,-2.363,0.0,0.0,0.0,0.0,0.0,-2.3234,0.0,0.0,0.0,0.0,0.0,0.0,0.0,0.0,0.0,0.0,0.0,0.0,0.0,0.0,0.0,0.0,0.0,0.0,0.0,0.0,0.0,0.0,0.0,0.0,0.0,0.0,0.0,-1.9043,-1.9023,-1.8792,-1.9932,-2.0458,-2.0098,-2.0439,-2.0605,-2.0605,-2.0605,-2.0605,-2.0605,-2.0605,-2.0732,-2.1055,-2.1142,-2.1531,-2.2178,-2.2412,-2.2685,-2.2925,-2.3052,-2.3091,-2.3091,-2.3091,-2.3091,-2.3091,-2.3091,-2.3091,-2.2862,-2.1892,-2.1414,-2.1039,-2.1039,0.0,0.0,0.0,0.0,0.0,0.0,0.0,0.0,0.0,0.0,0.0,0.0,0.0,-2.5597,-2.7159,0.0,-2.4358,0.0,0.0,-2.5388,0.0,0.0,-2.2989,-2.1908,-2.1963,-2.1545,-2.0719,-2.2341,-2.2689,-2.1947,-2.275,-2.3094,-2.3087,-2.3117,-2.3139,-2.3119,-2.3153,-2.313,-2.3118,0.0,-2.3098,-2.3091,-2.3105,0.0,0.0,-2.3125,-2.3122,0.0,0.0,0.0,0.0,0.0,0.0,0.0,0.0,0.0,0.0,-2.384,0.0,0.0,0.0,0.0,-2.3991,0.0,0.0,0.0,0.0,0.0,0.0,0.0,0.0,0.0,0.0,0.0,0.0,0.0,0.0,0.0,0.0,0.0,0.0,-1.8018,-1.8393,-1.8802,-1.9248,-2.0136,-2.0595,-2.0586,-2.0595,-2.0605,-2.0605,-2.0605,-2.0605,-2.0605,-2.0605,-2.0615,-2.0635,-2.1035,-2.121,-2.1278,-2.2107,-2.2519,-2.2568,-2.2925,-2.3091,-2.3091,-2.3091,-2.3091,-2.3091,-2.3091,-2.3091,-2.2775,-2.2051,-2.0805,-2.0047,-2.0617,0.0,0.0,0.0,-2.0893,0.0,0.0,0.0,0.0,0.0,-2.8819,-2.9144,0.0,0.0,-2.8523,-2.6187,-2.6041,0.0,0.0,0.0,-2.4132,0.0,0.0,0.0,-2.1049,-2.1049,-2.1447,-2.2249,-2.2279,-2.2445,-2.2702,0.0,-2.3096,0.0,0.0,0.0,0.0,0.0,-2.3394,-2.308,0.0,0.0,-2.3091,-2.3091,-2.3091,0.0,-2.3576,-2.3451,-2.319,-2.3557,-2.3425,-2.3089,-2.3096,-2.3114,0.0,0.0,0.0,-2.3144,-2.3332,0.0,0.0,0.0,0.0,0.0,0.0,0.0,0.0,0.0,0.0,0.0,0.0,0.0,0.0,0.0,0.0,0.0,0.0,0.0,0.0,0.0,0.0,0.0,-1.7096,-1.7262,-1.7314,0.0,-1.8815,-1.959,-1.9297,-2.0117,-2.0605,-2.0605,-2.0605,-2.0605,-2.0605,-2.0605,-2.0605,-2.0605,-2.0723,-2.0957,-2.122,-2.1846,-2.21,-2.2129,-2.2549,-2.2682,-2.2682,-2.2682,-2.2847,-2.3091,-2.3091,-2.258,-2.1607,-2.1243,-1.9814,0.0,0.0,0.0,0.0,0.0,0.0,0.0,0.0,-2.5543,0.0,-3.058,0.0,-3.09,0.0,-3.1009,-2.9732,-2.6388,-2.646,0.0,-2.438,-2.4643,0.0,0.0,0.0,0.0,0.0,0.0,-2.0984,-2.1779,-2.2138,-2.2279,-2.2249,0.0,-2.3108,-2.3108,0.0,-2.3557,0.0,0.0,-2.3362,0.0,0.0,-2.312,-2.3091,0.0,-2.3091,-2.3183,-2.3531,-2.3418,-2.3173,-2.3564,-2.3397,-2.3108,-2.3099,-2.31,-2.31,-2.3114,-2.3112,0.0,-2.336,-2.3293,0.0,-2.2984,0.0,0.0,0.0,0.0,0.0,0.0,0.0,0.0,0.0,0.0,0.0,0.0,0.0,0.0,0.0,0.0,0.0,0.0,0.0,-1.6153,-1.6219,-1.6521,-1.667,0.0,0.0,-1.9228,-1.9056,-2.0049,-2.0605,-2.0605,-2.0605,-2.0605,-2.0605,-2.0605,-2.0605,-2.0605,-2.0605,-2.0723,-2.1025,-2.1465,-2.165,-2.1689,-2.2109,-2.2373,-2.251,-2.251,-2.2773,-2.3091,-2.3091,-2.2041,-2.0436,0.0,0.0,0.0,0.0,-1.9308,0.0,0.0,0.0,-2.4923,0.0,-2.891,-2.9844,-3.1992,-3.2209,-3.1859,-3.1075,-3.0268,-2.9192,-2.7666,-2.6918,0.0,0.0,-2.4923,-2.4788,-2.3071,0.0,0.0,0.0,0.0,0.0,-1.9548,-2.1914,-2.2206,-2.0782,-2.2402,0.0,-2.3108,-2.3108,-2.3091,-2.3081,-2.3124,-2.3111,-2.3089,-2.3108,-2.3119,-2.3091,-2.3091,-2.3091,-2.3091,-2.3091,-2.3091,-2.3091,-2.3091,-2.3091,-2.3091,-2.3091,-2.3091,-2.3091,-2.3091,-2.3091,-2.3254,-2.3793,0.0,0.0,0.0,0.0,-2.3797,0.0,0.0,0.0,0.0,0.0,0.0,0.0,0.0,0.0,0.0,0.0,0.0,0.0,0.0,0.0,0.0,-1.6105,-1.5909,-1.5449,-1.6161,-1.6833,0.0,0.0,-1.9404,-1.9873,-2.0283,-2.0566,-2.0605,-2.0586,-2.0586,-2.0605,-2.0605,-2.0605,-2.0605,-2.0605,-2.0605,-2.0625,-2.1045,-2.1181,-2.12,-2.167,-2.21,-2.248,-2.2386,-2.2615,-2.2906,-2.2906,-2.1454,-1.9271,-1.9544,-1.8596,-1.8076,0.0,-1.9534,-2.0751,0.0,0.0,0.0,0.0,-3.0293,-3.1505,-3.2491,-3.2394,-3.1948,-3.105,-3.0663,0.0,0.0,0.0,0.0,-2.3908,-2.471,-2.427,-2.2266,-2.2216,0.0,-2.1897,0.0,0.0,-2.2116,-2.2182,-2.231,-2.2463,0.0,0.0,-2.3108,-2.3108,-2.3091,-2.3115,-2.3094,-2.3094,0.0,0.0,-2.3119,-2.3091,-2.3091,-2.3091,-2.3091,-2.3091,-2.3091,-2.3091,-2.3091,-2.3091,-2.3091,-2.3091,-2.3091,-2.3091,-2.3091,-2.3091,-2.3149,-2.3292,-2.2623,-2.1959,0.0,0.0,0.0,0.0,0.0,0.0,0.0,0.0,0.0,0.0,0.0,0.0,0.0,0.0,0.0,0.0,0.0,0.0,0.0,-1.629,-1.5909,-1.5449,-1.5625,-1.6054,0.0,0.0,0.0,-1.9414,-1.9561,-1.9959,-2.0595,-2.0244,-2.0244,-2.0605,-2.0605,-2.0605,-2.0605,-2.0605,-2.0605,-2.0625,-2.1045,-2.1045,-2.0771,-2.1221,-2.166,-2.1958,-2.102,-2.0567,-2.0404,-2.0404,-1.9451,-1.8048,-1.9028,0.0,0.0,-1.8008,0.0,0.0,-2.3734,0.0,0.0,-3.0632,-3.147,0.0,-3.2238,-3.2279,-3.1883,-3.081,-3.0566,0.0,-2.7228,0.0,0.0,-2.4153,-2.4426,-2.3773,-2.1955,-2.2119,0.0,-2.1906,0.0,0.0,-2.2001,-2.2298,-2.2266,0.0,0.0,-2.3108,-2.3099,-2.3098,-2.3095,-2.3086,-2.3095,0.0,0.0,-2.3124,-2.3119,-2.3091,-2.3091,-2.3091,-2.3091,-2.3091,-2.3091,-2.3091,-2.3091,-2.3091,-2.3091,-2.3091,-2.3091,-2.3091,-2.3091,-2.3091,-2.3091,-2.3091,-2.2418,-2.1756,-2.1756,-2.1269,-2.0781,0.0,0.0,0.0,0.0,0.0,0.0,0.0,0.0,0.0,0.0,0.0,0.0,0.0,0.0,0.0,0.0,-1.6035,-1.5674,-1.543,-1.541,0.0,0.0,0.0,0.0,-1.8975,-1.9365,-1.9697,-2.0038,-1.9766,-1.9853,-2.0283,-2.0283,-2.0381,-2.0605,-2.0605,-2.0605,-2.0615,-2.083,-2.0801,-2.0635,-2.1045,-2.1494,-2.179,-2.0903,-1.9802,-1.8726,-1.8726,-1.828,-1.7527,0.0,0.0,0.0,0.0,0.0,0.0,0.0,-2.815,0.0,-3.2247,0.0,-3.1586,-3.1247,-3.1517,-3.1204,-3.0022,0.0,-2.9011,-2.6993,-2.6616,-2.5798,-2.4405,-2.4115,-2.3378,-2.2102,-2.2051,-2.2051,0.0,0.0,0.0,-2.0788,0.0,0.0,0.0,0.0,0.0,0.0,-2.3086,-2.3091,-2.3087,-2.3117,-2.3109,-2.31,-2.3112,-2.3094,-2.3091,-2.3091,-2.3091,-2.3091,-2.3091,-2.3091,-2.3091,-2.3091,-2.3091,-2.3091,-2.3091,-2.3091,-2.3091,-2.3091,-2.3091,-2.3091,-2.3091,-2.2783,-2.2432,-2.2432,-2.2109,-2.1807,-2.1807,-2.1807,-2.1572,0.0,0.0,0.0,0.0,0.0,0.0,0.0,0.0,0.0,0.0,0.0,0.0,0.0,0.0,0.0,-1.5381,-1.5196,0.0,0.0,0.0,0.0,-1.8666,-1.9443,0.0,-1.9453,0.0,-1.9609,-2.0088,-1.9933,-2.0146,-2.0605,-2.0605,-2.0605,-2.0605,-2.0605,-2.0635,-2.0684,-2.0905,-2.1096,-2.1217,-2.0925,-1.9443,-1.7451,-1.7451,-1.7451,-1.7271,0.0,0.0,0.0,0.0,0.0,-2.4907,-2.6978,-3.0003,-3.1628,-3.0576,-3.0521,-3.0077,-2.8781,-2.8573,-2.833,-2.7914,-2.7909,0.0,0.0,0.0,0.0,-2.3987,-2.386,-2.3536,-2.2886,-2.2877,-2.2877,0.0,0.0,0.0,-2.1676,0.0,0.0,0.0,0.0,0.0,-2.3097,-2.3098,0.0,-2.3102,-2.309,-2.311,-2.3125,-2.3099,-2.3085,-2.3091,-2.3091,-2.3091,-2.3091,-2.3091,-2.3091,-2.3091,-2.3091,-2.3091,-2.3091,-2.3091,-2.3091,-2.3091,-2.3091,-2.3091,-2.3091,-2.3091,-2.2568,-2.1992,-2.1992,-2.166,-2.1307,-2.1307,-2.1307,-2.1259,-2.1103,0.0,0.0,0.0,0.0,0.0,0.0,0.0,0.0,0.0,0.0,0.0,0.0,0.0,0.0,0.0,0.0,0.0,0.0,0.0,0.0,0.0,0.0,0.0,0.0,0.0,-2.0205,-2.0956,-2.0225,-2.0146,-2.0605,-2.0605,-2.0605,-2.0605,-2.0605,-2.0781,-2.1003,-2.0105,-1.8981,-1.7872,-1.8202,-1.7444,-1.6109,-1.6109,-1.6109,-1.6109,0.0,0.0,0.0,0.0,0.0,0.0,0.0,-2.9579,0.0,-2.9298,-2.9172,-2.8707,-2.7338,-2.7279,-2.7227,-2.6899,-2.6722,-2.6321,-2.5629,-2.5228,-2.4651,-2.3824,-2.3574,0.0,-2.25,-2.2877,-2.2886,-2.249,0.0,0.0,-2.1902,0.0,0.0,0.0,0.0,-2.3261,0.0,0.0,0.0,-2.3091,-2.3091,-2.3091,-2.3091,-2.3091,-2.3091,-2.3091,-2.3091,-2.3091,-2.3091,-2.3091,-2.3091,-2.3091,-2.3091,-2.3091,-2.3052,-2.2838,-2.2925,-2.3052,-2.2828,-2.2769,-2.2769,-2.2769,-2.2178,-2.1553,-2.1553,-2.1201,-2.0889,-2.0889,-2.0889,-2.0889,-2.0889,-2.0537,0.0,0.0,0.0,0.0,0.0,0.0,0.0,0.0,0.0,0.0,0.0,0.0,0.0,0.0,0.0,0.0,0.0,0.0,0.0,0.0,0.0,0.0,0.0,0.0,0.0,-2.0508,-2.0117,-2.0146,-2.0605,-2.0605,-2.0605,-2.0605,-2.0605,-2.082,-2.1139,-2.037,-1.9008,-1.7406,-1.7624,-1.6897,-1.5784,-1.5784,-1.5784,-1.5784,0.0,-2.0129,0.0,0.0,-2.4351,0.0,-2.7316,-2.8418,-2.8893,-2.8323,-2.809,-2.7566,-2.6486,-2.6602,-2.6533,-2.6016,-2.5742,-2.5255,-2.4487,-2.4149,-2.3801,-2.3413,-2.3223,-2.2789,-2.2168,-2.276,-2.2769,0.0,0.0,0.0,0.0,0.0,0.0,0.0,0.0,0.0,0.0,0.0,-2.3091,-2.3091,-2.3091,-2.3091,-2.3091,-2.3091,-2.3091,-2.3091,-2.3091,-2.3091,-2.3091,-2.3091,-2.3091,-2.3091,-2.3091,-2.3091,-2.3033,-2.2744,-2.2838,-2.3023,-2.2691,-2.2578,-2.251,-2.251,-2.1824,-2.119,-2.119,-2.0889,-2.0605,-2.0605,-2.0605,-2.0605,-2.0605,-2.0605,0.0,0.0,0.0,0.0,0.0,0.0,0.0,0.0,0.0,0.0,0.0,0.0,0.0,0.0,0.0,0.0,0.0,0.0,0.0,0.0,0.0,-1.9355,-1.9775,0.0,-1.9678,0.0,-2.001,-2.0146,-2.0605,-2.0605,-2.0605,-2.0576,-2.042,-2.0339,-2.0274,-2.0121,-1.897,-1.7318,-1.7318,-1.6669,-1.5784,-1.5784,-1.5784,-1.5784,0.0,0.0,0.0,0.0,0.0,0.0,0.0,-2.7186,-2.7153,-2.7695,-2.7402,-2.6958,-2.6426,-2.6074,-2.5469,-2.4678,-2.4575,-2.3869,-2.2285,-2.3202,-2.3325,-2.2109,-2.2711,-2.3062,-2.2984,-2.3052,-2.3052,0.0,0.0,0.0,0.0,0.0,0.0,0.0,0.0,0.0,0.0,-2.3128,-2.3091,-2.3091,-2.3091,-2.3091,-2.3091,-2.3091,-2.3091,-2.3091,-2.3091,-2.3091,-2.3091,-2.3091,-2.3091,-2.3091,-2.3091,-2.3091,-2.3091,-2.3052,-2.3062,-2.3081,-2.3052,-2.276,-2.251,-2.251,-2.1824,-2.119,-2.119,-2.0889,-2.0605,-2.0605,-2.0605,-2.0605,-2.0605,-2.0605,-2.0488,0.0,0.0,0.0,0.0,0.0,0.0,0.0,0.0,0.0,0.0,0.0,0.0,0.0,0.0,0.0,0.0,0.0,0.0,-1.8071,0.0,-1.887,-1.9346,-1.9687,0.0,-2.1064,-2.0303,-2.0146,-2.0605,-2.0605,-2.0605,-2.0547,-1.982,-1.871,-1.7408,-1.7796,-1.7188,-1.5967,-1.5967,-1.5927,-1.5784,-1.5784,-1.5784,-1.5784,0.0,0.0,0.0,0.0,0.0,0.0,0.0,-2.7084,-2.6634,-2.6908,-2.6523,-2.6084,-2.5644,-2.5439,-2.499,-2.4121,-2.4043,-2.3643,-2.2705,-2.3115,-2.313,-2.2656,-2.2916,-2.3091,-2.3091,-2.3091,-2.3091,0.0,0.0,0.0,0.0,0.0,0.0,0.0,0.0,-2.3309,-2.3622,-2.3261,-2.3091,-2.3091,-2.3091,-2.3091,-2.3091,-2.3091,-2.3091,-2.3091,-2.3091,-2.3091,-2.3091,-2.3091,-2.3091,-2.3091,-2.3091,-2.3091,-2.3042,-2.2789,-2.2896,-2.3042,-2.2789,-2.2461,-2.2139,-2.2139,-2.1475,-2.083,-2.083,-2.0732,-2.0605,-2.0605,-2.0605,-2.0605,-2.0605,-2.0605,-2.0546,0.0,0.0,0.0,0.0,0.0,0.0,0.0,0.0,0.0,0.0,0.0,0.0,0.0,0.0,0.0,0.0,0.0,0.0,-1.9121,0.0,-1.9709,-2.0449,-2.0098,-2.0225,-2.083,-2.0469,-2.0429,-2.0605,-2.0605,-2.0752,-2.0907,-2.0104,-1.9119,-1.8039,-1.7819,-1.6943,-1.5784,-1.5784,-1.5784,-1.5784,-1.5784,-1.5784,-1.5784,-2.545,0.0,-2.4687,0.0,-2.6122,-2.6131,-2.748,-2.6843,-2.6152,-2.6016,-2.585,-2.5566,-2.5117,-2.4891,-2.4394,-2.3662,-2.3603,-2.331,-2.2584,-2.2886,-2.2984,-2.2783,-2.2964,0.0,-2.3091,-2.3091,-2.3091,-2.3091,-2.189,0.0,0.0,0.0,0.0,0.0,-2.3378,-2.3334,-2.373,-2.3271,-2.3091,-2.3091,-2.3091,-2.3091,-2.3091,-2.3091,-2.3091,-2.3091,-2.3091,-2.3091,-2.3091,-2.3091,-2.3091,-2.3091,-2.3091,-2.3091,-2.3033,-2.274,-2.2867,-2.3003,-2.2627,-2.2207,-2.1855,-2.1728,-2.1123,-2.0605,-2.0605,-2.0605,-2.0605,-2.0605,-2.0605,-2.0605,-2.0605,-2.0605,-2.0556,-2.0429,0.0,0.0,0.0,0.0,0.0,0.0,-1.876,-1.8325,-1.8578,0.0,0.0,0.0,0.0,0.0,0.0,0.0,0.0,0.0,0.0,0.0,0.0,-1.9668,-1.9545,-2.0128,-1.9795,-1.9638,-1.9638,-1.972,-1.9863,-1.9946,-1.935,-1.8674,-1.7871,-1.7348,-1.6622,-1.5784,-1.5784,-1.5784,-1.5784,-1.5784,-1.5784,-1.5784,-2.5547,-2.6055,-2.6621,-2.7532,-2.7275,-2.6855,-2.6495,-2.6025,-2.5586,-2.5184,-2.5469,-2.5566,-2.5117,-2.4316,-2.3633,-2.314,-2.3101,-2.2565,-2.1298,-2.2399,-2.2773,0.0,0.0,-2.3091,-2.3091,-2.3091,-2.3091,-2.3091,0.0,0.0,-2.189,0.0,-2.265,-2.3974,-2.3378,-2.3091,-2.3101,-2.3091,-2.3091,-2.3091,-2.3091,-2.3091,-2.3091,-2.3091,-2.3091,-2.3091,-2.3091,-2.3091,-2.3091,-2.3091,-2.3091,-2.3091,-2.3091,-2.3091,-2.3091,-2.3091,-2.3091,-2.3003,-2.2627,-2.2207,-2.1787,-2.1307,-2.0898,-2.0605,-2.0605,-2.0605,-2.0605,-2.0605,-2.0605,-2.0605,-2.0605,-2.0605,-2.0458,-1.999,0.0,0.0,0.0,0.0,0.0,0.0,-1.8428,-1.7725,-1.852,0.0,0.0,0.0,0.0,0.0,0.0,0.0,0.0,-1.8008,-1.7627,0.0,-1.8627,-1.8036,-1.8143,-1.9006,-1.7868,-1.7334,-1.735,-1.7672,-1.7537,-1.7056,-1.7018,-1.6582,-1.5825,-1.5825,-1.5825,-1.5784,-1.5784,-1.5784,-1.5784,-1.5784,-1.5784,-1.5784,-2.4834,-2.5674,-2.6289,-2.5996,-2.6279,-2.6445,-2.6006,-2.5781,-2.5635,-2.5547,-2.5381,-2.5107,-2.4668,-2.4385,-2.3926,0.0,-2.2617,-2.2353,0.0,-2.2373,-2.2422,-2.2734,-2.2451,-2.2285,-2.2285,-2.2285,-2.2285,-2.2285,0.0,0.0,0.0,-2.1915,-2.2446,-2.3388,-2.3208,-2.3091,-2.3091,-2.3091,-2.3091,-2.3091,-2.3091,-2.3091,-2.3091,-2.3091,-2.3091,-2.3091,-2.3091,-2.3091,-2.3091,-2.3091,-2.3091,-2.3091,-2.3091,-2.3091,-2.3091,-2.3091,-2.3091,-2.3003,-2.2627,-2.2412,-2.2139,-2.1375,-2.1083,-2.0937,-2.0674,-2.0605,-2.0605,-2.0605,-2.0605,-2.0605,-2.0605,-2.0605,-2.0458,-1.999,-2.0283,0.0,0.0,0.0,0.0,0.0,-1.8529,-1.8305,0.0,-1.7974,0.0,0.0,0.0,0.0,0.0,0.0,0.0,0.0,-2.004,0.0,-1.9543,-1.9087,-1.8711,-1.8456,-1.8077,-1.7907,-1.7907,-1.8022,-1.8116,-1.8187,-1.7342,-1.7042,-1.7037,-1.6157,-1.5784,-1.5784,-1.5784,-1.5784,-1.5784,-1.5784,-1.5784,-1.5784,-2.4961,-2.5703,-2.6221,-2.5654,-2.6025,-2.624,-2.5752,-2.5693,-2.5625,-2.5508,-2.5244,-2.4902,-2.4463,-2.4277,0.0,-2.3149,-2.2656,-2.2578,-2.3062,-2.2646,-2.2588,-2.3071,-2.2637,-2.2353,-2.2353,0.0,0.0,-2.2353,-2.2366,-2.2339,-2.2339,-2.2339,-2.2625,-2.3091,-2.3091,-2.3091,-2.3091,-2.3091,-2.3091,-2.3091,-2.3091,-2.3091,-2.3091,-2.3091,-2.3091,-2.3091,-2.3091,-2.3091,-2.3091,-2.3091,-2.3091,-2.3091,-2.3091,-2.3091,-2.3091,-2.3091,-2.2984,-2.2769,-2.2393,-2.2275,-2.2109,-2.1366,-2.1317,-2.1367,-2.0918,-2.0723,-2.0605,-2.0605,-2.0605,-2.0605,-2.0605,-2.0605,-2.0517,-2.0205,-2.0429,-2.0449,-1.9971,0.0,0.0,0.0,0.0,0.0,0.0,-1.874,0.0,0.0,0.0,0.0,0.0,0.0,0.0,-2.0664,-2.0898,0.0,-1.977,-1.9123,-1.8398,-1.7593,-1.7208,-1.7058,-1.7136,-1.7136,-1.7363,-1.7622,-1.6859,-1.6704,-1.6897,-1.6109,-1.5784,-1.5784,-1.5784,-1.5784,-1.5784,-1.5784,-1.5784,-1.5784,-2.5606,-2.6025,0.0,0.0,-2.6338,0.0,-2.5791,-2.5703,-2.5576,-2.5127,-2.5116,-2.4893,-2.4424,-2.4023,-2.3613,-2.313,0.0,0.0,0.0,-2.3042,-2.3033,-2.3091,-2.3042,-2.3013,-2.3013,-2.3037,-2.3023,-2.3091,-2.3091,-2.3091,-2.3091,-2.3091,-2.3091,-2.3091,-2.3091,-2.3091,-2.3091,-2.3091,-2.3091,-2.3091,-2.3091,-2.3091,-2.3091,-2.3091,-2.3091,-2.3091,-2.3091,-2.3091,-2.3091,-2.3091,-2.3091,-2.3091,-2.3091,-2.3091,-2.3091,-2.3091,-2.2818,-2.2461,-2.2041,-2.1953,-2.1865,-2.1356,-2.1562,-2.1728,-2.1249,-2.0869,-2.0605,-2.0605,-2.0605,-2.0605,-2.0605,-2.0605,-2.0605,-2.0605,-2.0605,-2.0449,-1.9971,0.0,0.0,0.0,0.0,0.0,0.0,-1.957,-1.9355,0.0,0.0,0.0,0.0,0.0,-1.91,-2.0068,-2.0401,-2.0205,-1.9404,-1.833,-1.7348,-1.6529,-1.5542,-1.5209,-1.5424,-1.5424,-1.5571,-1.5784,-1.5784,-1.5784,-1.5784,-1.5784,-1.5784,-1.5784,-1.5784,-1.5784,-1.5784,-1.5784,-1.5784,-1.5784,0.0,0.0,-2.5889,-2.5889,-2.5889,-2.5967,-2.6201,-2.5947,-2.5576,-2.5127,-2.5116,-2.4822,-2.4023,-2.3848,-2.3613,-2.313,-2.2549,-2.2451,-2.3052,-2.2539,-2.2471,-2.3062,-2.2519,-2.2178,-2.2178,-2.2178,-2.2483,-2.3091,-2.3091,-2.3091,-2.3091,-2.3091,-2.3091,-2.3091,-2.3091,-2.3091,-2.3091,-2.3091,-2.3091,-2.3091,-2.3091,-2.3091,-2.3091,-2.3091,-2.3091,-2.3091,-2.3091,-2.3091,-2.3091,-2.3091,-2.3091,-2.3091,-2.3091,-2.3091,-2.3091,-2.3091,-2.3023,-2.2857,-2.248,-2.2598,-2.2623,-2.1914,-2.1562,-2.1269,-2.082,-2.0683,-2.0605,-2.0605,-2.0605,-2.0605,-2.0605,-2.0605,-2.0605,-2.0605,-2.0605,-2.0449,-1.9971,-1.9912,0.0,0.0,-1.9241,-1.957,-1.9443,-1.9979,-2.0028,0.0,0.0,0.0,0.0,-1.9303,-2.0049,-2.1824,-2.1118,-2.0266,-1.9457,-1.8316,-1.7141,-1.5978,-1.5712,-1.5658,-1.5732,-1.5732,-1.5718,-1.5784,-1.5784,-1.5784,-1.5784,-1.5784,-1.5784,-1.5784,-1.5784,-1.5784,-1.5784,-1.5784,-1.5784,-1.5784,-2.5021,-2.5362,-2.5693,-2.5693,-2.5693,-2.5771,-2.6055,-2.584,-2.5576,-2.5127,-2.4893,-2.4521,-2.3857,-2.3613,-2.3398,-2.311,-2.2682,-2.2613,-2.3062,-2.2672,-2.2656,-2.3081,-2.2705,-2.2461,-2.2461,-2.246,-2.2644,-2.3091,-2.3091,-2.3091,-2.3091,-2.3091,-2.3091,-2.3091,-2.3091,-2.3091,-2.3091,-2.3091,-2.3091,-2.3091,-2.3091,-2.3091,-2.3091,-2.3091,-2.3091,-2.3091,-2.3091,-2.3091,-2.3091,-2.3091,-2.3091,-2.3091,-2.3091,-2.3091,-2.3091,-2.3091,-2.2955,-2.276,-2.2578,-2.2539,-2.2461,-2.2002,-2.1562,-2.1132,-2.0928,-2.0752,-2.0605,-2.0605,-2.0772,-2.081,-2.0644,-2.0732,-2.0801,-2.0635,-2.0439,-2.0117,-1.9687,-1.9629,0.0,-1.8994,-1.9512,-1.998,-2.0156,-2.0596,-2.0684,-2.0205,0.0,0.0,-1.9342,-1.9029,-1.9625,-2.1316,-2.0578,-1.9704,-1.868,-1.7451,-1.648,-1.5784,-1.5784,-1.5784,-1.5784,-1.5784,-1.5784,-1.5784,-1.5784,-1.5784,-1.5784,-1.5784,-1.5784,-1.5784,-1.5784,-1.5784,-1.5784,-1.5784,-1.5784,-1.5784,-2.5693,-2.5693,-2.5713,-2.5771,-2.5732,-2.5693,-2.5693,-2.5635,-2.5449,-2.4988,-2.4551,-2.416,-2.374,-2.3315,-2.3091,-2.3091,-2.3091,-2.3091,-2.3091,-2.3091,-2.3091,-2.3091,-2.3091,-2.3091,-2.3091,-2.3091,-2.3091,-2.3091,-2.3091,-2.3091,-2.3091,-2.3091,-2.3091,-2.3091,-2.3091,-2.3091,-2.3091,-2.3091,-2.3091,-2.3091,-2.3091,-2.3091,-2.3091,-2.3091,-2.3091,-2.3091,-2.3091,-2.3091,-2.3091,-2.3091,-2.3091,-2.3091,-2.3091,-2.3091,-2.3091,-2.3091,-2.2847,-2.2598,-2.2529,-2.2207,-2.1865,-2.1807,-2.1504,-2.1181,-2.1112,-2.084,-2.0625,-2.0693,-2.0967,-2.1123,-2.0732,-2.0977,-2.1064,-2.0586,-2.0156,-1.9766,-1.9346,0.0,-1.9385,-1.9385,-1.9814,-2.041,-2.1122,-2.1249,-2.1247,-2.1036,-2.0266,-1.9633,0.0,-1.8641,-1.8662,-1.9512,-1.9321,-1.8634,-1.7412,-1.6339,-1.5784,-1.5784,-1.5784,-1.5784,-1.5784,-1.5784,-1.5784,-1.5784,-1.5784,-1.5784,-1.5784,-1.5784,-1.5784,-1.5784,-1.5784,-1.5784,-1.5784,-1.5784,-1.5784,-1.5784,-2.5693,-2.5693,-2.581,-2.6221,-2.5977,-2.5693,-2.5693,-2.541,-2.493,-2.4092,-2.3926,-2.3721,-2.3247,-2.314,-2.3091,-2.3091,-2.3091,-2.3091,-2.3091,-2.3091,-2.3091,-2.3091,-2.3091,-2.3091,-2.3091,-2.3091,-2.3091,-2.3091,-2.3091,-2.3091,-2.3091,-2.3091,-2.3091,-2.3091,-2.3091,-2.3091,-2.3091,-2.3091,-2.3091,-2.3091,-2.3091,-2.3091,-2.3091,-2.3091,-2.3091,-2.3091,-2.3091,-2.3091,-2.3091,-2.3091,-2.3091,-2.3091,-2.3091,-2.3091,-2.3091,-2.3091,-2.3052,-2.2916,-2.2607,-2.2207,-2.1797,-2.1385,-2.1239,-2.1093,-2.0752,-2.0654,-2.0713,-2.1055,-2.1142,-2.1171,-2.1103,-2.1151,-2.0927,-2.0146,-1.9961,-1.9766,-1.9346,0.0,-1.9814,-1.9814,-2.0498,-2.1044,-2.1181,-2.1562,-2.1345,-2.0291,-2.0995,-2.0611,-1.8504,-1.8584,-1.833,-1.7483,-1.7789,-1.7358,-1.6109,-1.592,-1.5784,-1.5784,-1.5784,-1.5784,-1.5784,-1.5784,-1.5784,-1.5784,-1.5784,-1.5784,-1.5784,-1.5784,-1.5784,-1.5784,-1.5784,-1.5784,-1.5784,-1.5784,-1.5784,-1.5784,-2.5693,-2.5693,-2.5752,-2.6006,-2.582,-2.5606,-2.541,-2.5205,-2.4812,-2.3896,-2.3789,-2.3623,-2.314,-2.3091,-2.3091,-2.3091,-2.3091,-2.3091,-2.3091,-2.3091,-2.3091,-2.3091,-2.3091,-2.3091,-2.3091,-2.3091,-2.3091,-2.3091,-2.3091,-2.3091,-2.3091,-2.3091,-2.3091,-2.3091,-2.3091,-2.3091,-2.3091,-2.3091,-2.3091,-2.3091,-2.3091,-2.3091,-2.3091,-2.3091,-2.3091,-2.3091,-2.3091,-2.3091,-2.3091,-2.3091,-2.3091,-2.3091,-2.3091,-2.3091,-2.3091,-2.3091,-2.2935,-2.2672,-2.2295,-2.1865,-2.1426,-2.0986,-2.0869,-2.082,-2.0644,-2.0752,-2.0986,-2.1151,-2.1561,-2.1736,-2.1278,-2.1426,-2.1299,-2.041,-2.0068,0.0,0.0,-2.0,-2.0264,-2.0264,-2.1045,-2.167,-2.1863,-2.2109,-2.1997,-2.1367,-2.0878,-1.9974,-1.8581,-1.7659,-1.6938,-1.639,-1.6537,-1.6386,-1.5832,-1.5784,-1.5784,-1.5784,-1.5784,-1.5784,-1.5784,-1.5784,-1.5784,-1.5784,-1.5784,-1.5784,-1.5784,-1.5784,-1.5784,-1.5784,-1.5784,-1.5784,-1.5784,-1.5784,-1.5784,-1.5784,-2.5693,-2.5693,-2.5654,-2.5596,-2.5586,-2.54,-2.4853,-2.4822,-2.4502,-2.374,-2.3633,-2.3516,-2.313,-2.3091,-2.3091,-2.3091,-2.3091,-2.3091,-2.3091,-2.3091,-2.3091,-2.3091,-2.3091,-2.3091,-2.3091,-2.3091,-2.3091,-2.3091,-2.3091,-2.3091,-2.3091,-2.3091,-2.3091,-2.3091,-2.3091,-2.3091,-2.3091,-2.3091,-2.3091,-2.3091,-2.3091,-2.3091,-2.3091,-2.3091,-2.3091,-2.3091,-2.3091,-2.3091,-2.3091,-2.3091,-2.3091,-2.3091,-2.3091,-2.3091,-2.3091,-2.3091,-2.2799,-2.2422,-2.2002,-2.1562,-2.1083,-2.0713,-2.0683,-2.0723,-2.0723,-2.1064,-2.1375,-2.1473,-2.2009,-2.2314,-2.1609,-2.1728,-2.1602,-2.0752,0.0,0.0,0.0,-2.0439,-2.0801,-2.0899,-2.1603,-2.2158,-2.248,-2.2555,-2.2528,-2.2251,-2.0784,-1.9509,-1.8599,-1.7079,-1.6109,-1.5832,-1.5784,-1.5784,-1.5784,-1.5784,-1.5784,-1.5784,-1.5784,-1.5784,-1.5784,-1.5784,-1.5784,-1.5784,-1.5784,-1.5784,-1.5784,-1.5784,-1.5784,-1.5784,-1.5784,-1.5784,-1.5784,-1.5784,-1.5784,-1.5784,-2.5693,-2.5693,-2.5605,-2.5195,-2.5117,-2.4844,-2.4014,-2.3887,-2.3721,-2.3198,-2.314,-2.313,-2.3101,-2.3091,-2.3091,-2.3091,-2.3091,-2.3091,-2.3091,-2.3091,-2.3091,-2.3091,-2.3091,-2.3091,-2.3091,-2.3091,-2.3091,-2.3091,-2.3091,-2.3091,-2.3091,-2.3091,-2.3091,-2.3091,-2.3091,-2.3091,-2.3091,-2.3091,-2.3091,-2.3091,-2.3091,-2.3091,-2.3091,-2.3091,-2.3091,-2.3091,-2.3091,-2.3091,-2.3091,-2.3091,-2.3091,-2.3091,-2.3091,-2.3091,-2.3091,-2.3091,-2.2799,-2.2422,-2.2002,-2.1562,-2.1083,-2.0713,-2.0879,-2.1142,-2.1142,-2.1523,-2.1943,-2.2344,-2.2471,-2.249,-2.2432,-2.2129,-2.1602,-2.0752,0.0,0.0,-2.0556,-2.0908,-2.1338,-2.1738,-2.2187,-2.248,-2.251,-2.2818,-2.2585,-2.1479,-2.123,-2.0198,-1.7879,-1.763,-1.7037,-1.5825,-1.5784,-1.5784,-1.5784,-1.5784,-1.5784,-1.5784,-1.5784,-1.5784,-1.5784,-1.5784,-1.5784,-1.5784,-1.5784,-1.5784,-1.5784,-1.5784,-1.5784,-1.5784,-1.5784,-1.5784,-1.5784,-1.5784,-1.5784,-1.5784,-2.5693,-2.5693,-2.5547,-2.5194,-2.5116,-2.4822,-2.3926,-2.3789,-2.3633,-2.3149,-2.3091,-2.3091,-2.3091,-2.3091,-2.3091,-2.3091,-2.3091,-2.3091,-2.3091,-2.3091,-2.3091,-2.3091,-2.3091,-2.3091,-2.3091,-2.3091,-2.3091,-2.3091,-2.3091,-2.3091,-2.3091,-2.3091,-2.3091,-2.3091,-2.3091,-2.3091,-2.3091,-2.3091,-2.3091,-2.3091,-2.3091,-2.3091,-2.3091,-2.3091,-2.3091,-2.3091,-2.3091,-2.3091,-2.3091,-2.3091,-2.3091,-2.3091,-2.3091,-2.3091,-2.3091,-2.3091,-2.2984,-2.2769,-2.2383,-2.1963,-2.1602,-2.1426,-2.1514,-2.1641,-2.1641,-2.1973,-2.2324,-2.248,-2.2715,-2.2822,-2.2559,-2.2383,-2.208,-2.1484,0.0,-2.1427,-2.1427,-2.1758,-2.209,-2.2256,-2.2646,-2.2578,-2.1851,-2.1894,-2.1489,-2.026,-1.9488,-1.8688,-1.7738,-1.6943,-1.6292,-1.5825,-1.5784,-1.5784,-1.5784,-1.5784,-1.5784,-1.5784,-1.5784,-1.5784,-1.5784,-1.5784,-1.5784,-1.5784,-1.5784,-1.5784,-1.5784,-1.5784,-1.5784,-1.5784,-1.5784,-1.5784,-1.5784,-1.5784,-1.5784,-1.5784,-2.5527,-2.5527,-2.5342,-2.4766,-2.4715,-2.4424,-2.3691,-2.3584,-2.3477,-2.314,-2.3091,-2.3091,-2.3091,-2.3091,-2.3091,-2.3091,-2.3091,-2.3091,-2.3091,-2.3091,-2.3091,-2.3091,-2.3091,-2.3091,-2.3091,-2.3091,-2.3091,-2.3091,-2.3091,-2.3091,-2.3091,-2.3091,-2.3091,-2.3091,-2.3091,-2.3091,-2.3091,-2.3091,-2.3091,-2.3091,-2.3091,-2.3091,-2.3091,-2.3091,-2.3091,-2.3091,-2.3091,-2.3091,-2.3091,-2.3091,-2.3091,-2.3091,-2.3091,-2.3091,-2.3091,-2.3091,-2.3091,-2.3033,-2.274,-2.25,-2.2217,-2.1953,-2.1982,-2.209,-2.209,-2.2412,-2.2672,-2.2672,-2.2896,-2.3013,-2.2721,-2.2607,-2.2412,-2.2129,-2.209,-2.209,-2.209,-2.2441,-2.2672,-2.2672,-2.2601,-2.2217,-2.1382,-2.1293,-2.08,-1.9579,-1.8726,-1.7909,-1.7131,-1.6244,-1.5784,-1.5784,-1.5784,-1.5784,-1.5784,-1.5784,-1.6015,-1.6386,-1.5967,-1.5784,-1.5784,-1.5784,-1.5784,-1.5784,-1.5784,-1.5784,-1.5784,-1.5784,-1.5784,-1.5784,-1.5784,-1.5784,-1.5784,-1.5784,-1.5784,-1.5784,-2.5106,-2.5106,-2.4842,-2.3935,-2.3789,-2.3643,-2.3159,-2.3091,-2.3091,-2.3091,-2.3091,-2.3091,-2.3091,-2.3091,-2.3091,-2.3091,-2.3091,-2.3091,-2.3091,-2.3091,-2.3091,-2.3091,-2.3091,-2.3091,-2.3091,-2.3091,-2.3091,-2.3091,-2.3091,-2.3091,-2.3091,-2.3091,-2.3091,-2.3091,-2.3091,-2.3091,-2.3091,-2.3091,-2.3091,-2.3091,-2.3091,-2.3091,-2.3091,-2.3091,-2.3091,-2.3091,-2.3091,-2.3091,-2.3091,-2.3091,-2.3091,-2.3091,-2.3091,-2.3091,-2.3091,-2.3091,-2.3091,-2.3091,-2.3091,-2.3091,-2.2896,-2.21,-2.2207,-2.2519,-2.2519,-2.2789,-2.3091,-2.3091,-2.3091,-2.3091,-2.3091,-2.275,-2.2519,-2.2519,-2.2519,-2.2519,-2.2467,-2.2828,-2.3091,-2.3047,-2.2031,-2.1293,-2.1293,-2.1293,-2.08,-1.9579,-1.9497,-1.8395,-1.592,-1.5784,-1.5784,-1.5784,-1.5784,-1.5784,-1.5825,-1.5825,-1.6433,-1.7692,-1.6433,-1.5832,-1.5784,-1.5784,-1.5784,-1.5784,-1.5784,-1.5784,-1.5784,-1.5784,-1.5784,-1.5784,-1.5784,-1.5784,-1.5784,-1.5784,-1.5784,-1.5784,-2.4668,-2.4609,-2.4443,-2.3887,-2.3789,-2.3643,-2.3159,-2.3091,-2.3091,-2.3091,-2.3091,-2.3091,-2.3091,-2.3091,-2.3091,-2.3091,-2.3091,-2.3091,-2.3091,-2.3091,-2.3091,-2.3091,-2.3091,-2.3091,-2.3091,-2.3091,-2.3091,-2.3091,-2.3091,-2.3091,-2.3091,-2.3091,-2.3091,-2.3091,-2.3091,-2.3091,-2.3091,-2.3091,-2.3091,-2.3091,-2.3091,-2.3091,-2.3091,-2.3091,-2.3091,-2.3091,-2.3091,-2.3091,-2.3091,-2.3091,-2.3091,-2.3091,-2.3091,-2.3091,-2.3091,-2.3091,-2.3091,-2.3091,-2.3091,-2.3091,-2.3033,-2.2779,-2.2818,-2.2906,-2.2906,-2.3003,-2.3091,-2.3091,-2.3091,-2.3091,-2.3091,-2.2994,-2.2906,-2.2906,-2.2906,-2.2635,-2.1766,-2.1771,-2.1534,-2.0674,-2.026,-2.0034,-2.0034,-1.9268,-1.8634,-1.828,-1.7397,-1.656,-1.5825,-1.5784,-1.5784,-1.5784,-1.5784,-1.6251,-1.7131,-1.7131,-1.6904,-1.6386,-1.6897,-1.6669,-1.5784,-1.5784,-1.5784,-1.5784,-1.5784,-1.5784,-1.5784,-1.5784,-1.5784,-1.5784,-1.5784,-1.5784,-1.5784,-1.5784,-1.5784,-1.5784,-2.4219,-2.417,-2.4033,-2.3603,-2.3525,-2.3437,-2.314,-2.3091,-2.3091,-2.3091,-2.3091,-2.3091,-2.3091,-2.3091,-2.3091,-2.3091,-2.3091,-2.3091,-2.3091,-2.3091,-2.3091,-2.3091,-2.3091,-2.3091,-2.3091,-2.3091,-2.3091,-2.3091,-2.3091,-2.3091,-2.3091,-2.3091,-2.3091,-2.3091,-2.3091,-2.3091,-2.3091,-2.3091,-2.3091,-2.3091,-2.3091,-2.3091,-2.3091,-2.3091,-2.3091,-2.3091,-2.3091,-2.3091,-2.3091,-2.3091,-2.3091,-2.3091,-2.3091,-2.3091,-2.3091,-2.3091,-2.3091,-2.3091,-2.3091,-2.3091,-2.3091,-2.3091,-2.3091,-2.3091,-2.3091,-2.3091,-2.3091,-2.3091,-2.3091,-2.3091,-2.3091,-2.3091,-2.3091,-2.3091,-2.3091,-2.2677,-2.1471,-2.1712,-2.1578,-2.035,-2.0215,-2.0215,-2.0215,-1.9131,-1.8234,-1.7731,-1.6527,-1.5784,-1.5784,-1.5784,-1.5784,-1.5784,-1.5784,-1.615,-1.6943,-1.7458,-1.7318,-1.6574,-1.6803,-1.6527,-1.5784,-1.5784,-1.5784,-1.5784,-1.5784,-1.5784,-1.5784,-1.5784,-1.5784,-1.5784,-1.5784,-1.5784,-1.5784,-1.5784,-1.5784,-1.5784,-2.374,-2.373,-2.3603,-2.3169,-2.3091,-2.3091,-2.3091,-2.3091,-2.3091,-2.3091,-2.3091,-2.3091,-2.3091,-2.3091,-2.3091,-2.3091,-2.3091,-2.3091,-2.3091,-2.3091,-2.3091,-2.3091,-2.3091,-2.3091,-2.3091,-2.3091,-2.3091,-2.3091,-2.3091,-2.3091,-2.3091,-2.3091,-2.3091,-2.3091,-2.3091,-2.3091,-2.3091,-2.3091,-2.3091,-2.3091,-2.3091,-2.3091,-2.3091,-2.3091,-2.3091,-2.3091,-2.3091,-2.3091,-2.3091,-2.3091,-2.3091,-2.3091,-2.3091,-2.3091,-2.3091,-2.3091,-2.3091,-2.3091,-2.3091,-2.3091,-2.3091,-2.3091,-2.3091,-2.3091,-2.3091,-2.3091,-2.3091,-2.3091,-2.3091,-2.3091,-2.3091,-2.3091,-2.3047,-2.296,-2.3047,-2.2633,-2.1346,-2.2085,-2.2315,-2.1114,-2.0881,-2.0836,-2.098,-1.9988,-1.8818,-1.7638,-1.648,-1.5784,-1.5784,-1.5784,-1.5784,-1.5784,-1.5784,-1.5784,-1.5784,-1.6943,-1.7552,-1.7505,-1.648,-1.592,-1.5784,-1.5784,-1.5784,-1.5784,-1.5784,-1.5784,-1.5784,-1.5784,-1.5784,-1.5784,-1.5784,-1.5784,-1.5784,-1.5784,-1.5784,-1.5784,-2.3305,-2.3237,-2.3208,-2.311,-2.3091,-2.3091,-2.3091,-2.3091,-2.3091,-2.3091,-2.3091,-2.3091,-2.3091,-2.3091,-2.3091,-2.3091,-2.3091,-2.3091,-2.3091,-2.3091,-2.3091,-2.3091,-2.3091,-2.3091,-2.3091,-2.3091,-2.3091,-2.3091,-2.3091,-2.3091,-2.3091,-2.3091,-2.3091,-2.3091,-2.3091,-2.3091,-2.3091,-2.3091,-2.3091,-2.3091,-2.3091,-2.3091,-2.3091,-2.3091,-2.3091,-2.3091,-2.3091,-2.3091,-2.3091,-2.3091,-2.3091,-2.3091,-2.3091,-2.3091,-2.3091,-2.3091,-2.3091,-2.3091,-2.3091,-2.3091,-2.3091,-2.3091,-2.3091,-2.3091,-2.3091,-2.3091,-2.3091,-2.3091,-2.3091,-2.3091,-2.3091,-2.3091,-2.2775,-2.1845,-2.2492,-2.2359,-2.0169,-2.0124,-1.9815,-1.8634,-1.7623,-1.739,-1.8365,-1.8234,-1.7591,-1.6298,-1.5967,-1.5784,-1.5784,-1.5784,-1.5784,-1.5784,-1.5784,-1.5784,-1.5784,-1.6062,-1.6204,-1.6197,-1.6943,-1.6756,-1.5784,-1.5784,-1.5784,-1.5784,-1.5784,-1.5784,-1.5784,-1.5784,-1.5784,-1.5784,-1.5784,-1.5784,-1.5784,-1.5784,-1.5784,-1.5784,-2.314,-2.3091,-2.3091,-2.3091,-2.3091,-2.3091,-2.3091,-2.3091,-2.3091,-2.3091,-2.3091,-2.3091,-2.3091,-2.3091,-2.3091,-2.3091,-2.3091,-2.2858,-2.2286,-2.2233,-2.2233,-2.2233,-2.2233,-2.2509,-2.3091,-2.3091,-2.3091,-2.3091,-2.3091,-2.3091,-2.3091,-2.3091,-2.3091,-2.3091,-2.3091,-2.3091,-2.3091,-2.3091,-2.3091,-2.3091,-2.3091,-2.3091,-2.3091,-2.3091,-2.3091,-2.3091,-2.3091,-2.3091,-2.3091,-2.3091,-2.3091,-2.3091,-2.3091,-2.3091,-2.3091,-2.3091,-2.3091,-2.3091,-2.3091,-2.3091,-2.3091,-2.3091,-2.3091,-2.3091,-2.3091,-2.3091,-2.3091,-2.3091,-2.3091,-2.3091,-2.3091,-2.3091,-2.2906,-2.2262,-2.2677,-2.2271,-1.9861,-1.9988,-1.9716,-1.7917,-1.763,-1.7576,-1.7684,-1.7692,-1.7178,-1.592,-1.5784,-1.5784,-1.5784,-1.5784,-1.5784,-1.5784,-1.5784,-1.5784,-1.5784,-1.5784,-1.5784,-1.5832,-1.648,-1.6433,-1.5784,-1.5784,-1.5784,-1.5784,-1.5784,-1.5784,-1.5784,-1.5784,-1.5784,-1.5784,-1.5784,-1.5784,-1.5784,-1.5784,-1.5784,-1.5784,-2.3091,-2.3091,-2.3091,-2.3091,-2.3091,-2.3091,-2.3091,-2.3091,-2.3091,-2.3091,-2.3091,-2.3091,-2.3091,-2.3091,-2.3091,-2.3091,-2.2921,-2.2381,-2.1389,-2.1122,-2.1006,-2.1006,-2.1207,-2.177,-2.2751,-2.2984,-2.3091,-2.3091,-2.3091,-2.3091,-2.3091,-2.3091,-2.3091,-2.3091,-2.3091,-2.3091,-2.3091,-2.3091,-2.3091,-2.3091,-2.3091,-2.3091,-2.3091,-2.3091,-2.3091,-2.3091,-2.3091,-2.3091,-2.3091,-2.3091,-2.3091,-2.3091,-2.3091,-2.3091,-2.3091,-2.3091,-2.3091,-2.3091,-2.3091,-2.3091,-2.3091,-2.3091,-2.3091,-2.3091,-2.3091,-2.3091,-2.3091,-2.3091,-2.3091,-2.3091,-2.3091,-2.3091,-2.3047,-2.2818,-2.2775,-2.2041,-1.9807,-2.0169,-1.9943,-1.7963,-1.8403,-1.8449,-1.7451,-1.7365,-1.6943,-1.5879,-1.5784,-1.5784,-1.5784,-1.5784,-1.5784,-1.5784,-1.5784,-1.5784,-1.5784,-1.5784,-1.5784,-1.5784,-1.5784,-1.5784,-1.5784,-1.5784,-1.5784,-1.5784,-1.5784,-1.5784,-1.5784,-1.5784,-1.5784,-1.5784,-1.5784,-1.5784,-1.5784,-1.5784,-1.5784,-1.5784,-2.3091,-2.3091,-2.3091,-2.3091,-2.3091,-2.3091,-2.3091,-2.3091,-2.3091,-2.3091,-2.3091,-2.3091,-2.3091,-2.3091,-2.3091,-2.3091,-2.217,-2.1481,-2.1331,-2.0304,-1.9727,-1.9727,-2.0738,-2.1381,-2.1549,-2.2572,-2.3091,-2.3091,-2.3091,-2.3091,-2.3091,-2.3091,-2.3091,-2.3091,-2.3091,-2.3091,-2.3091,-2.3091,-2.3091,-2.3091,-2.3091,-2.3091,-2.3091,-2.3091,-2.3091,-2.3091,-2.3091,-2.3091,-2.3091,-2.3091,-2.3091,-2.3091,-2.3091,-2.3091,-2.3091,-2.3091,-2.3091,-2.3091,-2.3091,-2.3091,-2.3091,-2.3091,-2.3091,-2.3091,-2.3091,-2.3091,-2.3091,-2.3091,-2.3091,-2.3091,-2.3091,-2.3091,-2.2765,-2.1712,-2.1525,-2.1078,-1.967,-1.8726,-1.8048,-1.7731,-1.685,-1.6244,-1.6062,-1.6062,-1.5967,-1.5825,-1.5784,-1.5784,-1.5784,-1.5784,-1.5784,-1.5784,-1.5784,-1.5784,-1.5784,-1.5784,-1.5784,-1.5784,-1.5784,-1.5784,-1.5784,-1.5784,-1.5784,-1.5784,-1.5784,-1.5784,-1.5784,-1.5784,-1.5784,-1.5784,-1.5784,-1.5784,-1.5784,-1.5784,-1.5784,-1.5784,-2.3091,-2.3091,-2.3091,-2.3091,-2.3091,-2.3091,-2.3091,-2.3091,-2.3091,-2.3091,-2.3091,-2.3091,-2.3091,-2.3091,-2.2814,-2.217,-2.1602,-2.0748,-1.9359,-1.8799,-1.8468,-1.8468,-1.9662,-2.0598,-2.1275,-2.2465,-2.3091,-2.3091,-2.3091,-2.3091,-2.3091,-2.3091,-2.3091,-2.3091,-2.3091,-2.3091,-2.3091,-2.3091,-2.3091,-2.3091,-2.3091,-2.3091,-2.3091,-2.3091,-2.3091,-2.3091,-2.3091,-2.3091,-2.3091,-2.3091,-2.3091,-2.3091,-2.3091,-2.3091,-2.3091,-2.3091,-2.3091,-2.3091,-2.3091,-2.3091,-2.3091,-2.3091,-2.3091,-2.3091,-2.3091,-2.3091,-2.3091,-2.3091,-2.3091,-2.3091,-2.3091,-2.3296,-2.2999,-2.1561,-2.1536,-2.0928,-1.8804,-1.8048,-1.7458,-1.6709,-1.6157,-1.5784,-1.5784,-1.5784,-1.5784,-1.5784,-1.5784,-1.5784,-1.5784,-1.5784,-1.5784,-1.5784,-1.5784,-1.5784,-1.5784,-1.5784,-1.5784,-1.5784,-1.5784,-1.5784,-1.5784,-1.5784,-1.5784,-1.5784,-1.5784,-1.5784,-1.5784,-1.5784,-1.5784,-1.5784,-1.5784,-1.5784,-1.5784,-1.5784,-1.5784,-1.5784]}]]